     2              OBSERVATION DATA    GPS                 RINEX VERSION / TYPE
teqc 1997Jun30 19970702                                     PGM / RUN BY / DATE
                                                            COMMENT
BIT 2 OF LLI FLAGS DATA COLLECTED UNDER A-S CONDITION       COMMENT
BIT 2 OF LLI FLAGS DATA COLLECTED UNDER A-S CONDITION       COMMENT
Original Marker Name: HMCP                                  COMMENT
Campaign Name: HMC San Gabriel Valley 1993-1996             COMMENT
4-Character Station Name: HMCP                              COMMENT
6-Character Antenna Code: DMRCHT                            COMMENT
Vertical Measurement Point: BPA                             COMMENT
Vertical Offset to Rinex Ref. Point: 0.0000                 COMMENT
Radial Measurement Point: RRP                               COMMENT
Radial Offset to Rinex Ref. Point: 0.0000                   COMMENT
Antenna Height from Field Measurement: 0.0000 m             COMMENT
Additional Antenna Identification Info.:                    COMMENT
Turborogue and Ashtech Choke Ring                           COMMENT
Fixed antenna mounting on roof of Parsons                   COMMENT
building, HMC.                                              COMMENT
Original XYZ: -2458649.1280 -4680558.1511 3556471.8197      COMMENT
New XYZ position is based on association with SCEC monument COMMENT
E1D0R2C7+0011. Position of that monument is believed to be  COMMENT
valid to within 1 m horizontally; vertical accuracy         COMMENT
should be no worse than 3-times this value.                 COMMENT
                                                            COMMENT
Revised Rinex header created by UCSD GPS archive for        COMMENT
GSAC on 13-Apr-1999 (1999:103) 20:06:31 GMT                 COMMENT
For assistance contact dagnew@ucsd.edu or hjohnson@ucsd.edu COMMENT
                                                            COMMENT
HARVEY MUDD COLLEGE PHYSICS                                 MARKER NAME
MGB HARVEY MUDD COLLEGE                                     OBSERVER / AGENCY
T-262/263 TURBOROGUE SNR-8000 95.03.08                      REC # / TYPE / VERS
260/329 DORNE-MARGOL. TYPE T                                ANT # / TYPE
 -2458598.0000 -4680494.0000  3556451.0000                  APPROX POSITION XYZ
        0.0000        0.0000        0.0000                  ANTENNA: DELTA H/E/N
     1     1     0                                          WAVELENGTH FACT L1/2
     5    L1    L2    C1    P2    P1                        # / TYPES OF OBSERV
     0                                                      INTERVAL
  1996     4     4     0    41   30.000000                  TIME OF FIRST OBS
  1996     4     4    23    59   30.000000                  TIME OF LAST OBS
     0                                                      # OF SATELLITES
                                                            END OF HEADER
 96  4  4  0 41 30.0000000  0  5G 6G20G 4G 9G24
         0.25054         1.49554  23523845.0784   23523844.4054
        -0.77454         0.06054  21525506.0144   21525506.5474
        -0.29254         0.44754  23140483.2764   23140483.4314
        -0.46954         0.08054  23503557.1824   23503559.6624
        -0.97354         0.30354  20842344.3974   20842345.0644
 96  4  4  0 42  0.0000000  0  6G20G 6G16G24G 4G 9
    -71808.11044    -55953.69944  21511841.1384   21511841.8744
    -67223.68444    -52380.74544  23511051.6204   23511051.7164
         0.00954         0.37554  22570072.4574   22570074.8784
     44818.11544     34924.26744  20850873.1134   20850873.7494
     92957.32144     72434.93844  23158171.8374   23158173.2134
     90447.11544     70478.64044  23520769.2844   23520772.3824
 96  4  4  0 42 30.0000000  0  7G20G 6G16G 5G24G 4G 9
   -143251.20344   -111623.62044  21498245.6744   21498246.9154
   -134384.38644   -104713.71844  23498271.9964   23498273.6214
    -83395.76244    -64983.29944  22554203.0574   22554205.3194
        -0.46254        -0.64854  20278117.3434   20278117.6434
     90008.55544     70137.59544  20859472.5974   20859473.2344
    186051.90144    144976.13744  23175887.3074   23175887.3324
    181016.59744    141052.18344  23538003.7164   23538006.0284
 96  4  4  0 43  0.0000000  0  7G 6G16G20G 5G24G 4G 9
   -201472.64644   -156990.24644  23485505.5534   23485505.7304
   -166489.83644   -129731.87944  22538390.6264   22538392.8284
   -214322.31744   -167003.69544  21484721.6154   21484722.3794
    -15648.20944    -12193.70644  20275139.5374   20275139.5414
    135576.68044    105645.22544  20868143.8034   20868144.5764
    279291.64444    217630.46944  23193630.4384   23193630.7844
    271694.46744    211710.18044  23555259.0794   23555262.0514
 96  4  4  0 43 30.0000000  0  7G20G 6G16G 5G24G 4G 9
   -285040.31544   -222108.61644  21471264.4544   21471265.0954
   -268492.59044   -209213.54644  23472751.8714   23472751.9784
   -249281.94644   -194245.16544  22522636.0414   22522638.5564
    -30774.48544    -23980.42144  20272261.1364   20272261.3704
    181515.69744    141441.85844  20876885.8014   20876886.4884
    372661.50144    290386.19844  23211398.1844   23211397.8094
    362460.44244    282436.82744  23572531.3114   23572534.3454
 96  4  4  0 44  0.0000000  0  7G20G 6G16G 5G24G 4G 9
   -355446.88644   -276970.86044  21457866.7294   21457867.3564
   -335474.06044   -261406.85944  23460005.5094   23460007.1344
   -331804.42444   -258548.34544  22506932.5304   22506934.3134
    -45427.59044    -35398.43244  20269472.9054   20269472.9354
    227783.30044    177494.53244  20885690.2994   20885690.9344
    466105.17744    363199.41444  23229179.4564   23229180.2274
    453259.83244    353189.49844  23589810.6804   23589812.8734
 96  4  4  0 44 30.0000000  0  7G 6G16G20G 5G24G 4G 9
   -402418.83244   -313571.56944  23447266.5574   23447267.1754
   -414044.36244   -322631.37144  22491282.5064   22491284.9314
   -425515.05544   -331569.42044  21444533.1594   21444534.2074
    -59610.78944    -46450.27844  20266773.9784   20266774.0724
    274389.39344    213810.96744  20894559.2044   20894559.8784
    559635.08444    436079.84244  23246978.2304   23246978.4084
    544100.54144    423974.39844  23607096.5184   23607098.6824
 96  4  4  0 45  0.0000000  0  7G 6G16G20G 5G24G 4G 9
   -469340.29144   -365718.14044  23434531.7214   23434532.7304
   -496000.30844   -386493.09644  22475686.9694   22475689.0554
   -495223.80644   -385887.91444  21431267.8074   21431268.3634
    -73314.22444    -57128.28444  20264166.2224   20264166.1344
    321341.62744    250397.12444  20903493.7144   20903494.3914
    653256.51444    509031.59644  23264792.9614   23264792.9294
    635003.33344    494807.65544  23624395.0044   23624396.0014
 96  4  4  0 45 30.0000000  0  7G 6G16G20G 5G24G 4G 9
   -536254.14944   -417858.76444  23421797.5754   23421798.4954
   -577709.42544   -450162.48844  22460137.5144   22460139.6234
   -564590.30244   -439939.72044  21418067.5584   21418068.4374
    -86534.52944    -67429.82844  20261650.4784   20261650.6614
    368617.37544    287235.36644  20912490.1604   20912490.9764
    746953.88844    582042.53144  23282623.1224   23282623.8474
    725969.83344    565690.57544  23641706.4044   23641707.4264
 96  4  4  0 46  0.0000000  0  7G 6G16G20G 5G24G 4G 9
   -603143.59544   -469980.36444  23409068.6034   23409070.4184
   -659150.45044   -513622.98544  22444639.6594   22444642.7594
   -633587.81644   -493704.00044  21404938.0554   21404938.6014
    -99243.96444    -77333.28844  20259232.0254   20259231.9174
    416229.76744    324335.92644  20921550.7274   20921551.3464
    840761.44344    655139.30244  23300474.2304   23300474.1314
    817013.06544    636633.26244  23659030.0854   23659033.2744
 96  4  4  0 46 30.0000000  0  7G 6G16G20G 5G24G 4G 9
   -670003.99344   -522079.31544  23396345.7584   23396348.9764
   -740310.33844   -576864.41344  22429196.3354   22429198.1594
   -702198.33944   -547166.73044  21391881.7364   21391882.1104
   -111428.40544    -86827.65844  20256913.3814   20256913.5484
    464200.90544    361716.03644  20930678.9434   20930679.9804
    934705.87444    728342.74944  23318351.1944   23318351.8344
    908156.98544    707654.39044  23676374.4804   23676376.0364
 96  4  4  0 47  0.0000000  0  7G 6G16G20G 5G24G 4G 9
   -736840.10144   -574159.35044  23383627.5314   23383629.6454
   -821189.82444   -639887.35244  22413805.2754   22413807.4644
   -770454.21444   -600353.11144  21378893.0254   21378894.2174
   -123105.35544    -95926.58344  20254691.2294   20254691.2714
    512517.86744    399365.61144  20939873.4434   20939874.3634
   1028756.25844    801628.72944  23336248.2364   23336248.3794
    999386.48344    778742.23544  23693735.4644   23693736.7784
 96  4  4  0 47 30.0000000  0  7G 6G16G20G 5G24G 4G 9
   -803645.66244   -626215.59144  23370915.4054   23370916.4734
   -901776.43244   -702682.06644  22398469.7334   22398471.6664
   -838367.55844   -653272.58944  21365969.7664   21365970.7504
   -134275.85644   -104630.87744  20252565.5784   20252565.7854
    561169.47244    437275.95544  20949131.5644   20949132.0984
   1122893.62144    874982.52344  23354162.2894   23354162.2174
   1090674.86344    849875.96044  23711106.9224   23711109.5844
 96  4  4  0 48  0.0000000  0  7G 6G16G20G 5G24G 4G 9
   -870423.99344   -678250.61644  23358206.9074   23358209.3414
   -982047.05944   -765230.56244  22383195.1514   22383197.2324
   -905935.59044   -705922.98744  21353112.2934   21353112.9804
   -144959.28244   -112955.62844  20250532.6084   20250532.2924
    610146.12844    475439.58744  20958451.3334   20958452.0414
   1217095.81144    948386.77744  23372088.4614   23372089.1394
   1181992.66844    921032.59244  23728484.1634   23728487.4934
 96  4  4  0 48 30.0000000  0  7G 6G16G20G 5G24G 4G 9
   -937161.98644   -730254.18344  23345507.1014   23345509.3364
  -1061997.34344   -827529.43544  22367981.4564   22367983.6024
   -973141.40944   -758291.14244  21340323.0394   21340324.1304
   -155139.53144   -120888.29544  20248595.4124   20248595.5534
    659455.93244    513862.80844  20967834.8074   20967835.8034
   1311353.46944   1021834.28144  23390024.9534   23390025.0514
   1273358.40744    992226.58344  23745870.7914   23745872.2954
 96  4  4  0 49  0.0000000  0  7G 6G16G20G 5G24G 4G 9
  -1003863.52044   -782228.64944  23332814.2004   23332815.4874
  -1141631.53144   -889582.00344  22352827.0524   22352829.1164
  -1039981.37244   -810374.21944  21327603.8474   21327604.4564
   -164801.88944   -128417.40544  20246756.7694   20246756.8374
    709088.07744    552537.20644  20977279.4234   20977280.0884
   1405646.73744   1095309.53344  23407968.6834   23407968.5074
   1364760.12644   1063448.63044  23763263.9234   23763265.6644
 96  4  4  0 49 30.0000000  0  7G 6G16G20G 5G24G 4G 9
  -1070528.70144   -834175.29544  23320128.5864   23320129.4784
  -1220962.69844   -951398.44844  22337730.7234   22337732.9684
  -1106429.37344   -862151.86444  21314959.1994   21314959.7804
   -173938.26844   -135536.66444  20245018.0404   20245018.1774
    759038.08344    591459.28744  20986784.6084   20986785.2954
   1499991.81044   1168825.15444  23425921.4564   23425921.9124
   1456187.89844   1134690.95744  23780661.9144   23780665.3134
 96  4  4  0 50  0.0000000  0  7G 6G16G20G 5G24G 4G 9
  -1137148.41744   -886086.69344  23307451.4554   23307451.9644
  -1299985.72944  -1012974.78644  22322693.2094   22322695.5914
  -1172449.00544   -913595.71244  21302395.8884   21302396.7594
   -182539.30044   -142238.76844  20243381.4024   20243381.4374
    809324.32644    630643.37044  20996353.8804   20996354.4184
   1594419.45444   1242405.10444  23443890.4704   23443890.0214
   1547666.55244   1205972.92144  23798069.2334   23798072.2924
 96  4  4  0 50 30.0000000  0  7G 6G16G20G 5G24G 4G 9
  -1203712.62044   -937954.85244  23294785.0784   23294786.2574
  -1378704.93244  -1074314.37844  22307712.9344   22307714.7374
  -1238034.65144   -964701.39244  21289915.5994   21289916.3264
   -190582.03944   -148505.84444  20241850.8264   20241851.0714
    859959.35344    670099.23544  21005989.3804   21005989.8824
   1688944.32244   1316060.82844  23461878.4514   23461878.1124
   1639223.75844   1277316.09844  23815492.9704   23815494.8684
 96  4  4  0 51  0.0000000  0  7G 6G16G20G 5G24G 4G 9
  -1270238.08944   -989792.84044  23282125.4094   23282126.5554
  -1457134.78644  -1135428.50344  22292788.6654   22292790.4624
  -1303201.59144  -1015480.81444  21277514.5214   21277515.1044
   -198104.56544   -154367.55344  20240419.5414   20240419.3564
    910927.76244    709814.87844  21015688.7334   21015689.0484
   1783555.31844   1389783.65244  23479881.7724   23479881.8774
   1730819.78044   1348689.54044  23832922.8654   23832925.9664
 96  4  4  0 51 30.0000000  0  7G 6G16G20G 5G24G 4G 9
  -1336717.01244  -1041594.55644  23269474.6934   23269475.6884
  -1535253.28044  -1196300.01144  22277923.0594   22277925.3134
  -1367938.96044  -1065925.50944  21265195.6464   21265196.0814
   -205111.59844   -159827.58444  20239086.0324   20239085.9794
    962239.42844    749797.99544  21025452.7954   21025453.3214
   1878278.53644   1463593.93144  23497907.5944   23497906.5004
   1822458.55744   1420096.30044  23850361.1654   23850365.1184
 96  4  4  0 52  0.0000000  0  7G 6G16G20G 5G24G 4G 9
  -1403164.82544  -1093372.04144  23256830.7044   23256830.3434
  -1613049.83544  -1256920.65544  22263118.9084   22263120.9934
  -1432271.41844  -1116054.68344  21252953.6894   21252954.2154
   -211609.54544   -164890.92144  20237849.3774   20237849.5234
   1013887.63044    790043.34944  21035281.0844   21035281.8834
   1973097.54544   1537478.87944  23515950.8174   23515952.8084
   1914139.60644   1491535.97944  23867807.3374   23867810.5344
 96  4  4  0 52 30.0000000  0  7G 6G16G20G 5G24G 4G 9
  -1469571.20544  -1145117.24044  23244193.7224   23244195.3694
  -1690498.52244  -1317270.23544  22248380.9914   22248382.8644
  -1496220.79644  -1165885.34544  21240784.3624   21240784.8964
   -217585.40144   -169547.44244  20236712.1554   20236712.2784
   1065870.93344    830549.82044  21045173.2324   21045173.7194
   2068010.95744   1611437.34344  23534012.6704   23534013.0124
   2005854.21344   1563001.80444  23885260.7704   23885262.6514
 96  4  4  0 53  0.0000000  0  7G 6G16G20G 5G24G 4G 9
  -1535941.10544  -1196834.00144  23231563.1044   23231563.7564
  -1767592.57344  -1377343.47244  22233710.2284   22233712.3044
  -1559797.00344  -1215425.23744  21228686.3694   21228686.7054
   -223050.24844   -173805.76944  20235672.5064   20235672.5874
   1118178.86644    871309.24844  21055127.2044   21055127.8954
   2163025.54444   1685474.68044  23552093.1164   23552093.5764
   2097583.15444   1634478.81044  23902716.3484   23902718.8674
 96  4  4  0 53 30.0000000  0  7G 6G16G20G 5G24G 4G 9
  -1602276.92944  -1248524.20544  23218940.2714   23218941.3084
  -1844330.92844  -1437139.54744  22219107.5654   22219109.6144
  -1623015.31744  -1264686.24944  21216656.0314   21216656.8564
   -227989.62044   -177654.63744  20234732.4364   20234732.4174
   1170794.71844    912308.61044  21065139.6204   21065140.1934
   2258130.77344   1759582.64744  23570191.4274   23570190.4494
   2189342.00744   1705979.12944  23920177.0734   23920180.4794
 96  4  4  0 54  0.0000000  0  7G 6G16G20G 5G24G 4G 9
  -1668563.92244  -1300176.36944  23206326.2874   23206326.7124
  -1920724.84344  -1496667.22244  22204569.9594   22204572.5554
  -1685873.64044  -1313666.74544  21204694.1884   21204694.8014
   -232400.22144   -181091.47344  20233893.1204   20233893.2034
   1223715.75444    953545.78444  21075209.9744   21075210.5804
   2353311.56244   1833749.49044  23588303.4174   23588303.7814
   2281126.26744   1777499.22044  23937642.7804   23937645.0594
 96  4  4  0 54 30.0000000  0  7G 6G16G20G 5G24G 4G 9
  -1734811.89144  -1351798.11744  23193720.2254   23193721.4314
  -1996813.03944  -1555956.67944  22190090.8644   22190092.6594
  -1748371.39944  -1362366.29044  21192801.7344   21192802.7424
   -236309.51244   -184137.68344  20233149.2444   20233149.1934
   1276922.92844    995005.91644  21085334.9894   21085335.7334
   2448540.83844   1907954.08544  23606425.0164   23606425.5674
   2372907.55544   1849017.00544  23955108.2384   23955110.6454
 96  4  4  0 55  0.0000000  0  7G 6G16G20G 5G24G 4G 9
  -1801032.07044  -1403398.22244  23181118.7404   23181120.0664
  -2072606.58944  -1615016.55144  22175667.6814   22175670.0474
  -1810469.51044  -1410754.41644  21180984.8594   21180985.5894
   -239727.33544   -186800.92944  20232498.8664   20232498.9204
   1330422.26244   1036693.70644  21095515.5184   21095516.1454
   2543811.81044   1982191.20044  23624555.0154   23624555.3444
   2464695.42744   1920539.92944  23972575.8844   23972576.6274
 96  4  4  0 55 30.0000000  0  7G 6G16G20G 5G24G 4G 9
  -1867226.80444  -1454978.49044  23168521.8884   23168522.7564
  -2148096.14444  -1673839.53444  22161302.5454   22161304.9464
  -1872135.42244  -1458805.76444  21169250.1454   21169250.4994
   -242643.85344   -189073.54844  20231943.7944   20231943.7884
   1384220.58644   1078614.47544  21105753.2444   21105753.6954
   2639121.89744   2056458.77944  23642691.4054   23642689.8474
   2556499.15844   1992075.20044  23990045.2574   23990048.1654
 96  4  4  0 56  0.0000000  0  7G 6G16G20G 5G24G 4G 9
  -1933397.79244  -1506540.26844  23155930.1014   23155930.4434
  -2223268.11144  -1732415.05044  22146997.9204   22147000.2834
  -1933334.47244  -1506493.32644  21157604.2274   21157604.7844
   -245045.08044   -190944.64344  20231487.0294   20231487.0564
   1438337.22944   1120783.29344  21116051.2754   21116051.7854
   2734478.33744   2130762.49944  23660836.8934   23660836.4534
   2648315.46944   2063620.28944  24007517.2654   24007520.6034
 96  4  4  0 56 30.0000000  0  7G 6G16G20G 5G24G 4G 9
  -1999569.44444  -1558102.53944  23143337.7554   23143339.0074
  -2298108.91444  -1790732.50444  22132755.7974   22132757.6364
  -1994070.55944  -1553820.13644  21146046.6004   21146047.2954
   -246920.58444   -192406.08244  20231130.1284   20231130.1014
   1492752.01844   1163184.42044  21126405.5904   21126406.4094
   2829876.81244   2205098.94744  23678990.5614   23678990.9854
   2740146.77144   2135177.01144  24024992.4394   24024994.4524
 96  4  4  0 57  0.0000000  0  7G 6G16G20G 5G24G 4G 9
  -2065741.00244  -1609664.74844  23130745.5734   23130746.1114
  -2372600.59344  -1848777.91844  22118580.9184   22118583.1004
  -2054356.49444  -1600796.17544  21134574.4094   21134575.3054
   -248249.31044   -193441.46144  20230877.1494   20230877.3664
   1547449.68744   1205805.97844  21136814.2814   21136814.9324
   2925325.39644   2279474.46244  23697154.2634   23697153.7434
   2831992.14144   2206744.73244  24042469.9054   24042471.6464
 96  4  4  0 57 30.0000000  0  7G 6G16G20G 5G24G 4G 9
  -2131887.77344  -1661207.65244  23118158.3894   23118159.2394
  -2446730.05644  -1906541.09144  22104474.5144   22104476.5644
  -2114220.21944  -1647443.22444  21123182.5514   21123183.5074
   -249016.35644   -194039.16444  20230731.0974   20230731.3284
   1602408.96544   1248631.38744  21147272.4934   21147273.1174
   3020818.92044   2353885.00344  23715325.3904   23715325.9534
   2923838.13444   2278312.93344  24059948.0784   24059951.1964
 96  4  4  0 58  0.0000000  0  7G 6G16G20G 5G24G 4G 9
  -2197978.88344  -1712707.18144  23105581.5444   23105582.7854
  -2520465.29444  -1963997.06944  22090442.7314   22090445.1094
  -2173656.47344  -1693757.17844  21111872.3374   21111873.0244
   -249203.07844   -194184.66844  20230695.7514   20230696.0394
   1657634.35044   1291664.15144  21157781.7204   21157782.2904
   3116372.14244   2428342.03244  23733508.2554   23733510.8584
   3015694.67944   2349889.35844  24077427.1334   24077430.0834
 96  4  4  0 58 30.0000000  0  7G 6G16G20G 5G24G 4G 9
  -2264000.70844  -1764152.72344  23093017.8444   23093018.0384
  -2593811.42444  -2021149.84744  22076485.6094   22076488.1494
  -2232688.53744  -1739756.17844  21100638.9854   21100639.5584
   -248831.96444   -193895.49544  20230766.3674   20230766.5454
   1713110.01244   1334891.93644  21168338.4514   21168339.2134
   3211985.70444   2502846.09644  23751704.4624   23751704.5494
   3107558.61144   2421471.53744  24094908.3304   24094912.1514
 96  4  4  0 59  0.0000000  0  7G 6G16G20G 5G24G 4G 9
  -2329936.56844  -1815531.27444  23080471.2024   23080470.8074
  -2666766.81544  -2077998.15044  22062602.4504   22062604.4574
  -2291303.14644  -1785429.89444  21089485.0964   21089485.7074
   -247921.04244   -193185.69044  20230939.6154   20230939.6954
   1768852.69944   1378327.79544  21178946.1074   21178946.9594
   3307661.31944   2577398.50444  23769910.1234   23769911.3054
   3199428.71444   2493058.49244  24112391.2314   24112394.3324
 96  4  4  0 59 30.0000000  0  7G 6G16G20G 5G24G 4G 9
  -2395799.92444  -1866853.34544  23067937.3274   23067937.1054
  -2739333.28344  -2134543.39544  22048793.4954   22048795.7084
  -2349497.09844  -1830775.81944  21078411.1444   21078411.9254
   -246489.78344   -192070.43544  20231211.9984   20231212.1684
   1824876.84144   1421982.96344  21189606.9494   21189607.5974
   3403380.74844   2651985.05544  23788124.7804   23788124.8894
   3291298.96644   2564645.56844  24129873.4404   24129874.7674
 96  4  4  1  0  0.0000000  0  7G 6G16G20G 5G24G 4G 9
  -2461611.81644  -1918135.30244  23055413.8824   23055414.6934
  -2811531.10044  -2190801.38244  22035054.8434   22035056.4924
  -2407258.62844  -1875784.79144  21067419.4604   21067420.1714
   -244551.82944   -190560.34744  20231580.7904   20231581.0944
   1881199.00344   1465870.36644  21200324.8894   21200325.2964
   3499140.96344   2726603.40544  23806347.8004   23806349.1814
   3383167.30844   2636231.18044  24147355.8354   24147357.4874
 96  4  4  1  0 30.0000000  0  7G 6G16G20G 5G24G 4G 9
  -2527374.94844  -1969379.25144  23042900.3154   23042900.5364
  -2883370.53244  -2246780.11144  22021383.9914   22021386.5464
  -2464584.88044  -1920454.58944  21056510.6784   21056511.2354
   -242100.62644   -188650.32644  20232047.1934   20232047.2074
   1937835.93944   1510003.04244  21211102.2024   21211102.8724
   3594936.71144   2801249.39844  23824576.9424   23824577.7464
   3475035.32744   2707816.56844  24164837.8594   24164840.2844
 96  4  4  1  1  0.0000000  0  7G 6G16G20G 5G24G 4G 9
  -2593125.99044  -2020613.80244  23030387.8734   23030388.0514
  -2954859.10344  -2302485.44044  22007780.0644   22007782.5374
  -2521488.32444  -1964794.92444  21045682.0574   21045682.9214
   -239146.01944   -186348.03944  20232609.6244   20232609.8634
   1994769.10844   1554366.54144  21221936.4234   21221936.9814
   3690740.93444   2875902.03744  23842808.0414   23842808.5754
   3566863.30544   2779370.72844  24182312.0874   24182315.2864
 96  4  4  1  1 30.0000000  0  7G 6G16G20G 5G24G 4G 9
  -2658868.90244  -2071842.01844  23017877.2834   23017878.1194
  -3025991.31844  -2357913.09244  21994244.2684   21994246.4524
  -2577968.59344  -2008805.51244  21034934.7304   21034935.3264
   -235676.09444   -183644.20844  20233269.8884   20233269.7714
   2051998.04944   1598960.52044  21232826.9484   21232827.2424
   3786564.95044   2950570.07044  23861042.9024   23861041.8254
   3658647.77744   2850890.95144  24199778.9844   24199783.4084
 96  4  4  1  2  0.0000000  0  7G 6G16G20G 5G24G 4G 9
  -2724590.21544  -2123053.40344  23005371.3714   23005371.2594
  -3096756.37344  -2413054.64444  21980777.8544   21980780.5374
  -2634017.65044  -2052480.09444  21024268.7524   21024269.3364
   -231677.30444   -180528.27344  20234030.7444   20234030.8974
   2109517.70144   1643781.03044  21243772.7514   21243773.2754
   3882424.85844   3025266.08344  23879284.6694   23879284.6834
   3750392.08944   2922379.89744  24217235.6434   24217238.6944
 96  4  4  1  2 30.0000000  0  7G 6G16G20G 5G24G 4G 9
  -2790298.17944  -2174254.38744  22992867.0974   22992867.5044
  -3167143.13444  -2467901.42444  21967383.6024   21967386.3044
  -2689640.49444  -2095822.55444  21013684.0784   21013684.4834
   -227148.86044   -176999.62444  20234892.5164   20234892.4494
   2167317.47244   1688819.80944  21254771.2904   21254771.8414
   3978309.14244   3099981.09944  23897530.7864   23897530.9644
   3842086.02444   2993829.63744  24234686.1404   24234688.3764
 96  4  4  1  3  0.0000000  0  7G 6G16G20G 5G24G 4G 9
  -2855994.00944  -2225445.91344  22980365.7054   22980366.2054
  -3237136.88344  -2522441.96444  21954064.3724   21954066.8064
  -2744822.15544  -2138821.24644  21003183.2214   21003183.6374
   -222089.06844   -173056.93744  20235855.1854   20235855.4804
   2225404.82544   1734082.67644  21265825.1374   21265825.9314
   4074229.26444   3174723.99144  23915783.7054   23915785.5934
   3933735.26744   3065244.52544  24252125.6664   24252129.5814
 96  4  4  1  3 30.0000000  0  7G 6G16G20G 5G24G 4G 9
  -2921653.43544  -2276609.07344  22967870.9564   22967871.5384
  -3306738.42544  -2576676.88044  21940819.7054   21940822.0574
  -2799547.90044  -2181464.67044  20992769.3024   20992769.7404
   -216473.26144   -168680.99244  20236924.0054   20236924.0594
   2283789.60544   1779577.30844  21276935.2994   21276935.6934
   4170189.40344   3249498.11844  23934043.9234   23934045.3734
   4025367.49544   3136646.13844  24269562.6414   24269567.8834
 96  4  4  1  4  0.0000000  0  7G 6G16G20G 5G24G 4G 9
  -2987260.09044  -2327731.10844  22955386.1664   22955386.8454
  -3375937.51544  -2630598.20044  21927651.3544   21927653.6624
  -2853804.42944  -2223742.47544  20982444.6594   20982445.1254
   -210282.14044   -163856.74844  20238102.3534   20238102.6254
   2342470.40944   1825302.61644  21288102.0794   21288102.6504
   4266185.87044   3324300.54844  23952310.9154   23952311.1584
   4116988.59644   3208039.04644  24286997.0814   24286998.9084
 96  4  4  1  4 30.0000000  0  7G 6G16G20G 5G24G 4G 9
  -3052816.44344  -2378813.94844  22942911.0754   22942911.4604
  -3444739.24744  -2684209.89144  21914558.7134   21914560.4034
  -2907583.91944  -2265648.55744  20972210.5154   20972211.3484
   -203521.01844   -158588.35144  20239388.6174   20239388.8454
   2401439.54944   1871252.59044  21299323.1534   21299323.6564
   4362220.44844   3399132.66644  23970585.8794   23970587.2144
   4208588.75244   3279415.69344  24304429.4734   24304431.4794
 96  4  4  1  5  0.0000000  0  7G 6G16G20G 5G24G 4G 9
  -3118323.78744  -2429858.59144  22930445.2534   22930446.5114
  -3513151.03444  -2737517.73644  21901540.4034   21901542.3854
  -2960895.93744  -2307190.38544  20962065.6534   20962066.1804
   -196210.17844   -152891.59844  20240779.8994   20240780.0654
   2460672.24744   1917407.93544  21310594.8764   21310595.4504
   4458294.96044   3473995.90144  23988868.4814   23988870.3184
   4300163.19444   3350772.32044  24321854.7224   24321858.2714
 96  4  4  1  5 30.0000000  0  7G 6G16G20G 5G24G 4G 9
  -3183764.81944  -2480851.56844  22917992.6764   22917993.0994
  -3581170.31544  -2790519.72044  21888596.8534   21888599.2654
  -3013736.69444  -2348364.99244  20952010.4044   20952011.1974
   -188350.62044   -146767.27944  20242275.8154   20242275.6814
   2520152.41144   1963756.11344  21321913.6714   21321914.2664
   4554408.50444   3548889.53344  24007158.2684   24007158.6464
   4391708.52644   3422106.20444  24339275.0044   24339279.2344
 96  4  4  1  6  0.0000000  0  7G 6G16G20G 5G24G 4G 9
  -3249135.65344  -2531789.84844  22905551.8494   22905553.3524
  -3648780.30544  -2843202.77944  21875730.8794   21875733.1024
  -3066091.42444  -2389160.87444  20942047.6934   20942048.1164
   -179958.30144   -140227.81944  20243872.7044   20243872.8124
   2579887.03044   2010302.56544  21333281.0724   21333281.5704
   4650571.71844   3623821.91044  24025457.5634   24025456.8994
   4483222.27144   3493415.48844  24356690.6864   24356693.8154
 96  4  4  1  6 30.0000000  0  7G 6G16G20G 5G24G 4G 9
  -3314462.13244  -2582693.55644  22893121.0034   22893121.4604
  -3715989.97044  -2895573.89944  21862941.4834   21862943.1704
  -3117981.55244  -2429594.73244  20932173.3464   20932173.9344
   -171074.48644   -133305.37844  20245563.0644   20245563.2094
   2639860.28944   2057034.97544  21344693.4234   21344693.8474
   4746751.56644   3698767.21744  24043760.0824   24043759.8904
   4574691.37944   3564689.99944  24374096.4974   24374097.8904
 96  4  4  1  7  0.0000000  0  7G 6G16G20G 5G24G 4G 9
  -3379726.96744  -2633549.23544  22880701.2674   22880702.3204
  -3782777.50744  -2947616.09044  21850232.2234   21850233.8184
  -3169397.48344  -2469659.08644  20922389.3054   20922389.7754
   -161682.65244   -125987.07444  20247350.4854   20247350.4684
   2700084.18344   2103962.68144  21356153.6074   21356154.3714
   4842936.21944   3773716.27544  24062063.8904   24062063.0634
   4666128.04244   3635939.24544  24391495.2864   24391498.1534
 96  4  4  1  7 30.0000000  0  7G 6G16G20G 5G24G 4G 9
  -3444932.75244  -2684358.89144  22868292.9214   22868294.0394
  -3849141.14744  -2999327.96644  21837603.7684   21837605.5564
  -3220337.20144  -2509352.36144  20912695.5424   20912696.1924
   -151764.07644   -118258.32444  20249237.8824   20249238.2024
   2760565.86644   2151091.25644  21367662.7854   21367663.4634
   4939109.04844   3848656.14644  24080365.1654   24080364.6694
   4757521.96744   3707155.16844  24408887.6284   24408892.5514
 96  4  4  1  8  0.0000000  0  7G 6G16G20G 5G24G 4G 9
  -3510105.21644  -2735142.57544  22855891.5674   22855892.5754
  -3915086.46344  -3050713.87944  21825054.3204   21825056.1324
  -3270818.73044  -2548688.60844  20903089.1704   20903089.8154
   -141317.45044   -110118.10644  20251225.7034   20251225.6724
   2821300.45744   2198416.90644  21379220.2894   21379220.6644
   5035252.47244   3923573.10544  24098659.9174   24098659.0574
   4848861.29644   3778328.54144  24426269.1884   24426271.4774
 96  4  4  1  8 30.0000000  0  7G 6G16G20G 5G24G 4G 9
  -3575256.06344  -2785909.41844  22843493.7224   22843495.2354
  -3980614.71844  -3101774.80944  21812584.9684   21812586.5944
  -3320853.03244  -2587676.36944  20893568.1924   20893568.6434
   -130315.09344   -101544.85144  20253319.4374   20253319.7754
   2882279.47044   2245933.01944  21390824.2154   21390824.9614
   5131372.09344   3998471.48244  24116950.5794   24116951.0674
   4940124.66144   3849442.71944  24443636.2884   24443638.5694
 96  4  4  1  9  0.0000000  0  7G 6G16G20G 5G24G 4G 9
  -3640365.60044  -2836644.12344  22831103.8454   22831104.7634
  -4045731.00444  -3152514.72344  21800193.7194   21800195.4374
  -3370435.98544  -2626312.42244  20884132.9714   20884133.5224
   -118721.48644    -92510.88344  20255525.6484   20255525.6754
   2943510.22944   2293645.29144  21402475.9314   21402476.7054
   5227499.49744   4073375.92844  24135244.1484   24135244.6224
   5031315.69544   3920500.52844  24460988.6404   24460993.2024
 96  4  4  1  9 30.0000000  0  7G 6G16G20G 5G24G 4G 9
  -3705430.07944  -2887343.66144  22818722.6484   22818722.2424
  -4110438.00444  -3202935.71844  21787880.1584   21787881.7334
  -3419561.29444  -2664591.87544  20874784.5434   20874784.9954
   -106540.65644    -83019.33744  20257843.5924   20257843.6304
   3004996.16044   2341556.40244  21414176.3494   21414176.8954
   5323657.71444   4148304.39944  24153541.5544   24153542.0934
   5122447.14944   3991511.95944  24478331.5014   24478335.4724
 96  4  4  1 10  0.0000000  0  7G 6G16G20G 5G24G 4G 9
  -3770453.05944  -2938010.87844  22806349.1354   22806349.4574
  -4174744.23144  -3253044.42544  21775643.2544   21775645.1484
  -3468228.38244  -2702514.27044  20865523.1764   20865523.9204
    -93789.96144    -73083.74244  20260270.1074   20260269.9634
   3066727.18944   2389658.50244  21425923.4024   21425924.0454
   5419855.93244   4223264.02144  24171847.7724   24171847.5614
   5213514.13244   4062473.13444  24495661.3634   24495665.1704
 96  4  4  1 10 30.0000000  0  7G 6G16G20G 5G24G 4G 9
  -3835433.40544  -2988644.87244  22793984.4174   22793985.0034
  -4238659.51844  -3302848.49544  21763480.6384   21763482.5794
  -3516437.30044  -2740079.65344  20856349.8474   20856350.3394
    -80489.56844    -62719.81144  20262800.9384   20262801.2044
   3128684.21044   2437936.69644  21437713.4274   21437713.9334
   5516085.21244   4298247.86144  24190159.8334   24190160.3904
   5304505.79444   4133375.59344  24512975.3924   24512981.3124
 96  4  4  1 11  0.0000000  0  7G 6G16G20G 5G24G 4G 9
  -3900334.19444  -3039216.87844  22781634.0804   22781633.8654
  -4302154.00444  -3352324.67444  21751397.9244   21751400.0564
  -3564146.92444  -2777255.97444  20847270.7414   20847271.3944
    -66643.16544    -51930.41844  20265435.8534   20265435.9854
   3190891.69244   2486410.05144  21449551.0204   21449551.7884
   5612352.33444   4373261.20144  24208478.5624   24208479.0244
   5395472.83444   4204258.88944  24530286.2904   24530289.6964
 96  4  4  1 11 30.0000000  0  7G 6G16G20G 5G24G 4G 9
  -3965181.11744  -3089746.90644  22769294.0824   22769294.6714
  -4365211.44944  -3401460.30044  21739398.2964   21739399.8434
  -3611349.83944  -2814037.45944  20838288.5184   20838289.0204
    -52266.96444    -40728.19244  20268171.5554   20268171.7324
   3253339.94944   2535071.02744  21461434.5924   21461435.5954
   5708642.23944   4448292.24844  24226800.8374   24226802.2364
   5486395.89944   4275107.88144  24547588.6524   24547590.3974
 96  4  4  1 12  0.0000000  0  7G 6G16G20G 5G24G 4G 9
  -4030010.93744  -3140263.61544  22756957.0834   22756957.0394
  -4427845.80544  -3450266.25444  21727479.5084   21727481.5514
  -3658076.12744  -2850447.55244  20829396.5784   20829397.1434
    -37367.25644    -29118.03944  20271007.0774   20271007.0674
   3315995.38344   2583893.44044  21473357.4254   21473358.3034
   5804923.67744   4523316.75144  24245122.7514   24245123.1634
   5577229.51444   4345887.21444  24564873.8034   24564879.1114
 96  4  4  1 12 30.0000000  0  7G 6G16G20G 5G24G 4G 9
  -4094827.68644  -3190770.13444  22744622.7114   22744623.1824
  -4490047.81844  -3498735.31144  21715642.6164   21715644.2184
  -3704328.01144  -2886487.97244  20820595.1614   20820595.8494
    -21946.25344    -17101.68344  20273941.3914   20273941.4754
   3378855.67444   2632875.48244  21485319.3204   21485320.2894
   5901176.99244   4598319.31544  24263439.7554   24263439.9234
   5667966.33944   4416591.08744  24582139.8984   24582143.2404
 96  4  4  1 13  0.0000000  0  7G 6G16G20G 5G24G 4G 9
  -4159627.87444  -3241263.75844  22732291.6374   22732291.9034
  -4551797.49944  -3546851.90544  21703892.3384   21703894.1014
  -3750096.65844  -2922151.85144  20811885.8524   20811886.2844
     -5998.57744     -4674.93444  20276976.0434   20276976.3074
   3441952.29844   2682041.67444  21497326.4064   21497327.0994
   5997411.91844   4673307.55344  24281752.1054   24281752.2734
   5758610.81044   4487223.01644  24599390.3264   24599395.2384
 96  4  4  1 13 30.0000000  0  7G 6G16G20G 5G24G 4G 9
  -4224423.36944  -3291753.72244  22719961.3564   22719961.8114
  -4613095.82344  -3594616.79144  21692227.6634   21692229.0864
  -3795388.57644  -2957444.24744  20803267.0184   20803267.4384
     10489.10944      8172.59844  20280113.8064   20280114.1174
   3505277.10144   2731385.67644  21509376.6494   21509377.4994
   6093633.75444   4748285.57444  24300062.8204   24300064.4214
   5849140.79644   4557765.69244  24616617.4954   24616620.6604
 96  4  4  1 14  0.0000000  0  7G 6G16G20G 5G24G 4G 9
  -4289181.54444  -3342214.60444  22707638.2284   22707638.3934
  -4673939.52544  -3642027.42344  21680649.4174   21680651.0024
  -3840183.55744  -2992349.42344  20794742.7614   20794743.1674
     27522.44444     21445.31344  20283355.0744   20283355.2204
   3568844.54544   2780918.74944  21521473.0204   21521473.9654
   6189841.29944   4823252.43944  24318371.4704   24318370.9794
   5939576.77444   4628235.21544  24633826.9994   24633830.6544
 96  4  4  1 14 30.0000000  0  8G 6G16G20G 5G24G 4G 9G17
  -4353846.52344  -3392602.86544  22695333.0624   22695333.3124
  -4734280.85444  -3689046.59544  21669166.6014   21669168.3414
  -3884421.15844  -3026820.27544  20786324.6004   20786325.1384
     45130.12444     35165.57444  20286705.7194   20286705.8874
   3632705.74244   2830680.71444  21533625.6504   21533626.6444
   6286068.19144   4898234.47344  24336683.3714   24336681.6734
   6029973.28944   4698673.88144  24651028.1904   24651034.4674
         0.13154                  25557685.9844
 96  4  4  1 15  0.0000000  0  8G 6G16G20G 5G24G 4G 9G17
  -4418466.97044  -3442956.43944  22683035.6304   22683036.4924
  -4794178.19244  -3735719.80344  21657768.6584   21657769.9454
  -3928148.22244  -3060893.30644  20778003.5724   20778004.2044
     63266.14444     49297.52444  20290157.0134   20290157.1124
   3696792.11544   2880618.14544  21545820.7204   21545821.3564
   6382278.95544   4973203.95044  24354990.6524
   6120279.68744   4769042.41144  24668213.4844   24668217.7574
    -98469.15444                  25538948.8154
 96  4  4  1 15 30.0000000  0  8G 6G16G20G 5G24G 4G 9G17
  -4483035.51644  -3493269.56744  22670748.1654   22670749.4904
  -4853638.03244  -3782052.10144  21646453.6784   21646455.4804
  -3971360.14544  -3094564.93244  20769780.3634   20769781.0364
     81943.10844     63850.98844  20293710.8084   20293711.0854
   3761072.31444   2930706.61044  21558052.6804   21558053.2734
   6478473.55544   5048160.70144  24373296.7614   24373296.9354
   6210499.10744   4839343.12444  24685381.4704   24685384.9654
   -196832.82844                  25520232.6314
 96  4  4  1 16  0.0000000  0  8G 6G16G20G 5G24G 4G 9G17
  -4547548.54144  -3543539.43544  22658471.9304   22658472.5694
  -4912655.74044  -3828039.87844  21635223.0744   21635224.8234
  -4014063.74744  -3127840.46244  20761654.7914   20761655.2274
    101144.32744     78812.96544  20297364.8584   20297364.9544
   3825543.36344   2980943.78644  21570321.3514   21570322.0404
   6574643.01244   5123097.89244  24391596.9234   24391596.1234
   6300632.92244   4909577.12644  24702533.5494   24702538.4434
   -295098.12844                  25501535.0944
 96  4  4  1 16 30.0000000  0  8G 6G16G20G 5G24G 4G 9G17
  -4612000.75044  -3593761.90744  22646206.6754   22646207.4534
  -4971213.80144  -3873669.49144  21624079.7404   21624081.5194
  -4056267.37844  -3160726.40644  20753623.3964   20753623.8474
    120880.15544     94191.51944  20301120.6624   20301120.9834
   3890209.67744   3031333.11944  21582626.7284   21582627.6674
   6670813.44344   5198035.89444  24409897.5144   24409894.0804
   6390682.08844   4979745.18044  24719670.2104   24719672.4564
   -393269.36344                  25482853.6834
 96  4  4  1 17  0.0000000  0  8G 6G16G20G 5G24G 4G 9G17
  -4676390.71644  -3643935.88544  22633954.2484   22633955.4234
  -5029313.78644  -3918942.16044  21613023.7204   21613025.3554
  -4097978.96244  -3193228.93444  20745685.8724   20745686.3654
    141160.68344    109994.51644  20304979.6934   20304979.9234
   3955072.32344   3081875.43744  21594969.7234   21594970.6804
   6766991.49544   5272979.84144  24428199.3044   24428201.3144
   6480636.75044   5049839.59944  24736787.7464   24736793.3314
   -491344.03644                  25464188.7544
 96  4  4  1 17 30.0000000  0  7G 6G16G20G 5G24G 4G 9
  -4740745.74544  -3694082.63644  22621707.9474   22621708.3224
  -5086956.77844  -3963858.73144  21602054.7384   21602056.0914
  -4139220.67444  -3225365.33244  20737837.8254   20737838.1364
    161966.58544    126206.89344  20308938.9164   20308939.2174
   4020143.93244   3132580.58344  21607352.4824   21607353.1124
   6863147.91644   5347906.87644  24446497.6984   24446498.7654
   6570474.78544   5119843.10044  24753883.2534   24753890.8604
 96  4  4  1 18  0.0000000  0  7G 6G16G20G 5G24G 4G 9
  -4805083.32844  -3744215.79344  22609464.9344   22609465.8744
  -5144156.93944  -4008430.24244  21591169.6314   21591171.1844
  -4180006.61944  -3257146.57944  20730076.7464   20730077.4004
    183284.66744    142818.37244  20312995.6704   20312995.9094
   4085428.92544   3183452.00544  21619775.8004   21619776.4004
   6959261.35844   5422800.43744  24464787.4094   24464787.3644
   6660170.19044   5189735.49644  24770951.8674   24770957.7544
 96  4  4  1 18 30.0000000  0  7G 6G16G20G 5G24G 4G 9
  -4869361.80744  -3794302.88944  22597233.4874   22597234.0374
  -5200879.19644  -4052629.35744  21580375.7334   21580377.2294
  -4220277.10044  -3288526.17144  20722413.0744   20722413.8664
    205178.38844    159878.40244  20317161.7684   20317162.1254
   4150974.13444   3234526.18644  21632248.6104   21632249.3034
   7055378.18444   5497696.66444  24483077.5594   24483077.3844
   6749760.95844   5259546.34444  24788000.0834   24788006.7584
 96  4  4  1 19  0.0000000  0  7G 6G16G20G 5G24G 4G17
  -4933593.63044  -3844353.62944  22585010.4084   22585010.9504
  -5257135.23044  -4096465.18444  21569670.4924   21569672.2034
  -4260019.07744  -3319493.93944  20714850.5844   20714851.2054
    227649.76044    177388.55244  20321438.1604   20321438.3094
   4216771.94444   3285797.20144  21644769.5944   21644770.3374
   7151473.24744   5572575.92044  24501363.9984   24501363.5324
        -0.94954                  25389713.7724
 96  4  4  1 19 30.0000000  0  7G 6G16G20G 5G24G 4G17
  -4997802.23844  -3894386.28344  22572792.2714   22572792.5074
  -5312953.82044  -4139960.15144  21559048.6604   21559049.8954
  -4299250.04744  -3350063.52244  20707385.3204   20707385.8414
    250650.89944    195311.50444  20325815.1034   20325815.2574
   4282778.62644   3337230.97844  21657330.3854   21657330.9564
   7247505.64244   5647406.36144  24519638.2634   24519640.2994
    -97597.84644                  25371141.9054
 96  4  4  1 20  0.0000000  0  8G 6G16G20G 5G24G 4G25G17
  -5061933.54044  -3944358.69944  22560588.0414   22560588.4894
  -5368303.37744  -4183089.63044  21548515.8304   21548517.3454
  -4337930.70144  -3380204.28544  20700024.4924   20700025.0744
    274218.39544    213675.77444  20330299.9084   20330300.1264
   4348998.48444   3388830.86444  21669931.6264   21669932.3304
   7343512.67744   5722217.01144  24537907.3874   24537908.7724
        -0.29254         2.36654  25318521.5754   25318522.9714
   -195076.70744   -152006.91044  25352593.8144
 96  4  4  1 20 30.0000000  0  8G 6G16G20G 5G24G 4G25G17
  -5125991.31444  -3994273.82244  22548398.2184   22548398.6414
  -5423174.40944  -4225846.24244  21538074.3444   21538075.6234
  -4376076.74144  -3409928.46444  20692765.6384   20692766.1454
    298340.81944    232472.45444  20334890.0904   20334890.3994
   4415411.44344   3440581.21744  21682569.6304   21682570.3394
   7439501.19344   5797013.27044  24556174.5534   24556177.3824
    -40657.43944    -31677.03644  25310782.8324   25310782.5564
   -292427.76244   -227864.64044  25334069.5334
 96  4  4  1 21  0.0000000  0  8G 6G16G20G 5G24G 4G25G17
  -5189982.04144  -4044136.69944  22536220.4134   22536221.0094
  -5477558.24144  -4268223.21144  21527725.3264   21527726.8064
  -4413716.17844  -3439257.88944  20685603.1824   20685603.7194
    322995.47344    251683.85644  20339581.7594   20339582.0674
   4481987.31044   3492458.50944  21695238.5324   21695239.1884
   7535462.08144   5871787.97344  24574435.3254   24574436.9244
    -80817.93244    -62968.97144  25303145.1984   25303145.3694
   -389654.59444   -303625.64644  25315567.3404   25315565.9084
 96  4  4  1 21 30.0000000  0  8G 6G16G20G 5G24G 4G25G17
  -5253885.77244  -4093931.76744  22524060.4634   22524061.3294
  -5531427.09844  -4310198.90044  21517474.3474   21517475.8244
  -4450842.76144  -3468187.68844  20678538.2714   20678538.5984
    348204.56544    271327.29244  20344379.0684   20344379.2494
   4548739.16044   3544472.93644  21707941.2844   21707941.7314
   7631428.45944   5946566.99044  24592696.4254   24592698.2074
   -120496.07244    -93885.84344  25295591.3304   25295589.0844
   -486740.06144                  25297090.7864
 96  4  4  1 22  0.0000000  0  7G 6G16G20G 5G24G 4G25
  -5317781.06744  -4143720.27444  22511902.0064   22511902.4184
  -5584841.54644  -4351820.50944  21507309.8284   21507311.6554
  -4487526.51444  -3496772.41944  20671557.3014   20671557.7544
    373925.54444    291369.59944  20349273.4364   20349273.8604
   4615599.64944   3596572.01144  21720664.1434   21720664.6114
   7727352.55044   6021313.00744  24610949.5894   24610951.6224
   -159773.54844   -124491.59844  25288118.8164   25288117.7024
 96  4  4  1 22 30.0000000  0  7G 6G16G20G 5G24G 4G25
  -5381629.03244  -4193471.91144  22499752.3194   22499751.8734
  -5637752.17044  -4393049.53244  21497241.2394   21497243.0584
  -4523702.12544  -3524961.20644  20664673.3124   20664673.9164
    400200.02044    311843.20144  20354273.3684   20354273.6134
   4682626.12544   3648800.43244  21733418.8044   21733419.1604
   7823281.16944   6096062.61944  24629205.7824   24629205.1084
   -198604.04644   -154748.65444  25280727.7314   25280727.5114
 96  4  4  1 23  0.0000000  0  8G 6G16G20G 5G24G 4G25G17
  -5445397.96644  -4243161.95744  22487617.0014   22487617.6514
  -5690146.41644  -4433876.17244  21487270.8984   21487272.5394
  -4559320.86744  -3552716.05844  20657895.5764   20657896.1064
    427052.61144    332767.28344  20359383.3134   20359383.6614
   4749859.02244   3701189.70044  21746212.9564   21746213.8954
   7919224.64644   6170823.79244  24647461.5084   24647464.6314
   -236954.08444   -184631.20544  25273431.0364   25273434.1004
        -0.39254                  25241787.6204
 96  4  4  1 23 30.0000000  0  8G 6G16G20G 5G24G 4G25G17
  -5509131.07844  -4292824.09044  22475489.0774   22475489.4614
  -5742089.39444  -4474351.17844  21477386.4884   21477387.9694
  -4594418.02144  -3580064.48744  20651216.5404   20651217.0094
    454443.18644    354110.57344  20364595.7034   20364595.8354
   4817272.13244   3753719.38444  21759040.9074   21759041.7974
   8015120.78644   6245548.06844  24665710.5054   24665712.3974
   -274865.53044   -214172.54644  25266215.8274   25266221.8674
    -96625.99144                  25223401.9304
 96  4  4  1 24  0.0000000  0  8G 6G16G20G 5G24G 4G25G17
  -5572812.25244  -4342445.74544  22463371.2964   22463371.4664
  -5793568.93044  -4514465.06044  21467590.2784   21467591.9164
  -4628971.26044  -3606989.08144  20644641.2244   20644641.7414
    482375.90244    375876.31244  20369911.0754   20369911.4324
   4884884.93844   3806404.68344  21771907.6884   21771907.9944
   8110957.50844   6320226.04644  24683946.4994   24683948.0034
   -312314.36044   -243352.70744  25259091.3134   25259093.6014
   -193146.06744   -150501.66344  25205039.1524
 96  4  4  1 24 30.0000000  0  8G 6G16G20G 5G24G 4G25G17
  -5636438.43644  -4392024.56144  22451263.6674   22451263.2554
  -5844582.51244  -4554215.86144  21457882.3494   21457883.9554
  -4662983.93544  -3633492.45344  20638168.6014   20638169.2844
    510842.57044    398058.11544  20375328.0634   20375328.3574
   4952711.73944   3859256.72744  21784814.2094   21784815.1824
   8206715.36944   6394842.55144  24702169.2554   24702168.0214
   -349293.09444   -272167.19544  25252054.0334   25252053.2784
   -289579.44544   -225644.38244  25186692.2154   25186692.1074
 96  4  4  1 25  0.0000000  0  8G 6G16G20G 5G24G 4G25G17
  -5700009.52444  -4441560.44344  22439166.2284   22439166.2544
  -5895116.36944  -4593592.85044  21448266.2684   21448267.9374
  -4696469.73544  -3659585.28044  20631796.7174   20631797.0914
    539851.74044    420662.64944  20380848.3334   20380848.4254
   5020755.22944   3912277.62444  21797762.8934   21797763.5314
   8302388.58144   6469393.10744  24720374.9684   24720375.5214
   -385809.54044   -300621.50644  25245105.9764   25245103.5954
   -385914.59144   -300710.56544  25168359.9204   25168360.3244
 96  4  4  1 25 30.0000000  0  8G 6G16G24G20G 5G 4G25G17
  -5763508.60344  -4491040.20744  22427082.0654   22427082.6264
  -5945115.94144  -4632553.51644  21438751.3674   21438753.1094
   5089026.81844   3965476.26344  21810754.2754   21810755.2244
  -4729393.40344  -3685240.07644  20625531.6464   20625532.1174
    569429.75044    443710.43444  20386476.7634   20386476.9814
   8398013.69044   6543906.14044  24738572.2244   24738572.4704
   -421836.08344   -328694.12244  25238247.9414   25238247.8524
   -482108.72944   -375666.88944  25150054.9064   25150053.8914
 96  4  4  1 26  0.0000000  0  8G 6G16G24G20G 5G 4G25G17
  -5826959.19744  -4540482.20344  22415007.8044   22415007.7924
  -5994588.90544  -4671103.83544  21429337.0774   21429338.3404
   5157493.49744   4018826.91044  21823782.9554   21823784.0114
  -4761761.16544  -3710461.70444  20619372.4094   20619372.8264
    599537.38844    467170.91644  20392206.1004   20392206.4564
   8493587.06944   6618378.91944  24756758.3304   24756761.9254
   -457372.96544   -356385.21944  25231484.7904   25231486.7804
   -578173.39344   -450522.39744  25131773.2774   25131773.0864
 96  4  4  1 26 30.0000000  0  8G 6G16G24G20G 5G 4G25G17
  -5890358.30244  -4589884.07444  22402943.6034   22402943.8974
  -6043534.52644  -4709243.23544  21420023.3854   21420024.8914
   5226148.40844   4072324.23644  21836847.5794   21836848.7194
  -4793569.95244  -3735247.76544  20613319.1644   20613319.6094
    630169.41944    491040.01644  20398035.2514   20398035.6274
   8589130.69744   6692828.52544  24774939.4854   24774939.6734
   -492409.67044   -383686.67044  25224820.0294   25224818.3034
   -674097.15944   -525268.05844  25113519.6514   25113519.1144
 96  4  4  1 27  0.0000000  0  8G 6G16G24G20G 5G 4G25G17
  -5953685.53344  -4639229.94344  22390893.0504   22390893.3084
  -6091946.50844  -4746966.81744  21410810.4034   21410811.8924
   5294977.75644   4125957.49244  21849945.2734   21849945.9224
  -4824797.79644  -3759581.14544  20607376.5684   20607377.1114
    661325.97044    515317.83344  20403964.2444   20403964.5414
   8684656.54444   6767264.31844  24793118.8684   24793118.1834
   -526944.56344   -410596.89844  25218246.7114   25218244.9304
   -769859.82244   -599888.13344  25095289.5424
 96  4  4  1 27 30.0000000  0  7G 6G16G24G20G 5G 4G25
  -6016959.68244  -4688534.44144  22378852.2594   22378852.8044
  -6139873.42144  -4784312.42544  21401690.2954   21401691.8294
   5363948.34744   4179700.81844  21863070.1684   21863070.6154
  -4855469.64144  -3783481.27844  20601540.1254   20601540.5044
    692981.64744    539984.58144  20409988.0254   20409988.2704
   8780139.19444   6841666.41144  24811289.7854   24811289.0204
   -561003.08944   -437136.07344  25211769.1524   25211767.8964
 96  4  4  1 28  0.0000000  0  7G 6G16G24G20G 5G 4G25
  -6080175.22444  -4737793.27044  22366822.5124   22366822.9434
  -6187333.36344  -4821294.16344  21392658.9484   21392660.5204
   5433069.72344   4233561.63844  21876223.3264   21876223.7734
  -4885604.55844  -3806963.02844  20595805.7414   20595806.1314
    725156.80044    565056.11444  20416110.7894   20416111.0724
   8875578.47744   6916034.70644  24829450.0544   24829451.1704
   -594592.21544                  25205373.8934
 96  4  4  1 28 30.0000000  0  8G 6G16G24G20G 5G 4G25G17
  -6143314.90244  -4786993.00044  22354807.5824   22354808.1154
  -6234289.97044  -4857883.68344  21383723.2494   21383724.8624
   5502354.32944   4287549.64144  21889407.9814   21889408.5254
  -4915197.41544  -3830022.39044  20590174.3204   20590174.8004
    757890.53544    590562.90444  20422339.6664   20422339.9864
   8970991.16044   6990382.26144  24847606.1034   24847609.1024
   -627714.08244   -489119.56644  25199073.0004   25199076.0304
        -0.56854        -0.23554  25040765.5654
 96  4  4  1 29  0.0000000  0  8G 6G16G24G20G 5G 4G25G17
  -6206375.49044  -4836131.08944  22342807.6764   22342807.9114
  -6280733.77544  -4894073.62244  21374885.6944   21374887.4694
   5571802.66944   4341665.22944  21902623.8514   21902624.3934
  -4944250.20444  -3852660.92044  20584645.8334   20584646.3074
    791198.55144    616517.19144  20428678.0364   20428678.3424
   9066382.84344   7064713.46044  24865759.0814   24865759.8754
   -660364.69044   -514561.65144  25192858.3624   25192857.5294
    -95219.23344    -74196.47944  25022647.5584   25022649.5444
 96  4  4  1 29 30.0000000  0  8G 6G16G24G20G 5G 4G25G17
  -6269371.83744  -4885219.12944  22330819.5204   22330819.9984
  -6326657.74544  -4929858.49744  21366146.1414   21366147.8054
   5641426.72144   4395917.73144  21915872.6814   21915873.4034
  -4972776.66944  -3874889.33044  20579217.4254   20579217.8824
    825085.38444    642922.49744  20435126.3274   20435126.6834
   9161759.65444   7139033.07444  24883909.0954   24883910.1554
   -692529.03744   -539624.85344  25186737.0274   25186736.5914
   -190274.04744   -148265.09744  25004560.7084   25004562.7914
 96  4  4  1 30  0.0000000  0  8G 6G16G24G20G 5G 4G25G17
  -6332340.50744  -4934285.60044  22318837.0494   22318837.4414
  -6372062.36444  -4965238.68944  21357506.3854   21357507.5954
   5711200.97244   4450287.27944  21929149.8774   21929150.3424
  -5000798.74044  -3896724.70944  20573884.7834   20573885.2674
    859506.50644    669744.13844  20441676.5534   20441676.9734
   9257093.33744   7213319.11344  24902050.6624   24902047.7144
   -724221.27844   -564320.10544  25180705.7804   25180706.3324
   -285177.68144   -222215.88344  24986502.7394   24986503.2284
 96  4  4  1 30 30.0000000  0  8G 6G16G24G20G 5G 4G25G17
  -6395267.96344  -4983319.94444  22306862.4314   22306862.8094
  -6416940.81144  -5000208.87344  21348966.2204   21348967.5534
   5781129.36644   4504776.93844  21942456.9764   21942457.8674
  -5028308.17944  -3918160.63544  20568649.9464   20568650.3904
    894441.06444    696965.85844  20448324.5544   20448324.8114
   9352373.05844                  24920181.5214
   -755436.19144   -588643.46244  25174766.6514   25174767.0114
   -379947.30344   -296062.25544  24968467.7534   24968467.6104
 96  4  4  1 31  0.0000000  0  8G 6G16G24G20G 5G 4G25G17
  -6458157.09644  -5032324.43644  22294895.0874   22294895.2934
  -6461310.64144  -5034782.72544  21340523.0294   21340524.3014
   5851224.33244   4559396.39544  21955795.8064   21955796.3014
  -5055301.49244  -3939194.38344  20563513.5114   20563513.9794
    929879.11644    724579.91144  20455068.2324   20455068.4434
   9447577.87944                  24938297.5624
   -786171.23544   -612592.85644  25168916.9304
   -474597.80944   -369815.78044  24950455.4434   24950456.0564
 96  4  4  1 31 30.0000000  0  8G 6G16G24G20G 5G 4G25G17
  -6520939.33844  -5081245.63344  22282947.5694   22282947.9944
  -6505102.50844  -5068906.22544  21332189.7394   21332190.9664
   5921556.80944   4614200.92144  21969179.7124   21969180.1664
  -5081695.58644  -3959761.21044  20558490.5954   20558491.4404
    965886.75944    752637.80444  20461920.1934   20461920.5604
   9542751.15844                  24956405.6144
   -816370.54844   -636125.11844  25163171.4174   25163171.9254
   -569074.15244   -443433.57944  24932474.8534   24932476.7244
 96  4  4  1 32  0.0000000  0  8G 6G16G24G20G 5G 4G25G17
  -6583657.65844  -5130117.02644  22271012.9284   22271013.2754
  -6548368.12344  -5102619.65544  21323956.4574   21323957.9054
   5992067.66944   4669144.45144  21982597.6114   21982598.3294
  -5107524.78544  -3979887.86044  20553575.3514   20553576.1094
   1002412.15844    781099.13944  20468870.8224   20468871.1314
   9637826.95244                  24974498.9674
   -846100.80944                  25157511.9404
   -663448.58544   -516971.97244  24914512.5494
 96  4  4  1 32 30.0000000  0  7G 6G16G24G20G 5G25G17
  -6646338.28944  -5178959.05344  22259084.9644   22259085.3634
  -6591152.18644  -5135957.85144  21315814.6724   21315816.0604
   6062708.05744   4724188.90444  21996039.4624   21996040.0984
  -5132821.62844  -3999599.68144  20548761.9554   20548762.4064
   1039429.41044    809943.73844  20475914.7904   20475915.0864
   -875402.70044                  25151936.8164
   -757762.71044                  24896563.7884
 96  4  4  1 33  0.0000000  0  7G 6G16G24G20G 5G25G17
  -6709001.40744  -5227787.42044  22247161.1294   22247161.4984
  -6633462.31544  -5168926.74844  21307763.2904   21307764.5294
   6133442.60944   4779306.73544  22009500.1654   22009500.5184
  -5157592.04544  -4018901.30544  20544048.1734   20544048.5484
   1076927.24744    839162.81744  20483050.5664   20483050.8844
   -904289.97644                  25146437.1054
   -852019.32544   -663909.88744  24878629.2774
 96  4  4  1 33 30.0000000  0  7G 6G16G24G20G 5G 9G17
  -6771590.46544  -5276558.08144  22235250.4454   22235250.9734
  -6675245.26844  -5201484.86444  21299812.3434   21299813.7124
   6204304.71244   4834523.95444  22022984.6984   22022985.2674
  -5181783.61444  -4037751.87844  20539444.5984   20539445.2374
   1114948.34144    868789.62644  20490285.8054   20490286.1584
        -0.38854         0.52954  25287731.6724
   -946153.30644   -737260.93544  24860718.7934
 96  4  4  1 34  0.0000000  0  7G 6G16G24G20G 5G 9G17
  -6834088.85544  -5325258.09944  22223357.4134   22223357.5764
  -6716487.86044  -5233621.91444  21291963.9794   21291965.4194
   6275307.56744   4889850.84644  22036495.7674   22036496.6724
  -5205386.86244  -4056144.01844  20534952.8624   20534953.3054
   1153505.33544    898834.02144  20497622.6784   20497623.1814
     85035.00244     66261.72444  25303912.7924   25303916.1964
  -1040142.03444   -810498.82744  24842834.2384   24842834.5074
 96  4  4  1 34 30.0000000  0  7G 6G16G24G20G 5G 9G17
  -6896497.39944  -5373888.11544  22211481.1114   22211481.4494
  -6757180.52944  -5265330.45444  21284220.7764   21284222.4874
   6346449.83744   4945286.37444  22050033.6484   22050034.3194
  -5228407.34344  -4074082.04844  20530572.0674   20530572.6574
   1192609.11744    929304.48444  20505063.8824   20505064.3104
    169893.65244    132385.27844  25320061.2954
  -1133966.85544   -883609.00844  24824980.1844   24824980.5174
 96  4  4  1 35  0.0000000  0  7G 6G16G24G20G 5G 9G17
  -6958827.09744  -5422456.67844  22199620.2154   22199620.5464
  -6797324.62544  -5296611.53144  21276581.2954   21276582.4474
   6417731.12044   5000830.22644  22063598.3104   22063598.7064
  -5250850.63344  -4091570.31944  20526301.5114   20526301.8824
   1232264.32544    960204.63244  20512610.0064   20512610.3984
    254562.58544                  25336173.6844
  -1227618.86244   -956584.44744  24807158.7204   24807157.8524
 96  4  4  1 35 30.0000000  0  8G 6G16G24G20G 5G 9G25G17
  -7021061.94644  -5470951.33644  22187777.1894   22187776.9924
  -6836897.42744  -5327447.44744  21269050.8264   21269051.7774
   6489174.20644   5056500.17544  22077193.9294   22077194.2724
  -5272704.17644  -4108599.05144  20522143.0804   20522143.6294
   1272498.34144    991555.79644  20520266.5904   20520266.9214
    339068.76344    264209.82444  25352254.2234
        -0.78354                  25120332.8094
  -1321075.79344  -1029407.93644  24789375.3284
 96  4  4  1 36  0.0000000  0  8G 6G16G24G20G 5G 9G25G17
  -7083244.34744  -5519405.12144  22175944.4894   22175944.4224
  -6875928.33044  -5357861.10344  21261623.3294   21261624.5194
   6560747.79144   5112271.78744  22090813.3154   22090814.1624
  -5294012.09744  -4125202.62144  20518088.0574   20518088.5994
   1313277.30544   1023331.59544  20528026.5784   20528026.7544
    423384.63044                  25368299.6174
    -25946.40244                  25115396.5994
  -1414380.03344  -1102112.50044  24771619.3924   24771620.1144
 96  4  4  1 36 30.0000000  0  8G 6G16G24G20G 5G 9G25G17
  -7145374.60544  -5567818.28044  22164121.5984   22164121.3824
  -6914417.17544  -5387852.37444  21254299.3094   21254300.5604
   6632452.30944   5168145.42644  22104458.6424   22104459.4204
  -5314783.58644  -4141388.19144  20514135.5434   20514136.0974
   1354590.93944   1055524.02244  20535888.1984   20535888.5734
    507501.51644                  25384306.3244
    -51397.29144                  25110551.1824
  -1507530.63944  -1174697.26744  24753893.2274   24753900.8194
 96  4  4  1 37  0.0000000  0  8G 6G16G24G20G 5G 9G25G17
  -7207403.90744  -5616152.76444  22152318.0884   22152318.5904
  -6952338.63844  -5417401.53144  21247082.9534   21247084.1114
   6704326.51544   5224151.29844  22118135.9374   22118136.4254
  -5334976.33544  -4157122.79244  20510292.9054   20510293.3114
   1396462.20444   1088150.96544  20543856.1754   20543856.4214
    591463.52944                  25400283.4444
    -76313.33344                  25105813.7784
  -1600488.00344  -1247131.47344  24736203.1454   24736206.4894
 96  4  4  1 37 30.0000000  0  8G 6G16G24G20G 5G 9G25G17
  -7269341.37644  -5664415.70244  22140531.3814   22140531.8284
  -6989714.11244  -5446525.23744  21239970.4604   21239971.8084
   6776366.62344   5280286.44344  22131844.5354   22131845.1794
  -5354598.97444  -4172413.15344  20506558.8934   20506559.3534
   1438863.43344   1121190.86744  20551924.7064   20551924.9904
    675261.35744                  25416229.9164
   -100717.35544                  25101169.1974
  -1693284.84544  -1319440.60944  24718543.3454   24718552.5294
 96  4  4  1 38  0.0000000  0  8G 6G16G24G20G 5G 9G25G17
  -7331196.33044  -5712614.33544  22128760.7014   22128760.4904
  -7026561.74644  -5475237.63544  21232958.6354   21232959.9824
   6848571.09944   5336549.67244  22145584.6164   22145585.6194
  -5373651.36744  -4187259.16544  20502933.3154   20502933.8704
   1481770.97544   1154625.30144  20560089.8134   20560090.1454
    758871.14344                  25432140.8214
   -124632.15544                  25096619.6944
  -1785936.37244  -1391636.50144  24700909.6314   24700918.3194
 96  4  4  1 38 30.0000000  0  8G 6G16G24G20G 5G 9G25G17
  -7392974.53444  -5760753.16544  22117004.6524   22117005.2454
  -7062891.28044  -5503546.32744  21226045.4514   21226046.5884
   6920920.60744   5392925.89744  22159352.0824   22159352.8994
  -5392131.68144  -4201659.40044  20499416.6194   20499417.1954
   1525185.58444   1188454.85344  20568351.4584   20568351.7764
    842281.39544                  25448013.1364
   -148078.83544                  25092157.3414
  -1878444.86844  -1463720.93544  24683307.1834   24683311.6964
 96  4  4  1 39  0.0000000  0  8G 6G16G24G20G 5G 9G25G17
  -7454681.26544  -5808836.30644  22105261.9084   22105262.3504
  -7098688.32944  -5531440.09644  21219233.4224   21219234.5954
   6993409.65344   5449410.86644  22173146.1114   22173146.6864
  -5410024.93844  -4215602.19144  20496011.7114   20496012.1164
   1569110.53744   1222682.07644  20576710.0094   20576710.3984
    925490.22844                  25463847.5704
   -171086.93744                  25087780.5384
  -1970809.78144  -1535693.52244  24665730.9394   24665732.8474
 96  4  4  1 39 30.0000000  0  8G 6G16G24G20G 5G 9G25G17
  -7516356.62444  -5856895.00044  22093525.7614   22093525.7384
  -7133962.62944  -5558926.52644  21212520.9084   21212522.1214
   7066018.24444   5505988.98544  22186963.4154   22186963.7234
  -5427351.67044  -4229103.53444  20492714.5634   20492714.9734
   1613520.04344   1257286.87444  20585160.8724   20585161.3034
   1008456.65844                  25479635.4194
   -193679.16344                  25083483.0454
  -2063061.70144  -1607578.01244  24648175.8284   24648180.8304
 96  4  4  1 40  0.0000000  0  8G 6G16G24G20G 5G 9G25G17
  -7577990.34544  -5904921.25544  22081797.3654   22081797.5334
  -7168695.25544  -5585990.87344  21205911.5104   21205912.6514
   7138735.68144   5562651.91444  22200800.7334   22200801.9714
  -5444115.27644  -4242166.07844  20489524.4074   20489525.0094
   1658427.52344   1292279.70244  20593706.6034   20593707.0644
   1091188.42244                  25495379.6554
   -215829.92944                  25079269.9104
  -2155165.20944  -1679346.95544  24630649.2564   24630653.0704
 96  4  4  1 40 30.0000000  0  7G 6G16G24G20G 5G25G17
  -7639563.52444  -5952900.33144  22070080.1664   22070080.7814
  -7202864.98244  -5612616.60044  21199408.7844   21199410.1104
   7211569.73444   5619405.71544  22214660.5104   22214660.9144
  -5460302.22544  -4254779.28244  20486444.0484   20486444.5904
   1703852.44244   1327675.72844  20602350.7224   20602351.0564
   -237507.32144                  25075149.5094
  -2247095.41844  -1750980.78644  24613155.9644
 96  4  4  1 41  0.0000000  0  6G 6G16G24G20G 5G17
  -7701070.88144  -6000828.12444  22058375.6854   22058376.1554
  -7236481.89944  -5638811.56844  21193011.9064   21193013.1234
   7284521.18344   5676250.99544  22228542.7544   22228544.2274
  -5475907.93344  -4266939.57344  20483474.4104   20483474.9234
   1749782.36144   1363465.26344  20611090.9324   20611091.1654
  -2338866.24844  -1822490.41844  24595692.8944   24595694.9774
 96  4  4  1 41 30.0000000  0  7G 6G16G24G20G 5G 4G17
  -7762495.69444  -6048691.58644  22046687.2354   22046687.5214
  -7269554.55844  -5664582.44044  21186718.4914   21186719.6564
   7357581.64144   5733181.21944  22242445.7304   22242446.6594
  -5490930.05444  -4278645.11744  20480616.0514   20480616.5184
   1796232.89744   1399660.47144  20619930.0314   20619930.3694
        -0.36854                  25315885.0054
  -2430477.43944  -1893875.65244  24578260.6184   24578261.3214
 96  4  4  1 42  0.0000000  0  7G 6G16G24G20G 5G 4G17
  -7823843.75044  -6096495.23944  22035013.0014   22035012.7394
  -7302110.45044  -5689950.63944  21180523.3234   21180524.7124
   7430724.26844   5790175.46944  22256364.4024   22256365.9784
  -5505397.88444  -4289918.74844  20477862.7534   20477863.2174
   1843194.36944   1436253.81244  20628866.4124   20628866.7634
     93664.03244                  25333708.8894
  -2521952.80244  -1965155.10744  24560854.7384   24560856.1544
 96  4  4  1 42 30.0000000  0  6G 6G16G24G17G20G 5
  -7885092.54344  -6144221.55244  22023357.6004   22023357.9434
  -7334111.67644  -5714886.63044  21174433.5994   21174434.9094
   7503988.70144   5847264.63344  22270306.2574   22270306.7934
  -2613290.48344  -2036327.27444  24543474.3704   24543473.8084
  -5519270.09944  -4300728.26544  20475222.9224   20475223.5004
   1890699.60644   1473270.86644  20637906.5934   20637906.8124
 96  4  4  1 43  0.0000000  0  6G 6G16G24G17G20G 5
  -7946242.31444  -6191870.69944  22011720.8664   22011721.4644
  -7365536.46244  -5739373.44944  21168453.5494   21168454.5114
   7577382.04944   5904454.26344  22284272.4294   22284272.9014
  -2704482.05044  -2107385.57044  24526119.8844   24526121.5584
  -5532547.16344  -4311074.02844  20472696.3854   20472696.9174
   1938755.74644   1510717.19544  20647051.2484   20647051.6174
 96  4  4  1 43 30.0000000  0  6G 6G16G24G17G20G 5
  -8007301.32344  -6239449.12044  22000102.0694   22000102.3884
  -7396363.43144  -5763394.43544  21162587.3914   21162588.4814
   7650901.02744   5961741.77544  22298262.3664   22298263.4264
  -2795508.00844  -2178314.77444  24508796.8704   24508799.7234
  -5545246.38044  -4320969.52244  20470279.8154   20470280.2184
   1987366.42544   1548595.63244  20656301.4924   20656301.9334
 96  4  4  1 44  0.0000000  0  6G 6G16G24G20G 5G17
  -8068253.64544  -6286944.41044  21988503.2174   21988503.4504
  -7426560.68844  -5786924.72744  21156841.1164   21156842.2954
   7724577.78944   6019152.22944  22312282.8034   22312283.4664
  -5557356.63144  -4330406.07644  20467975.2014   20467975.7484
   2036533.58944   1586907.69444  20665657.7814   20665658.2564
  -2886334.09944  -2249088.23044  24491512.4394   24491516.9454
 96  4  4  1 44 30.0000000  0  7G 6G16G24G25G20G 5G17
  -8129127.74244  -6334378.75144  21976919.7984   21976919.6414
  -7456139.47044  -5809973.09544  21151212.3854   21151213.3044
   7798387.59144   6076666.36144  22326328.7894   22326329.0024
        -0.98654                  25045575.6404
  -5568883.96344  -4339388.41144  20465781.7114   20465782.2964
   2086220.08244   1625624.42844  20675112.6824   20675113.2634
  -2976979.19044  -2319720.68944  24474263.1444   24474263.6534
 96  4  4  1 45  0.0000000  0  7G 6G16G24G20G 5G25G17
  -8189922.05944  -6381750.91744  21965350.2914   21965350.4514
  -7485126.84144  -5832560.62044  21145696.2604   21145697.6364
   7872307.43444   6134266.23444  22340395.3114   22340395.9544
  -5579838.92744  -4347924.74844  20463697.1494   20463697.8284
   2136397.40444   1664723.62844  20684661.3644   20684661.8424
    -17177.78244    -13385.32944  25042308.3664   25042304.6794
  -3067442.16744  -2390211.23544  24457047.9574   24457051.1394
 96  4  4  1 45 30.0000000  0  7G 6G16G24G20G 5G25G17
  -8250648.79144  -6429070.42144  21953794.4884   21953794.7494
  -7513567.83744  -5854722.39844  21140284.0724   21140285.3684
   7946309.62144   6191930.27344  22354477.0864   22354477.3844
  -5590247.04444  -4356034.96544  20461716.4554   20461716.9814
   2187035.10044   1704181.55844  20694297.4444   20694297.8964
    -33906.12044    -26420.43144  25039125.8054   25039125.2724
  -3157764.05644  -2460591.80844  24439860.2554   24439867.0084
 96  4  4  1 46  0.0000000  0  7G 6G16G24G25G20G 5G17
  -8311312.80844  -6476341.05544  21942250.2414   21942250.5794
  -7541490.21544  -5876480.06044  21134970.6604   21134971.7574
   8020396.70044   6249660.46044  22368575.6234   22368576.1914
    -50179.42644    -39100.93144  25036027.2784   25036022.2684
  -5600106.04344  -4363717.29744  20459840.6304   20459841.1884
   2238122.35244   1743989.79644  20704019.1894   20704019.5244
  -3247972.96844  -2530884.34844  24422694.2964   24422696.6444
 96  4  4  1 46 30.0000000  0  7G 6G16G24G25G20G 5G17
  -8371873.90844  -6523531.49844  21930725.9104   21930726.1414
  -7568861.61944  -5897808.39144  21129762.0434   21129763.1004
   8094595.79544   6307477.92744  22382694.9724   22382695.2094
    -65945.32444    -51386.00944  25033027.1264   25033026.9174
  -5609365.60844  -4370932.54044  20458078.2004   20458078.5514
   2289706.67244   1784185.35744  20713835.2024   20713835.5954
  -3338030.71544  -2601059.15944  24405557.9504   24405563.8864
 96  4  4  1 47  0.0000000  0  7G 6G16G24G20G 5G25G17
  -8432335.64744  -6570644.51244  21919220.2924   21919220.5114
  -7595693.95944  -5918716.67044  21124656.0814   21124657.0544
   8168890.96144   6365370.27044  22396833.0104   22396833.5774
  -5618052.35744  -4377701.43244  20456425.1964   20456425.9244
   2341788.03544   1824768.22444  20723745.6744   20723746.0694
    -81228.64044    -63295.06444  25030115.8764   25030115.1264
  -3427932.29244  -2671112.22844  24388450.0254   24388454.1654
 96  4  4  1 47 30.0000000  0  7G 6G16G24G25G20G 5G17
  -8492687.67544  -6617672.02744  21907735.8934   21907735.9504
  -7621964.76144  -5939187.38844  21119656.8164   21119657.5504
   8243303.13244   6423353.77944  22410993.1904   22410993.7624
    -96003.20444    -74807.55544  25027303.4784   25027304.5674
  -5626148.06744  -4384009.77344  20454884.6824   20454885.2054
   2394392.23944   1865758.49844  20733756.2134   20733756.5734
  -3517653.41844  -2741024.68244  24371375.5874   24371378.3274
 96  4  4  1 48  0.0000000  0  7G 6G16G24G25G20G 5G17
  -8552950.32344  -6664629.89844  21896268.0934   21896267.9804
  -7647668.58044  -5959216.29944  21114765.7084   21114766.5574
   8317810.19144   6481411.22744  22425171.6784   22425172.5484
   -110301.64544    -85948.38944  25024582.1624   25024581.0814
  -5633651.21144  -4389856.37544  20453457.1384   20453457.5934
   2447493.59844   1907136.16844  20743860.9234   20743861.3404
  -3607191.31244  -2810794.36344  24354337.3014   24354340.5484
 96  4  4  1 48 30.0000000  0  7G 6G16G24G25G20G 5G17
  -8613123.21244  -6711517.82644  21884817.6654   21884817.6814
  -7672779.56244  -5978783.26244  21109986.9274   21109987.9614
   8392393.33144   6539527.95544  22439364.2094   22439364.6384
   -124141.55344    -96732.67644  25021950.9044   25021952.8964
  -5640555.33144  -4395236.20844  20452143.2024   20452143.7114
   2501078.25344   1948890.43344  20754057.7774   20754058.2164
  -3696532.53044  -2880410.86244  24337336.6204   24337342.1574
 96  4  4  1 49  0.0000000  0  7G 6G16G24G25G20G 5G17
  -8673203.29144  -6758333.44744  21873385.1444   21873385.0524
  -7697293.53044  -5997885.02044  21105322.0134   21105323.0424
   8467066.38744   6597714.75844  22453574.2354   22453574.3644
   -137513.02244   -107152.00444  25019408.3764   25019404.0174
  -5646855.31044  -4400145.28444  20450944.2364   20450944.9614
   2555148.19744   1991022.84544  20764346.9034   20764347.2664
  -3785681.98344  -2949877.85444  24320372.4834   24320374.5164
 96  4  4  1 49 30.0000000  0  7G 6G16G24G25G20G 5G17
  -8733203.62944  -6805086.92744  21861967.5674   21861967.5094
  -7721214.37044  -6016524.59944  21100769.8544   21100770.9244
   8541829.31844   6655971.57844  22467801.0784   22467801.3744
   -150408.78444   -117200.63344  25016955.6904   25016952.6164
  -5652543.44344  -4404577.59244  20449861.9824   20449862.3194
   2609696.73644   2033528.19344  20774727.1904   20774727.7644
  -3874658.71944  -3019210.25344  24303441.0054   24303443.4394
 96  4  4  1 50  0.0000000  0  7G 6G16G24G25G20G 5G17
  -8793132.29944  -6851784.55944  21850563.7134   21850564.0534
  -7744544.66444  -6034704.01544  21096330.5604   21096331.4814
   8616678.81744   6714295.85544  22482044.2614   22482044.9864
   -162829.63544   -126879.24244  25014594.6904   25014591.4034
  -5657625.33444  -4408537.50144  20448894.8284   20448895.3754
   2664731.26644   2076412.22944  20785199.8794   20785200.2804
  -3963471.82344  -3088415.16444  24286540.7654   24286540.2644
 96  4  4  1 50 30.0000000  0  7G 6G16G24G25G20G 5G17
  -8852984.73144  -6898422.78944  21839173.6394   21839173.7884
  -7767302.57444  -6052437.41144  21092000.0044   21092000.7994
   8691621.58844   6772692.81444  22496305.1674   22496305.6284
   -174751.06044   -136168.64444  25012324.6934   25012321.4334
  -5662108.77344  -4412031.08844  20448041.6624   20448042.0514
   2720287.27944   2119702.62344  20795771.9114   20795772.3334
  -4052118.96444  -3157490.82044  24269671.3534   24269672.7074
 96  4  4  1 51  0.0000000  0  7G 6G16G24G25G20G 5G17
  -8912763.83144  -6945003.88544  21827798.0854   21827797.9274
  -7789522.55944  -6069751.64944  21087771.2404   21087772.2664
   8766656.49944   6831161.56644  22510584.2574   22510584.6034
   -186184.13344   -145077.55144  25010148.2614   25010144.4484
  -5666019.21144  -4415078.18244  20447297.4454   20447298.0794
   2776371.55444   2163404.64944  20806444.4584   20806444.7394
  -4140606.09744  -3226441.72344  24252832.6624   24252835.4614
 96  4  4  1 51 30.0000000  0  7G 6G16G24G25G20G 5G17
  -8972452.95144  -6991514.87244  21816439.4454   21816439.5534
  -7811193.20144  -6086637.82944  21083647.7344   21083648.6724
   8841789.76644   6889706.96444  22524881.4674   22524881.7704
   -197136.66144   -153611.97944  25008061.2274   25008059.0874
  -5669355.36544  -4417677.78344  20446662.7554   20446663.2304
   2832994.81944   2207526.66644  20817219.3634   20817219.4094
  -4228923.44844  -3295260.35544  24236026.2094   24236027.6394
 96  4  4  1 52  0.0000000  0  7G 6G16G24G20G 5G25G17
  -9032031.14744  -7037939.42044  21805101.8994   21805102.3054
  -7832310.43444  -6103092.78144  21079628.8544   21079630.0544
   8917018.65544   6948326.87744  22539197.2494   22539197.6844
  -5672118.68044  -4419831.01144  20446136.7054   20446137.2274
   2890147.74844   2252061.40544  20828095.3454   20828095.9134
   -207611.43144   -161774.17044  25006068.2194   25006067.7874
  -4317058.40544  -3363936.86044  24219254.2014   24219256.6304
 96  4  4  1 52 30.0000000  0  7G 6G16G24G25G20G 5G17
  -9091488.01444  -7084269.42544  21793787.8244   21793787.8064
  -7852858.54844  -6119104.27044  21075718.8604   21075719.4944
   8992335.37344   7007015.22644  22553529.2364   22553529.8364
   -217611.73044   -169566.59744  25004164.6304
  -5674311.38844  -4421539.61444  20445719.6174   20445719.9914
   2947801.86044   2296986.67644  20839066.3954   20839067.0994
  -4405008.18044  -3432469.04244  24202515.7574   24202520.2514
 96  4  4  1 53  0.0000000  0  7G 6G16G24G25G20G 5G17
  -9150802.53844  -7130488.51744  21782500.6154   21782500.4204
  -7872795.31644  -6134639.38544  21071924.8664   21071925.8314
   9067762.59344   7065789.68344  22567882.5784   22567883.5524
   -227123.67344   -176978.49944  25002354.2484   25002353.3804
  -5675908.37744  -4422784.02144  20445415.6784   20445416.2184
   3005949.85844   2342296.78944  20850131.3864   20850131.9924
  -4492769.31144  -3500854.25344  24185816.7164   24185821.6014
 96  4  4  1 53 30.0000000  0  7G 6G16G24G25G20G 5G17
  -9209995.47644  -7176612.86444  21771237.1864   21771236.8994
  -7892109.33644  -6149689.24044  21068249.6734   21068250.4814
   9143288.26044   7124640.83744  22582254.4404   22582255.6864
   -236148.91344   -184011.13444  25000637.9324
  -5676902.73444  -4423558.84744  20445226.4484   20445226.8934
   3064564.14144   2387970.24544  20861285.7434   20861286.2284
  -4580356.17444  -3569103.64544  24169149.7194   24169153.8724
 96  4  4  1 54  0.0000000  0  7G 6G16G24G25G17G20G 5
  -9269095.26644  -7222664.63144  21759990.2454   21759990.3914
  -7910817.04744  -6164266.64944  21064689.6794   21064690.6354
   9218885.78144   7183547.99544  22596640.5034   22596640.8774
   -244700.66744   -190674.81844  24999006.1014
  -4667782.06844  -3637227.64844  24152513.2754   24152516.7984
  -5677311.22344  -4423877.14744  20445148.6484   20445149.1324
   3123612.34544   2433981.82144  20872522.4034   20872522.7674
 96  4  4  1 54 30.0000000  0  7G 6G16G24G25G20G 5G17
  -9328068.88044  -7268618.07244  21748767.8034   21748768.1864
  -7928874.48744  -6178337.35144  21061253.4914   21061254.4024
   9294603.48344   7242548.79744  22611049.0174   22611049.6424
   -252738.39444   -196938.00744  24997477.5074
  -5677084.06844  -4423700.14444  20445191.6474   20445192.3244
   3183139.91744   2480366.93144  20883850.0854   20883850.3994
  -4755004.60344  -3705193.12944  24135914.5514   24135920.2984
 96  4  4  1 55  0.0000000  0  7G 6G16G24G25G20G 5G17
  -9386964.77244  -7314510.95244  21737560.3004   21737560.3774
  -7946346.62144  -6191951.97444  21057928.7144   21057929.6484
   9370399.61444   7301610.72144  22625472.6874   22625472.8854
   -260307.78544   -202836.22444  24996036.2144
  -5676260.08944  -4423058.08244  20445348.8024   20445349.3864
   3243113.47544   2527099.56244  20895262.7084   20895263.0324
  -4842062.52844  -3773030.40944  24119348.5724   24119351.9744
 96  4  4  1 55 30.0000000  0  7G 6G16G24G25G20G 5G17
  -9445798.00144  -7360355.01244  21726364.5714   21726364.3694
  -7963266.22344  -6205136.04944  21054708.8534   21054709.8564
   9446252.57744   7360716.91644  22639907.2274   22639908.0264
   -267420.85444                  24994682.3454
  -5674850.08344  -4421959.37744  20445616.9904   20445617.5394
   3303519.88744   2574169.47644  20906757.5664   20906758.0194
  -4928936.97444  -3840724.69444  24102817.3494   24102820.5284
 96  4  4  1 56  0.0000000  0  7G 6G16G24G25G20G 5G17
  -9504549.66744  -7406135.51444  21715184.5154   21715184.4484
  -7979631.59244  -6217888.25744  21051594.5034   21051595.3454
   9522164.61644   7419869.14544  22654352.3584   22654353.5234
   -274078.50944                  24993417.5614
  -5672851.28344  -4420401.87144  20445997.4884   20445997.8004
   3364382.56944   2621594.92944  20918339.1244   20918339.5724
  -5015619.00944  -3908269.02244  24086322.6074   24086325.8954
 96  4  4  1 56 30.0000000  0  7G 6G16G24G25G20G 5G17
  -9563209.95544  -7451844.81144  21704022.0194   21704021.6004
  -7995436.75244  -6230203.93644  21048586.9444   21048587.7654
   9598136.09444   7479067.69544  22668809.5624   22668809.9684
   -280273.89944                  24992237.7104
  -5670254.52344  -4418378.42144  20446491.4474   20446491.9744
   3425722.75944   2669392.46344  20930011.6334   20930012.1314
  -5102105.90744  -3975661.32344  24069863.8924   24069866.6874
 96  4  4  1 57  0.0000000  0  7G 6G16G24G25G17G20G 5
  -9621790.38044  -7497491.87644  21692874.8364   21692874.7144
  -8010690.93344  -6242090.28644  21045684.0544   21045684.8604
   9674148.07244   7538297.81244  22683274.2724   22683275.0364
   -286012.23544                  24991150.5184
  -5188421.05744  -4042919.82044  24053437.4904   24053441.2764
  -5667077.93144  -4415903.15344  20447095.7814   20447096.3884
   3487532.03544   2717555.51944  20941774.0194   20941774.4534
 96  4  4  1 57 30.0000000  0  7G 6G16G24G25G17G20G 5
  -9680261.07344  -7543053.44244  21681747.9924   21681748.0164
  -8025357.85544  -6253519.02844  21042893.3704   21042893.9664
   9750218.31744   7597573.32844  22697749.7274   22697750.0324
   -291274.88544                  24990145.7764
  -5274558.40444  -4110039.69144  24037047.4734   24037051.2924
  -5663305.12444  -4412963.29944  20447813.9274   20447814.4694
   3549824.29644   2766094.92644  20953627.6544   20953628.2084
 96  4  4  1 58  0.0000000  0  7G 6G16G24G25G17G20G 5
  -9738612.18744  -7588521.81844  21670644.1014   21670644.6414
  -8039429.73744  -6264484.10344  21040215.1354   21040215.9314
   9826347.30644   7656894.62944  22712236.3624   22712237.3464
   -296070.07444   -230703.06944  24989234.4444
  -5360551.60644  -4177047.27744  24020684.6984   24020685.8674
  -5658939.93444  -4409561.85644  20448644.6564   20448645.0924
   3612595.57944   2815007.59444  20965572.5394   20965573.1384
 96  4  4  1 58 30.0000000  0  7G 6G16G24G25G17G20G 5
  -9796853.82144  -7633904.88244  21659560.6814   21659561.2094
  -8052920.39144  -6274996.27644  21037648.0824   21037649.0234
   9902536.30044   7716262.67044  22726735.1334   22726735.5944
   -300393.35344   -234071.86644  24988412.6844
  -5446409.35344  -4243949.32344  24004345.1284   24004348.4234
  -5653989.35344  -4405704.26244  20449586.7564   20449587.3354
   3675820.68244   2864273.89044  20977603.9964   20977604.5474
 96  4  4  1 59  0.0000000  0  7G 6G16G20G 5G24G25G17
  -9854972.42044  -7679192.07344  21648501.2574   21648501.1944
  -8065821.46744  -6285049.03944  21035193.2284   21035193.9654
  -5648436.28644  -4401377.19944  20450643.4254   20450643.9534
   3739498.96544   2913893.31744  20989721.4864   20989721.7874
   9978810.12844   7775696.82544  22741249.4004   22741249.6974
   -304228.28944   -237060.14544  24987682.0934
  -5532109.01644  -4310728.18344  23988037.1354   23988037.5504
 96  4  4  1 59 30.0000000  0  7G 6G16G20G 5G24G25G17
  -9912928.24544  -7724352.42844  21637472.9214   21637472.6214
  -8078096.87544  -6294614.26844  21032857.2064   21032858.0054
  -5642245.72444  -4396553.38244  20451821.3264   20451821.8584
   3803677.26044   2963902.36444  21001934.2994   21001934.7404
  10055216.90044   7835234.56844  22755789.6914   22755789.7914
   -307537.72244   -239638.93844  24987052.5944   24987053.0574
  -5617596.41044  -4377341.67144  23971769.0654   23971769.6534
 96  4  4  2  0  0.0000000  0  7G 6G16G20G 5G24G25G17
  -9970753.10844  -7769410.73944  21626468.8974   21626469.0314
  -8089767.81144  -6303708.47244  21030636.2274   21030636.8794
  -5635438.07944  -4391248.72144  20453116.9264   20453117.3944
   3868341.71244   3014290.23644  21014239.6834   21014239.7714
  10131738.23844   7894861.58744  22770350.8614   22770350.9794
   -310330.72744                  24986518.4684
  -5702873.57944  -4443791.30344  23955541.5774   23955543.0724
 96  4  4  2  0 30.0000000  0  7G 6G16G20G 5G24G25G17
 -10028480.65144  -7814393.20844  21615483.5144   21615483.5464
  -8100846.68144  -6312341.33444  21028527.8574   21028528.5804
  -5628044.41944  -4385487.43344  20454523.8304   20454524.1864
   3933476.19244   3065044.36344  21026634.2864   21026634.5974
  10208346.17644   7954556.07844  22784928.5724   22784929.1684
   -312620.60044                  24986085.2514
  -5787939.84044  -4510076.61444  23939353.4954   23939355.5384
 96  4  4  2  1  0.0000000  0  7G 6G16G20G 5G24G25G17
 -10086105.15244  -7859295.39144  21604518.1404   21604518.0124
  -8111322.31044  -6320504.13344  21026534.6524   21026535.1624
  -5620064.50544  -4379269.32344  20456042.5804   20456043.0604
   3999083.02444   3116166.55944  21039118.8804   21039119.0794
  10285020.20244   8014302.06544  22799518.7504   22799518.8404
   -314426.64844                  24985742.1484
  -5872792.10044  -4576195.16744  23923205.4554   23923209.5634
 96  4  4  2  1 30.0000000  0  7G 6G16G20G 5G24G25G17
 -10143632.59844  -7904121.94444  21593571.0344   21593571.1974
  -8121208.79044  -6328207.85444  21024653.2424   21024653.9974
  -5611528.17244  -4372617.63644  20457666.6944   20457667.2794
   4065138.78044   3167638.56144  21051688.7374   21051689.4234
  10361724.89144   8074071.94544  22814115.2854   22814115.1764
   -315782.66244                  24985482.1084
  -5957453.99344  -4642165.34944  23907094.9054   23907097.5374
 96  4  4  2  2  0.0000000  0  7G 6G16G20G 5G24G25G17
 -10201058.92644  -7948869.70444  21582643.0834   21582643.1404
  -8130499.94544  -6335447.68944  21022885.1134   21022885.7604
  -5602428.01644  -4365526.60544  20459398.5634   20459399.1024
   4131635.55244   3219454.21444  21064342.7184   21064343.3524
  10438446.14644   8133854.74744  22828715.0054   22828715.3224
   -316705.05844   -246782.33344  24985307.1934
  -6041930.14944  -4707990.83344  23891020.0894   23891023.8694
 96  4  4  2  2 30.0000000  0  7G 6G16G20G 5G24G25G17
 -10258361.89144  -7993521.33644  21571738.9284   21571739.1604
  -8139186.46144  -6342216.37944  21021232.0514   21021232.6374
  -5592747.75244  -4357983.54444  20461240.7424   20461241.0954
   4198582.34644   3271620.53044  21077082.4424   21077083.0404
  10515189.29944   8193654.59544  22843318.9584   22843319.5974
   -317205.69644   -247172.47744  24985209.4334   24985210.0834
  -6126223.43244  -4773673.82744  23874979.1024   23874982.1864
 96  4  4  2  3  0.0000000  0  7G 6G16G20G 5G24G25G17
 -10315534.82744  -8038071.65544  21560859.1134   21560858.9824
  -8147287.07944  -6348528.52444  21019690.6754   21019691.2214
  -5582486.67344  -4349987.89844  20463193.3704   20463193.8724
   4265963.50744   3324125.31844  21089904.7874   21089905.2874
  10591958.34944   8253474.63144  22857927.5174   22857928.8324
   -317300.11544   -247246.03144  24985191.1774
  -6210357.01644  -4839232.37544  23858968.3014   23858971.7914
 96  4  4  2  3 30.0000000  0  7G 6G16G20G 5G24G25G17
 -10372570.67744  -8082515.14944  21550005.4904   21550005.4774
  -8154785.63644  -6354371.53344  21018263.5204   21018264.1164
  -5571634.14744  -4341531.38144  20465258.2914   20465258.7914
   4333796.16344   3376981.91744  21102812.8264   21102813.3314
  10668787.87044   8313341.78344  22872547.4774   22872549.4794
   -316950.00244   -246973.26844  24985259.3604
  -6294319.02144  -4904657.20544  23842991.9794   23842995.1734
 96  4  4  2  4  0.0000000  0  7G 6G16G20G 5G24G25G17
 -10429476.93744  -8126857.66244  21539176.8704   21539176.4564
  -8161676.57444  -6359741.07044  21016952.4624   21016953.1384
  -5560171.73744  -4332599.62844  20467439.7464   20467440.1284
   4402085.69444   3430194.52544  21115807.6654   21115807.9714
  10745690.92344   8373266.23544  22887181.8554   22887183.2194
   -316137.11244   -246339.87844  24985413.8354   24985414.0754
  -6378105.51544  -4969945.27644  23827048.3194   23827051.4794
 96  4  4  2  4 30.0000000  0  7G 6G16G20G 5G24G25G17
 -10486249.61344  -8171096.08644  21528373.1554   21528372.8234
  -8167969.48444  -6364644.61644  21015755.0234   21015755.5594
  -5548093.06744  -4323187.67644  20469738.2114   20469738.6564
   4470815.87244   3483750.49544  21128886.8004   21128887.0954
  10822674.29044   8433253.27244  22901831.1124   22901832.4064
   -314839.55944   -245328.82144  24985659.7094   24985659.1654
  -6461716.25444  -5035096.41044  23811138.4054   23811141.3574
 96  4  4  2  5  0.0000000  0  7G 6G16G20G 5G24G25G17
 -10542878.70844  -8215222.63344  21517596.9274   21517596.6664
  -8173647.07044  -6369068.68844  21014674.2254   21014675.1014
  -5535380.49744  -4313281.77544  20472157.2774   20472157.7854
   4540004.15044   3537663.42544  21142052.8444   21142053.4424
  10899753.83544   8493315.25544  22916499.9254   22916499.9954
   -313020.10744   -243911.03044  24986005.6704
  -6545113.32044  -5100081.09544  23795268.1424   23795269.9584
 96  4  4  2  5 30.0000000  0  7G 6G16G20G 5G24G25G17
 -10599418.26244  -8259279.40744  21506837.8094   21506837.5304
  -8178736.18144  -6373034.20444  21013705.7464   21013706.5914
  -5522063.70944  -4302905.05744  20474691.5274   20474691.9334
   4609626.10544   3591914.29144  21155301.4454   21155301.9204
  10976881.41044   8553414.67644  22931176.7554   22931176.6624
   -310714.92644   -242114.77244  24986443.7214   24986446.8324
  -6628317.70644  -5164915.58444  23779435.3314   23779436.2224
 96  4  4  2  6  0.0000000  0  7G 6G16G20G 5G24G25G17
 -10655861.82544  -8303261.38244  21496096.7344   21496096.5054
  -8183243.20744  -6376546.14944  21012848.5654   21012849.2164
  -5508148.64544  -4292062.14644  20477339.3354   20477339.7564
   4679676.17544   3646498.74944  21168631.4594   21168632.0264
  11054042.89044   8613540.50344  22945859.2464   22945859.8834
   -307937.18444   -239950.35344  24986973.3964
  -6711331.42044  -5229601.51644  23763637.1844   23763638.4844
 96  4  4  2  6 30.0000000  0  7G 6G16G20G 5G24G25G17
 -10712184.47444  -8347149.13944  21485379.2204   21485379.0674
  -8187140.12144  -6379582.68044  21012106.8044   21012107.6554
  -5493625.92644  -4280745.74144  20480102.8834   20480103.4124
   4750184.46244   3701440.25344  21182049.0014   21182049.4164
  11131263.70944   8673712.55944  22960553.9164   22960555.0804
   -304666.10144   -237401.48144  24987595.8874   24987598.1394
  -6794126.74344  -5294117.28144  23747882.5984   23747884.1234
 96  4  4  2  7  0.0000000  0  7G 6G16G20G 5G24G25G17
 -10768412.55844  -8390963.20944  21474679.6164   21474679.3224
  -8190447.95144  -6382160.18644  21011477.3654   21011478.0014
  -5478533.87044  -4268985.69744  20482974.9064   20482975.3464
   4821136.51244   3756727.55544  21195550.7364   21195551.1884
  11208514.63444   8733908.07844  22975254.4134   22975255.7364
   -300940.71144   -234498.58244  24988303.7994   24988306.2584
  -6876726.91544  -5358480.94744  23732163.4104   23732165.1444
 96  4  4  2  7 30.0000000  0  7G 6G16G20G 5G24G25G17
 -10824505.27744  -8434671.80244  21464005.0784   21464004.8034
  -8193136.90644  -6384255.45244  21010965.3974   21010965.9864
  -5462853.56044  -4256767.27244  20485958.5324   20485959.2184
   4892549.38844   3812373.93844  21209139.8794   21209140.2634
  11285827.34844   8794151.75344  22989966.8914   22989967.2474
   -296743.26844   -231228.03644  24989103.5274   24989106.4174
  -6959114.24944  -5422678.78544  23716484.8994   23716487.0234
 96  4  4  2  8  0.0000000  0  7G 6G16G20G 5G24G25G17
 -10880478.45144  -8478287.24744  21453353.6044   21453353.6834
  -8195248.16444  -6385900.56044  21010563.7364   21010564.5244
  -5446621.22944  -4244118.70444  20489047.5754   20489048.0584
   4964369.57944   3868337.71144  21222806.9494   21222807.3054
  11363173.61544   8854421.58244  23004684.9744   23004685.3224
   -292112.15044   -227620.29744  24989985.5424   24989988.5814
  -7041320.17344  -5486735.27544  23700842.4314   23700844.4924
 96  4  4  2  8 30.0000000  0  7G 6G16G20G 5G24G25G17
 -10936331.71044  -8521809.25044  21442724.9694   21442724.7204
  -8196786.95744  -6387099.59444  21010270.8384   21010271.3684
  -5429825.11644  -4231030.82544  20492243.7754   20492244.2834
   5036601.45344   3924622.27544  21236552.4904   21236552.8284
  11440546.20944   8914711.89944  23019407.9344   23019409.3014
   -287051.85144   -223677.20744  24990948.5004
  -7123341.47844  -5550647.89644  23685234.3204   23685236.7364
 96  4  4  2  9  0.0000000  0  7G 6G16G20G 5G24G25G17
 -10992068.56444  -8565240.55544  21432119.1464   21432118.8234
  -8197766.76444  -6387863.05844  21010084.4074   21010084.9354
  -5412462.80744  -4217501.75844  20495547.6884   20495548.3874
   5109225.90844   3981212.74644  21250371.7974   21250372.6524
  11517919.07844   8975002.43244  23034131.2904   23034132.2084
   -281570.11844   -219405.66744  24991991.5344   24991991.5524
  -7205191.85244  -5614427.30944  23669658.4254   23669660.9794
 96  4  4  2  9 30.0000000  0  7G 6G16G20G 5G24G25G17
 -11047671.88444  -8608567.80644  21421537.9484   21421537.6164
  -8198160.69344  -6388169.99644  21010009.0044   21010009.9634
  -5394507.50844  -4203510.61844  20498964.7234   20498965.1004
   5182259.20144   4038121.79344  21264270.0374   21264270.6514
  11595310.76344   9035307.64844  23048858.9724   23048859.3664
   -275640.95744   -214785.59644  24993120.6914   24993119.3134
  -7286851.75444  -5678058.32844  23654118.7674   23654121.0294
 96  4  4  2 10  0.0000000  0  7G 6G16G20G 5G24G25G17
 -11103120.40544  -8651774.43644  21410986.4234   21410986.0014
  -8197957.83144  -6388011.90344  21010047.9834   21010048.9794
  -5375933.76644  -4189037.57944  20502499.0924   20502499.6214
   5255726.32744   4095368.88744  21278250.4884   21278251.0274
  11672728.15644   9095632.89844  23063591.1914   23063590.7574
   -269243.66344   -209800.72544  24994339.2244   24994340.7744
  -7368308.94444  -5741531.37344  23638617.3074   23638622.3144
 96  4  4  2 10 30.0000000  0  7G 6G16G20G 5G24G25G17
 -11158403.80344  -8694852.39144  21400466.4024   21400465.8634
  -8197147.30844  -6387380.31244  21010202.2784   21010202.8924
  -5356741.62244  -4174082.66544  20506151.2384   20506151.6264
   5329636.96044   4152961.57844  21292314.8914   21292315.4874
  11750166.23244   9155974.24644  23078327.7734   23078328.3904
   -262375.62444   -204449.05844  24995647.1764   24995648.5554
  -7449573.76144  -5804854.52944  23623153.7334   23623157.3504
 96  4  4  2 11  0.0000000  0  7G 6G16G20G 5G24G25G17
 -11213533.15744  -8737810.31744  21389975.6284   21389975.1804
  -8195735.10344  -6386279.86844  21010470.8774   21010471.5074
  -5336949.95244  -4158660.58744  20509917.4664   20509917.8864
   5403958.01744   4210874.07344  21306458.1654   21306458.5704
  11827627.71944   9216333.83544  23093068.0054   23093067.9144
   -255049.69844   -198740.58744  24997039.4044
  -7530656.78544  -5868036.00644  23607723.2084   23607726.9614
 96  4  4  2 11 30.0000000  0  7G 6G16G20G 5G24G25G17
 -11268501.06344  -8780642.43844  21379515.4154   21379515.0114
  -8193721.41244  -6384710.73544  21010854.1974   21010854.6944
  -5316564.23744  -4142775.61644  20513796.6384   20513797.0404
   5478697.56744   4269112.66744  21320680.4464   21320681.0914
  11905125.37544   9276721.62844  23107815.4184   23107816.8814
   -247286.75444   -192691.50944  24998515.2424
  -7611556.70644  -5931074.79644  23592328.5974   23592331.7594
 96  4  4  2 12  0.0000000  0  7G 6G16G20G 5G24G25G17
 -11323254.87244  -8823307.73044  21369096.2564   21369096.0374
  -8191068.79344  -6382643.73544  21011358.8594   21011359.4444
  -5295545.80944  -4126397.61844  20517796.3964   20517796.9984
   5553892.79344   4327706.33144  21334989.5064   21334990.1244
  11982702.66044   9337171.45244  23122577.2994   23122577.8724
   -239055.50444   -186277.61744  25000084.1634   25000089.2354
  -7692233.06444  -5993939.42044  23576976.8494   23576977.3934
 96  4  4  2 12 30.0000000  0  7G 6G16G20G 5G24G25G17
 -11377823.78244  -8865828.95044  21358712.0594   21358711.6014
  -8187792.97544  -6380091.12944  21011982.3794   21011983.0774
  -5273914.46644  -4109542.03044  20521912.6514   20521913.1954
   5629519.22244   4386636.00144  21349380.6674   21349381.5164
  12060350.34944   9397676.15844  23137352.3384   23137353.7724
   -230374.31944   -179513.08744  25001737.0284   25001737.0824
  -7772695.51644  -6056637.37744  23561664.9274   23561667.0564
 96  4  4  2 13  0.0000000  0  7G 6G16G20G 5G24G25G17
 -11432236.27344  -8908228.27844  21348357.8714   21348357.1684
  -8183917.32444  -6377071.12144  21012719.8834   21012720.5054
  -5251692.92144  -4092226.54444  20526141.3844   20526141.7754
   5705557.49144   4445886.57644  21363850.1434   21363850.9394
  12138055.32844   9458225.48344  23152139.5694   23152140.9454
   -221258.12544   -172409.59844  25003471.0204   25003471.3164
  -7852950.08744  -6119173.32344  23546393.8384   23546396.1084
 96  4  4  2 13 30.0000000  0  7G 6G16G20G 5G24G25G17
 -11486494.74144  -8950507.58744  21338032.6594   21338032.3824
  -8179442.38944  -6373584.13944  21013571.2544   21013571.8114
  -5228878.36544  -4074448.97344  20530482.7204   20530483.2164
   5782017.47244   4505465.76644  21378400.3574   21378400.8584
  12215802.17144   9518807.44244  23166934.9434   23166933.8654
   -211698.21244   -164960.32144  25005291.1114   25005291.6864
  -7932991.95444  -6181543.50444  23531161.7584   23531163.4724
 96  4  4  2 14  0.0000000  0  7G 6G16G20G 5G24G25G17
 -11540595.00744  -8992663.62044  21327737.5354   21327737.2064
  -8174349.51244  -6369615.64344  21014540.3164   21014540.9654
  -5205458.62944  -4056199.83344  20534939.1894   20534939.7624
   5858891.51044   4565367.59744  21393029.2814   21393029.6454
  12293599.95444   9579429.10144  23181738.9304   23181740.1724
   -201654.23544   -157133.82944  25007201.3404   25007202.4904
  -8012794.69244  -6243727.36644  23515975.9414   23515977.8644
 96  4  4  2 14 30.0000000  0  7G 6G16G20G 5G24G25G17
 -11594551.56444  -9034707.67244  21317469.8964   21317469.5944
  -8168650.31544  -6365174.69444  21015624.9104   21015625.6974
  -5181440.97044  -4037484.77844  20539509.7644   20539510.2204
   5936171.57644   4625585.81244  21407734.8264   21407735.3524
  12371440.52044   9640084.12144  23196551.1404   23196553.0214
   -191119.18444   -148924.60744  25009205.8794
  -8092358.94744  -6305725.39844  23500835.7014   23500837.9934
 96  4  4  2 15  0.0000000  0  7G 6G16G20G 5G24G25G17
 -11648363.00944  -9076638.64844  21307229.7454   21307229.5814
  -8162345.04344  -6360261.47344  21016825.0094   21016825.6284
  -5156834.06644  -4018310.57544  20544192.2184   20544192.9154
   6013857.67344   4686120.41844  21422518.0084   21422518.2424
  12449321.31844   9700770.54244  23211372.0804   23211372.9884
   -180097.87944   -140337.36844  25011302.4804
  -8171680.14044  -6367534.04944  23485741.1594   23485741.6774
 96  4  4  2 15 30.0000000  0  7G 6G16G20G 5G24G25G17
 -11702036.74444  -9118462.31544  21297016.1844   21297015.8724
  -8155448.19144  -6354887.28144  21018137.0214   21018137.6604
  -5131642.99844  -3998681.18044  20548986.0044   20548986.5094
   6091937.14144   4746961.54744  21437376.4004   21437376.8704
  12527228.26944   9761477.09044  23226197.4704   23226197.6034
   -168607.97144                  25013488.2984
  -8250769.04844  -6429161.69044  23470690.8354   23470692.4244
 96  4  4  2 16  0.0000000  0  7G 6G16G20G 5G24G25G17
 -11755585.32444  -9160188.47044  21286826.3254   21286825.9044
  -8147982.83444  -6349070.09944  21019557.6074   21019558.1294
  -5105887.30044  -3978611.81644  20553887.2684   20553887.7734
   6170397.40144   4808099.39244  21452306.6084   21452307.1614
  12605147.31044   9822193.24144  23241024.7914   23241025.5764
   -156684.61844                  25015757.7484
  -8329652.98144  -6490629.60644  23455679.8534   23455681.5574
 96  4  4  2 16 30.0000000  0  7G 6G16G20G 5G24G25G17
 -11809024.57944  -9201829.42744  21276656.8954   21276656.6524
  -8139972.89044  -6342828.56744  21021081.9434   21021082.4044
  -5079577.51044  -3958110.68744  20558893.7174   20558894.1744
   6249243.48944   4869537.88444  21467310.5874   21467311.2304
  12683065.79144   9882908.93544  23255851.5164   23255851.9304
   -144362.90944   -112492.26044  25018102.6514
  -8408356.71744  -6551957.11144  23440702.8274   23440704.0144
 96  4  4  2 17  0.0000000  0  7G 6G16G20G 5G24G25G17
 -11862354.28344  -9243385.02044  21266508.9574   21266508.6584
  -8131415.71244  -6336160.61444  21022710.4524   21022710.9814
  -5052711.55944  -3937176.18644  20564006.0694   20564006.5174
   6328467.10844   4931270.56044  21482386.2914   21482386.9824
  12760967.00144   9943611.18244  23270675.8094   23270675.5484
   -131670.24244                  25020518.1464
  -8486895.41744  -6613155.98944  23425756.6914   23425759.8434
 96  4  4  2 17 30.0000000  0  7G 6G16G20G 5G24G25G17
 -11915550.55944  -9284836.64544  21256386.1034   21256385.7764
  -8122290.37144  -6329049.94144  21024446.8254   21024447.4034
  -5025271.64844  -3915794.44944  20569227.9254   20569228.4984
   6408072.80644   4993300.95044  21497534.5054   21497535.6764
  12838851.88944  10004300.70944  23285497.6434   23285498.5564
   -118586.65044                  25023006.8564
  -8565269.87344  -6674226.93644  23410841.8434   23410843.4584
 96  4  4  2 18  0.0000000  0  7G 6G16G20G 5G24G25G17
 -11968608.51444  -9326180.48944  21246289.3754   21246288.9154
  -8112579.90744  -6321483.32644  21026294.9954   21026295.5544
  -4997264.75244  -3893970.90244  20574557.1994   20574557.7524
   6488062.53344   5055630.59244  21512755.8964   21512756.8624
  12916724.15044  10064980.41044  23300315.8084   23300316.8324
   -105101.40644    -81897.85144  25025571.6124   25025566.3774
  -8643480.90244  -6735170.51044  23395959.3324   23395960.8394
 96  4  4  2 18 30.0000000  0  7G 6G16G20G 5G24G25G17
 -12021505.24144  -9367398.69444  21236223.3384   21236223.0124
  -8102253.59744  -6313436.83344  21028259.5954   21028260.6554
  -4968671.24844  -3871690.25444  20579998.2044   20579998.9374
   6568449.88144   5118270.06144  21528053.4194   21528054.5174
  12994608.78544  10125669.73644  23315136.3284   23315137.2544
    -91188.88544    -71056.88744  25028216.3724   25028217.4464
  -8721507.77544  -6795970.59344  23381111.4384   23381114.5374
 96  4  4  2 19  0.0000000  0  7G 6G16G20G 5G24G25G17
 -12074198.45444  -9408458.32444  21226196.0884   21226195.9334
  -8091272.54844  -6304880.15344  21030349.3334   21030349.7154
  -4939471.40844  -3848937.13844  20585554.9604   20585555.7084
   6649244.19844   5181226.65244  21543427.8194   21543428.2474
  13072531.30744  10186388.56144  23329964.6764   23329965.5224
    -76808.79744    -59851.65644  25030954.0164   25030951.0454
  -8799322.70544  -6856605.51044  23366302.9084   23366306.1584
 96  4  4  2 19 30.0000000  0  7G 6G16G20G 5G24G25G17
 -12126707.46844  -9449374.41744  21216204.1864   21216203.9204
  -8079657.29044  -6295829.28644  21032559.5024   21032560.0974
  -4909691.26544  -3825731.83944  20591221.8984   20591222.3634
   6730424.76144   5244484.21544  21558876.4464   21558876.8104
  13150495.13744  10247139.60644  23344800.9744   23344800.3674
    -61966.87844    -48286.68544  25033780.1174   25033780.8164
  -8876929.36944  -6917078.12944  23351534.6424   23351537.8074
 96  4  4  2 20  0.0000000  0  7G 6G16G20G 5G24G25G17
 -12179041.95644  -9490154.52844  21206245.1384   21206244.7114
  -8067421.55444  -6286294.92344  21034888.1734   21034888.5134
  -4879326.61544  -3802071.08044  20597000.3354   20597000.6884
   6811990.14744   5308041.64344  21574398.0564   21574398.3684
  13228511.26544  10307931.39344  23359647.0594   23359646.6404
    -46683.30644    -36377.43544  25036687.6584   25036689.2004
  -8954323.37444  -6977385.08644  23336808.9104   23336810.0314
 96  4  4  2 20 30.0000000  0  7G 6G16G20G 5G24G25G17
 -12231217.17244  -9530810.52344  21196316.5374   21196316.0344
  -8054590.11944  -6276296.38344  21037329.6124   21037330.3144
  -4848384.08444  -3777960.02344  20602888.3934   20602888.8494
   6893913.93144   5371878.34244  21589987.7954   21589988.3384
  13306563.10044  10368750.98344  23374500.2484   23374501.0474
    -30977.95444    -24139.56944  25039674.7794   25039679.6224
  -9031507.38344  -7037528.40944  23322121.2534   23322121.3464
 96  4  4  2 21  0.0000000  0  7G 6G16G20G 5G24G25G17
 -12283222.83344  -9571334.40344  21186420.2294   21186419.7134
  -8041158.53544  -6265830.19444  21039885.4454   21039886.1014
  -4816859.56244  -3753395.46644  20608887.3474   20608887.7754
   6976196.13144   5435994.32744  21605645.1784   21605645.6154
  13384649.28544  10429597.33244  23389359.4434   23389360.4254
    -14847.12144    -11570.10544  25042746.2934   25042748.9474
  -9108459.01044  -7097490.64744  23307477.7854   23307478.0904
 96  4  4  2 21 30.0000000  0  7G 6G16G20G 5G24G25G17
 -12335059.06644  -9611726.25644  21176555.8484   21176555.5474
  -8027134.79344  -6254902.58644  21042554.2974   21042554.7054
  -4784744.46744  -3728370.72244  20614998.6684   20614999.2434
   7058848.79944   5500398.97444  21621373.4084   21621374.4974
  13462761.03944  10490463.61444  23404223.2594   23404223.7744
      1702.50544      1325.52944  25045894.4084   25045898.2904
  -9185172.29144  -7157267.14544  23292878.9404   23292882.1404
 96  4  4  2 22  0.0000000  0  7G 6G16G20G 5G24G25G17
 -12386739.88544  -9651997.01444  21166721.3404   21166720.9384
  -8012539.73144  -6243529.80144  21045331.4494   21045331.9984
  -4752048.50244  -3702893.35444  20621220.2594   20621220.9964
   7141865.45844   5565087.26844  21637170.8634   21637171.5784
  13540861.38544  10551321.04944  23419085.0734   23419085.4134
     18649.55944     14529.76044  25049121.0294
  -9261671.79444  -7216877.07744  23278321.0204   23278324.2494
 96  4  4  2 22 30.0000000  0  7G 6G16G20G 5G24G25G17
 -12438251.76744  -9692136.13344  21156919.1334   21156918.6494
  -7997367.91844  -6231707.58244  21048218.6294   21048218.9914
  -4718776.51244  -3676967.13544  20627552.0164   20627552.6154
   7225246.30444   5630059.34044  21653037.7894   21653038.6654
  13618953.08744  10612171.73744  23433945.0374   23433947.2804
     36012.69844     28057.45344  25052425.1234   25052422.0464
  -9337950.32544  -7276314.80944  23263806.3204   23263807.2224
 96  4  4  2 23  0.0000000  0  7G 6G16G20G 5G24G25G17
 -12489594.14844  -9732143.16944  21147148.9244   21147148.5454
  -7981629.34044  -6219443.74444  21051213.6754   21051213.9904
  -4684940.53244  -3650601.44244  20633990.6594   20633991.3534
   7308997.79544   5695320.22344  21668975.2144   21668975.8574
  13697031.07444  10673011.75544  23448803.0704   23448804.4284
     53792.14144                  25055808.8344
  -9414026.56744  -7335594.94444  23249329.4024   23249331.6144
 96  4  4  2 23 30.0000000  0  7G 6G16G20G 5G24G25G17
 -12540763.28744  -9772015.21144  21137411.5864   21137411.4314
  -7965324.98844  -6206739.03444  21054316.0514   21054316.4844
  -4650537.29244  -3623793.73044  20640537.4424   20640537.8644
   7393136.98044   5760883.20544  21684986.7224   21684987.6724
  13775113.14144  10733854.92044  23463662.5204   23463663.3934
     71989.94544     56088.46744  25059271.6484   25059272.7624
  -9489909.04944  -7394724.09744  23234889.3884   23234889.8894
 96  4  4  2 24  0.0000000  0  7G 6G16G20G 5G24G25G17
 -12591760.52244  -9811753.30844  21127707.4934   21127706.8554
  -7948450.37144  -6193589.97144  21057527.2804   21057527.6004
  -4615585.41944  -3596558.50844  20647188.6454   20647189.1224
   7477644.91344   5826733.52644  21701067.7774   21701068.8824
  13853210.71644  10794710.16444  23478523.0574   23478524.4554
     90604.37844     70591.84044  25062811.4134   25062809.4484
  -9565601.66444  -7453705.27944  23220485.1874   23220485.7224
 96  4  4  2 24 30.0000000  0  7G 6G16G20G 5G24G25G17
 -12642572.40044  -9851346.96944  21118037.9444   21118037.4094
  -7930985.58144  -6179981.02644  21060850.7784   21060851.0914
  -4580092.98144  -3568902.07344  20653942.4614   20653942.9764
   7562518.29044   5892868.61144  21717218.5804   21717219.2014
  13931348.29944  10855596.58444  23493392.0824   23493391.9774
    109653.36044     85433.83144  25066437.8404
  -9641087.96044  -7512525.69644  23206121.1054   23206122.2334
 96  4  4  2 25  0.0000000  0  7G 6G16G20G 5G24G25G17
 -12693192.51444  -9890791.20144  21108405.5284   21108404.9484
  -7912922.27744  -6165905.70344  21064288.1184   21064288.6254
  -4544057.32544  -3540822.34644  20660799.8514   20660800.3124
   7647763.45044   5959293.39444  21733440.1784   21733441.2254
  14009507.65044  10916499.97944  23508265.7054   23508264.7624
    129125.79644    100606.80944  25070144.1394   25070145.2394
  -9716368.27044  -7571185.60944  23191795.7344   23191796.3384
 96  4  4  2 25 30.0000000  0  7G 6G16G20G 5G24G25G17
 -12743612.79244  -9930079.72144  21098810.9764   21098810.5004
  -7894242.62644  -6151350.11944  21067842.5774   21067843.1174
  -4507465.42944  -3512309.18644  20667763.2084   20667763.7704
   7733363.18444   6025994.46244  21749729.5674   21749730.3984
  14087690.91544  10977422.01144  23523143.6524   23523144.7394
    149019.11744    116109.26644  25073931.8574   25073933.0794
  -9791430.21944  -7629675.38444  23177511.8724   23177511.8434
 96  4  4  2 26  0.0000000  0  7G 6G16G20G 5G24G25G17
 -12793875.59044  -9969245.52644  21089246.0394   21089245.6884
  -7874976.38344  -6136337.44544  21071508.9184   21071509.3884
  -4470349.41344  -3483387.62144  20674826.0894   20674826.6174
   7819263.55444   6092929.80144  21766075.7744   21766076.4134
  14165843.60344  11038320.22144  23538015.3274   23538016.4774
    169303.93544    131915.77844  25077791.5674   25077790.9714
  -9866300.15944  -7688015.53144  23163263.2924   23163265.4294
 96  4  4  2 26 30.0000000  0  7G 6G16G20G 5G24G25G17
 -12843973.08644 -10008282.52444  21079712.5894   21079712.4424
  -7855124.54744  -6120868.47144  21075286.7854   21075287.0924
  -4432684.81644  -3454038.59444  20681993.4244   20681994.0874
   7905473.22844   6160106.15444  21782480.8104   21782481.2244
  14243957.62544  11099188.27844  23552879.9584   23552879.9704
    189974.86944    148023.74244  25081725.0074   25081725.7894
  -9940972.27144  -7746201.54144  23149054.4764   23149055.6274
 96  4  4  2 27  0.0000000  0  7G 6G16G20G 5G24G25G17
 -12893889.64244 -10047178.52644  21070214.0014   21070213.5864
  -7834686.49444  -6104942.69744  21079175.7744   21079176.2074
  -4394439.34744  -3424236.94044  20689271.2504   20689271.7724
   7992007.67344   6227535.56944  21798947.6814   21798948.2204
  14322034.71744  11160027.59744  23567737.0004   23567737.8014
    211028.99044    164432.73644  25085732.0074   25085732.8584
 -10015439.32544  -7804227.75444  23134883.0694   23134885.1204
 96  4  4  2 27 30.0000000  0  7G 6G16G20G 5G24G25G17
 -12943632.77844 -10085939.40344  21060748.2444   21060747.6824
  -7813658.54344  -6088557.26844  21083177.3434   21083177.8824
  -4355604.42844  -3393975.97744  20696661.2914   20696661.7334
   8078871.53444   6295221.67444  21815477.7824   21815478.2684
  14400112.00444  11220867.03244  23582595.0924   23582595.3524
    232474.20344    181151.16944  25089812.5304   25089813.0774
 -10089689.71744  -7862085.15644  23120754.0254   23120754.7044
 96  4  4  2 28  0.0000000  0  7G 6G16G20G 5G24G25G17
 -12993198.94044 -10124562.37244  21051315.9604   21051315.6144
  -7792046.08944  -6071716.38244  21087290.0464   21087290.4384
  -4316183.61744  -3363258.46844  20704162.5864   20704163.2294
   8166084.09444   6363179.49044  21832073.7934   21832074.2034
  14478199.44144  11281714.37244  23597454.4594   23597455.9194
    254311.90444    198187.76544  25093968.4014   25093968.8404
 -10163727.31344  -7919776.72844  23106665.2404   23106665.9834
 96  4  4  2 28 30.0000000  0  6G 6G16G 5G24G17G20
 -13042554.82144 -10163021.49044  21041923.9834   21041923.1904
  -7769843.54644  -6054415.68544  21091515.1314   21091515.6204
   8253665.90344   6431425.04444  21848740.1094   21848740.4784
  14556329.44744  11342594.88744  23612322.5194   23612323.0234
 -10237544.85244  -7977296.83344  23092618.1154   23092619.3834
  -4276164.91744  -3332075.07644  20711778.1544   20711778.8084
 96  4  4  2 29  0.0000000  0  6G 6G16G20G 5G24G17
 -13091715.49144 -10201328.49944  21032569.1034   21032568.5474
  -7747062.27244  -6036664.03144  21095849.9444   21095850.6034
  -4235584.35044  -3300453.86544  20719500.7394   20719501.1604
   8341604.92044   6499948.92244  21865474.2234   21865474.7644
  14634494.52844  11403502.73644  23627196.8854   23627197.8534
 -10311161.17944  -8034660.15844  23078610.0114   23078610.7204
 96  4  4  2 29 30.0000000  0  7G 6G16G20G 5G24G23G17
 -13140679.27344 -10239482.08144  21023251.6254   21023251.3844
  -7723707.42044  -6018465.43244  21100294.7294   21100295.0014
  -4194460.57744  -3268409.37544  20727325.9404   20727326.4714
   8429886.62844   6568739.85044  21882273.5824   21882274.2424
  14712693.20244  11464436.78944  23642077.5484   23642077.6094
        -0.56554                  25263824.2504
 -10384579.66244  -8091869.30644  23064639.1594   23064639.9764
 96  4  4  2 30  0.0000000  0  7G 6G16G20G 5G24G23G17
 -13189416.34644 -10277459.00844  21013976.9424   21013976.9054
  -7699776.55244  -5999817.99344  21104848.2194   21104848.7534
  -4152784.16344  -3235934.25744  20735256.5554   20735257.2974
   8518509.49544   6637796.60444  21899137.4404   21899138.3174
  14790905.06844  11525381.09944  23656960.6424   23656960.3474
   -107227.21444                  25243418.2304
 -10457787.77244  -8148914.55144  23050707.4394   23050709.7584
 96  4  4  2 30 30.0000000  0  7G 6G16G20G 5G24G23G17
 -13237936.34944 -10315266.79144  21004744.0834   21004743.6054
  -7675275.97544  -5980726.61544  21109510.5924   21109510.8154
  -4110556.22044  -3203029.37744  20743292.3444   20743293.1254
   8607455.65244   6707105.27144  21916063.6484   21916064.5744
  14869110.74144  11586320.57544  23671843.4514   23671843.9364
   -214466.36844   -167115.97644  25223010.2324
 -10530777.87044  -8205789.89144  23036817.7084   23036819.7644
 96  4  4  2 31  0.0000000  0  7G 6G16G20G 5G24G23G17
 -13286259.62644 -10352921.27844  20995548.4174   20995547.9174
  -7650208.97244  -5961193.88044  21114280.6124   21114281.1234
  -4067785.42344  -3169701.49444  20751431.5104   20751432.1114
   8696708.64344   6776653.03544  21933047.7444   21933048.7334
  14947284.57844  11647235.24744  23686718.8114   23686719.6804
   -321716.80644   -250687.51244  25202601.6294
 -10603542.66744  -8262489.69144  23022971.5154   23022973.8864
 96  4  4  2 31 30.0000000  0  7G16G 5G24G23G17G 6G20
  -7624572.87244  -5941217.69144  21119159.0874   21119159.5034
   8786270.90244   6846441.78944  21950091.4054   21950092.0274
  15025428.89144  11708126.93044  23701589.1864   23701590.2114
   -428973.31044   -334263.79344  25182190.7394
 -10676064.89944  -8319000.48144  23009171.1474   23009171.9844
 -13334379.62344 -10390417.36844  20986391.5414   20986391.0924
  -4024453.34144  -3135936.24544  20759677.4314   20759677.9824
 96  4  4  2 32  0.0000000  0  6G16G 5G24G17G 6G20
  -7598363.78844  -5920795.01344  21124146.0814   21124146.9454
   8876154.34344   6916480.81744  21967195.0804   21967195.8724
  15103548.94244  11768999.68544  23716454.7634   23716455.5724
 -10748340.70544  -8375319.23544  22995416.6984   22995417.5134
 -13382304.38544 -10427761.32544  20977271.6134   20977271.2854
  -3980556.95444  -3101731.27444  20768030.7634   20768031.0874
 96  4  4  2 32 30.0000000  0  6G16G 5G24G17G 6G20
  -7571590.74844  -5899932.89844  21129240.9014   21129241.4254
   8966368.32144   6986777.40944  21984362.9344   21984363.2504
  15181668.17644  11829871.79744  23731320.2484   23731321.8824
 -10820382.30844  -8431455.51244  22981708.1564   22981709.0194
 -13430047.43644 -10464963.69444  20968186.2214   20968185.7054
  -3936112.76544  -3067099.44544  20776488.1294   20776488.5684
 96  4  4  2 33  0.0000000  0  7G16G 5G24G23G17G 6G20
  -7544253.78644  -5878631.35644  21134443.2484   21134443.5774
   9056927.95844   7057343.35144  22001595.4654   22001595.9454
  15259805.47544  11890758.01544  23746189.6114   23746190.2854
        -0.12654                  25120953.6364
 -10892196.24844  -8487414.37344  22968041.6244   22968043.4284
 -13477593.68944 -10502012.71044  20959138.8024   20959138.3034
  -3891128.27344  -3032046.60444  20785048.1884   20785048.7524
 96  4  4  2 33 30.0000000  0  7G16G 5G24G23G17G 6G20
  -7516367.58544  -5856901.83944  21139749.7764   21139750.3144
   9147830.70144   7128176.63544  22018893.5814   22018894.9264
  15337964.64344  11951661.28644  23761062.8644   23761064.3874
   -107296.78044    -83607.55144  25100536.1584
 -10963807.63644  -8543215.39944  22954414.0204   22954415.9914
 -13524938.91144 -10538905.07644  20950129.3604   20950128.9534
  -3845613.31344  -2996580.40844  20793709.5894   20793710.1374
 96  4  4  2 34  0.0000000  0  7G16G 5G24G23G17G 6G20
  -7487941.43944  -5834751.58444  21145159.0014   21145159.3414
   9239052.78144   7199258.76044  22036253.2134   22036254.1514
  15416131.63844  12012570.61444  23775937.2644   23775938.8184
   -214606.36744                  25080115.0934
 -11035236.27244  -8598874.02744  22940822.2394   22940823.7264
 -13572091.96044 -10575647.70244  20941156.3854   20941155.9884
  -3799583.79744  -2960713.26344  20802468.7404   20802469.4874
 96  4  4  2 34 30.0000000  0  7G16G 5G24G23G17G 6G20
  -7458975.03444  -5812180.34744  21150671.1644   21150671.7024
   9330567.46344   7270568.87444  22053667.2254   22053668.4034
  15494276.02244  12073462.33644  23790808.2404   23790806.5864
   -321929.61844                  25059691.7924
 -11106487.90744  -8654394.72744  22927263.3914   22927263.3734
 -13619050.24944 -10612238.56244  20932220.3144   20932219.8644
  -3753043.51744  -2924448.12144  20811324.8374   20811325.4324
 96  4  4  2 35  0.0000000  0  7G16G 5G24G23G17G 6G20
  -7429455.14544  -5789177.83344  21156288.5174   21156289.0494
   9422354.92144   7342091.54844  22071133.2924   22071134.4484
  15572357.72044  12134305.18844  23805667.1714   23805666.1464
   -429258.71344                  25039267.7404
 -11177565.67844  -8709779.97444  22913738.0084   22913738.1624
 -13665818.85144 -10648681.61944  20923320.8424   20923320.2904
  -3705991.76144  -2887784.42444  20820278.8434   20820279.3854
 96  4  4  2 35 30.0000000  0  7G16G 5G24G23G17G 6G20
  -7399370.58044  -5765735.29944  21162013.4254   21162013.9434
   9514406.78544   7413820.24944  22088650.9454   22088652.0894
  15650371.74144  12195095.35444  23820512.2054   23820512.5094
   -536560.56044                  25018847.5854
 -11248454.09244  -8765017.64844  22900248.0364   22900248.9204
 -13712391.48544 -10684971.96844  20914458.5164   20914457.8794
  -3658408.35644  -2850706.45744  20829333.5074   20829333.9924
 96  4  4  2 36  0.0000000  0  7G16G 5G24G23G17G 6G20
  -7368698.83544  -5741835.23444  21167850.2004   21167850.5944
   9606736.01044   7485765.06744  22106220.5354   22106221.5934
  15728320.35944  12255834.53444  23835344.5664   23835345.0334
   -643816.30644   -501673.62744  24998438.5754
 -11319128.09544  -8820088.25044  22886799.0994   22886800.0394
 -13758769.67844 -10721110.81144  20905632.4754   20905632.0684
  -3610276.33944  -2813200.99944  20838492.7074   20838493.1394
 96  4  4  2 36 30.0000000  0  7G16G 5G24G23G17G 6G20
  -7337413.83544  -5717457.29444  21173803.6964   21173803.8234
   9699387.88344   7557961.32544  22123851.3794   22123852.1994
  15806245.64844  12316555.56044  23850173.8114   23850175.9774
   -751000.72044   -585193.70444  24978042.3644   24978050.1294
 -11389555.18544  -8874966.44244  22873397.3944   22873398.5964
 -13804919.14644 -10757071.42544  20896850.7314   20896850.2704
  -3561562.94944  -2775242.52144  20847762.5104   20847763.2384
 96  4  4  2 37  0.0000000  0  7G16G 5G24G23G17G 6G20
  -7305511.13544  -5692598.03544  21179874.2124   21179874.9514
   9792383.80044   7630425.65144  22141548.7544   22141549.1124
  15884198.90944  12377298.33444  23865007.0414   23865007.8244
   -858088.09544   -668638.14744  24957663.8034
 -11459725.87144  -8929644.85944  22860044.5594   22860044.8634
 -13850826.71344 -10792843.54744  20888115.1734   20888114.6344
  -3512260.85244  -2736825.31244  20857144.5304   20857145.0814
 96  4  4  2 37 30.0000000  0  7G16G 5G24G23G17G 6G20
  -7273022.54444  -5667282.24544  21186056.7494   21186057.1194
   9885697.79944   7703137.84244  22159305.5904   22159305.9864
  15962187.61544  12438068.78444  23879849.0524   23879848.3184
   -965105.16344   -752027.77944  24937300.2584
 -11529652.41744  -8984133.02144  22846737.7904   22846738.8874
 -13896500.05044 -10828433.14544  20879423.4734   20879423.0474
  -3462391.01844  -2697965.70944  20866634.2814   20866634.9004
 96  4  4  2 38  0.0000000  0  7G16G 5G24G23G17G 6G20
  -7239974.79344  -5641530.74144  21192345.7364   21192345.8724
   9979289.92344   7776066.75144  22177115.2364   22177116.2634
  16040180.92344  12498842.76244  23894690.5914   23894689.1864
  -1072121.07144   -835416.60944  24916936.1424   24916943.4084
 -11599373.38244  -9038461.01044  22833470.2774   22833471.0064
 -13941973.60544 -10863867.06444  20870770.2334   20870769.7434
  -3412010.87044  -2658708.46144  20876221.2594   20876221.9834
 96  4  4  2 38 30.0000000  0  7G16G 5G24G23G17G 6G20
  -7206359.83144  -5615337.25544  21198742.1274   21198742.4854
  10073166.11344   7849217.01544  22194979.8254   22194980.3674
  16118219.40844  12559651.95744  23909539.7394   23909541.5854
  -1179114.29844   -918787.71144  24896575.7594   24896582.7984
 -11668857.84244  -9092604.70444  22820247.9834   22820248.3574
 -13987195.89844 -10899105.20544  20862164.5644   20862164.1504
  -3361110.98244  -2619046.22144  20885907.2824   20885907.9084
 96  4  4  2 39  0.0000000  0  7G16G 5G24G23G17G 6G20
  -7172196.46844  -5588716.44444  21205243.3284   21205243.6894
  10167294.07944   7922563.45044  22212891.3144   22212892.5754
  16196271.01144  12620471.40244  23924392.5114   23924393.4344
  -1286099.77144  -1002152.72644  24876215.0564   24876222.4744
 -11738114.32544  -9146570.75344  22807068.8924   22807070.6924
 -14032185.39944 -10934161.95044  20853603.3494   20853602.7774
  -3309717.93344  -2578999.70444  20895687.0904   20895687.6964
 96  4  4  2 39 30.0000000  0  7G16G 5G24G23G17G 6G20
  -7137500.67944  -5561680.75744  21211845.7034   21211846.0454
  10261660.14344   7996095.43144  22230849.1634   22230849.3234
  16274303.60644  12681276.02544  23939242.8514   23939244.9344
  -1393101.28344  -1085530.31944  24855853.4184
 -11807142.54744  -9200358.93044  22793932.7364   22793934.5654
 -14076947.11244 -10969041.20344  20845085.3844   20845084.8854
  -3257844.91844  -2538579.18544  20905558.5154   20905558.8634
 96  4  4  2 40  0.0000000  0  7G16G 5G24G23G17G 6G20
  -7102276.01444  -5534232.95844  21218548.7544   21218549.2284
  10356266.91344   8069814.97244  22248851.6234   22248852.9044
  16352316.85744  12742065.57944  23954088.1664   23954087.5764
  -1500089.35244  -1168897.42444  24835495.2084   24835498.5494
 -11875948.17144  -9253973.65144  22780839.2024   22780841.1714
 -14121479.56144 -11003741.80044  20836611.1704   20836610.8184
  -3205482.72144  -2497777.48544  20915522.6484   20915523.2054
 96  4  4  2 40 30.0000000  0  7G16G 5G24G23G17G 6G20
  -7066544.46344  -5506390.18244  21225348.2174   21225348.5544
  10451123.73544   8143729.34744  22266902.7224   22266903.5414
  16430300.33544  12802831.94544  23968927.4814   23968926.7824
  -1607038.76044  -1252234.46444  24815144.6984   24815150.7454
 -11944539.99344  -9307421.78344  22767786.8814   22767789.0404
 -14165787.81044 -11038267.69344  20828179.8874   20828179.3824
  -3152621.70244  -2456587.09244  20925581.5194   20925582.0344
 96  4  4  2 41  0.0000000  0  7G16G 5G24G23G17G 6G20
  -7030313.80744  -5478158.49144  21232242.6624   21232242.9604
  10546232.67244   8217840.19444  22285001.1134   22285002.2064
  16508221.69644  12863549.85544  23983756.3034   23983756.3054
  -1713967.86744  -1335555.58644  24794796.5914
 -12012959.17444  -9360735.38244  22754767.4904   22754768.7194
 -14209909.94244 -11072648.56944  20819783.4214   20819783.0524
  -3099271.17744  -2415015.26244  20935733.6364   20935734.4264
 96  4  4  2 41 30.0000000  0  7G16G 5G24G23G 6G20G17
  -6993561.39744  -5449520.24244  21239236.3474   21239236.7684
  10641615.80344   8292164.70744  22303151.7394   22303152.0664
  16586105.83644  12924238.79044  23998576.4484   23998576.7244
  -1820858.27544  -1418846.65244  24774455.0614   24774461.2754
 -14253819.20144 -11106863.56944  20811427.6864   20811427.1124
  -3045400.07344  -2373037.78744  20945985.3144   20945985.9614
 -12081204.76044  -9413913.73344  22741780.3604   22741780.8944
 96  4  4  2 42  0.0000000  0  7G16G 5G24G23G17G 6G20
  -6956258.52444  -5420453.06044  21246334.6154   21246335.0914
  10737282.52344   8366710.18444  22321356.3454   22321357.6894
  16663952.57044  12984898.58644  24013390.1314   24013391.1974
  -1927708.86744  -1502106.60744  24754121.0814   24754127.9784
 -12149273.69344  -9466954.42744  22728827.3194   22728828.1354
 -14297512.00944 -11140909.90444  20803113.5244   20803112.9474
  -2990989.40844  -2330639.88044  20956339.1774   20956339.7994
 96  4  4  2 42 30.0000000  0  7G16G 5G24G23G17G 6G20
  -6918391.30944  -5390946.12944  21253540.8244   21253541.0434
  10833241.60944   8441483.47644  22339616.8394   22339617.8284
  16741758.64244  13045526.68844  24028195.5424   24028198.6174
  -2034545.53344  -1585355.74444  24733790.3854   24733797.0094
 -12217152.26244  -9519846.77644  22715910.6694   22715911.9034
 -14340984.75844 -11174784.76744  20794840.6794   20794840.1414
  -2936051.48544  -2287831.12044  20966793.6454   20966794.2904
 96  4  4  2 43  0.0000000  0  7G16G 5G24G23G17G 6G20
  -6879946.18144  -5360988.88444  21260856.8754   21260857.1764
  10929479.76744   8516474.23244  22357930.6824   22357931.5694
  16819537.36244  13106133.50044  24042996.7094   24042996.3554
  -2141365.58844  -1668591.89644  24713462.7254   24713468.4344
 -12284825.72944  -9572579.29444  22703032.9084   22703033.5664
 -14384228.25544 -11208480.98944  20786611.6744   20786611.2404
  -2880589.35644  -2244613.88844  20977347.6344   20977348.0944
 96  4  4  2 43 30.0000000  0  7G16G 6G20G 5G24G23G17
  -6840908.30444  -5330569.75044  21268285.4534   21268285.7884
 -14427211.27144 -11241974.24244  20778432.4604   20778431.7864
  -2824585.79944  -2200974.76044  20988004.8564   20988005.3204
  11025990.28844   8591677.22244  22376295.7664   22376297.0754
  16897305.24344  13166731.85444  24057794.7854   24057795.5404
  -2248140.50844  -1751792.93344  24693144.5174   24693150.1384
 -12352249.71744  -9625117.43944  22690202.6024   22690203.7364
 96  4  4  2 44  0.0000000  0  7G16G 6G20G 5G24G23G17
  -6801308.81744  -5299713.00044  21275820.8024   21275821.3134
 -14469950.26744 -11275277.34944  20770299.5054   20770298.9944
  -2768075.98744  -2156941.15544  20998758.2964   20998759.0064
  11122764.70644   8667085.82844  22394711.3304   22394712.2584
  16975043.01144  13227306.72944  24072587.7814   24072589.5304
  -2354883.35144  -1834968.95944  24672831.1994   24672837.8724
 -12419429.57044  -9677465.34244  22677419.1964   22677419.6364
 96  4  4  2 44 30.0000000  0  7G 6G16G20G 5G24G23G17
 -14512427.41544 -11308376.41844  20762216.2214   20762215.5704
  -6761174.43944  -5268439.45244  21283457.9494   21283458.4034
  -2711062.90744  -2112515.39244  21009607.5884   21009608.3874
  11219808.12344   8742704.06344  22413178.2784   22413179.3704
  17052773.03844  13287875.58744  24087379.9524   24087382.0524
  -2461553.99844  -1918088.72544  24652531.4674   24652535.8804
 -12486355.75444  -9729615.57144  22664683.6424   22664684.2854
 96  4  4  2 45  0.0000000  0  7G16G 6G20G 5G24G23G17
  -6720511.35144  -5236753.91744  21291195.9694   21291196.4484
 -14554629.13944 -11341260.87544  20754185.5784   20754185.1134
  -2653522.87744  -2067679.01744  21020556.7574   21020557.6014
  11317123.87944   8818534.50044  22431696.8264   22431697.9074
  17130505.37644  13348446.26344  24102172.3694   24102172.5824
  -2568120.46144  -2001127.31844  24632252.8194   24632260.4514
 -12553020.20744  -9781561.86544  22651997.5924   22651998.0864
 96  4  4  2 45 30.0000000  0  7G16G 6G20G 5G24G23G17
  -6679350.54844  -5204680.55444  21299029.0154   21299029.4714
 -14596575.86244 -11373946.62544  20746203.5004   20746202.7834
  -2595477.74944  -2022449.05944  21031602.7084   21031603.3374
  11414700.47144   8894568.16444  22450265.3174   22450266.3974
  17208213.37744  13408997.94944  24116959.6124   24116959.2624
  -2674610.74844  -2084106.49844  24611990.5164   24611997.3934
 -12619447.88944  -9833323.65444  22639356.4844   22639357.2844
 96  4  4  2 46  0.0000000  0  7G16G 6G20G 5G24G23G17
  -6637695.78144  -5172222.28844  21306955.1814   21306955.5424
 -14638273.68644 -11406438.42944  20738268.7814   20738268.0714
  -2536936.08844  -1976832.19444  21042742.4894   21042743.2324
  11512543.19544   8970809.23144  22468884.0474   22468885.0644
  17285898.08444  13469531.45244  24131742.2704   24131742.8074
  -2781026.43544  -2167027.60444  24591738.3184   24591743.0394
 -12685650.36544  -9884909.95844  22626758.5784   22626758.5234
 96  4  4  2 46 30.0000000  0  7G 6G16G20G 5G24G23G17
 -14679728.51944 -11438740.88544  20730380.0324   20730379.6594
  -6595532.95144  -5139368.12644  21314978.4394   21314979.0514
  -2477893.61944  -1930825.08944  21053977.8104   21053978.6864
  11610633.22644   9047243.00744  22487549.7404   22487550.6794
  17363559.60644  13530046.93944  24146521.4984   24146522.4994
  -2887355.98744  -2249881.57444  24571504.5844   24571509.5934
 -12751623.85144  -9936317.83544  22614204.0304   22614204.6874
 96  4  4  2 47  0.0000000  0  7G16G 6G20G 5G24G23G17
  -6552833.91944  -5106096.14544  21323103.8854   21323104.3664
 -14720951.37844 -11470862.58344  20722535.2824   20722534.9514
  -2418350.19044  -1884427.62544  21065308.8114   21065309.5784
  11708969.71744   9123868.82544  22506263.0164   22506263.7544
  17441193.02644  13590540.49044  24161292.7674   24161294.6554
  -2993617.31744  -2332682.39344  24551284.5234   24551290.6584
 -12817371.99344  -9987550.12244  22601692.5874   22601693.2124
 96  4  4  2 47 30.0000000  0  7G 6G16G20G 5G24G23G17
 -14761934.62244 -11502797.57444  20714736.7144   20714736.0024
  -6509568.80644  -5072383.06044  21331337.2174   21331337.5814
  -2358307.89544  -1837641.43244  21076734.8464   21076735.3714
  11807550.47344   9200684.97544  22525022.2004   22525022.3584
  17518805.33444  13651017.65744  24176062.5364   24176065.3214
  -3099808.94444  -2415428.87244  24531077.1804   24531083.9664
 -12882898.33244 -10038609.56344  22589223.0714   22589224.0494
 96  4  4  2 48  0.0000000  0  7G 6G16G20G 5G24G23G17
 -14802686.97244 -11534552.64744  20706981.8324   20706981.3514
  -6465744.70744  -5038234.40344  21339676.4494   21339677.0034
  -2297780.60244  -1790477.32044  21088252.5834   21088253.4924
  11906348.52744   9277670.45344  22543822.4774   22543823.6854
  17596380.38044  13711465.69744  24190825.1044   24190828.5394
  -3205929.34144  -2498119.93144  24510882.3564   24510884.4974
 -12948219.00244 -10089508.75744  22576792.7134   22576793.2684
 96  4  4  2 48 30.0000000  0  7G 6G16G20G 5G24G23G17
 -14843199.64144 -11566120.95244  20699272.3214   20699271.9224
  -6421363.90344  -5003651.95044  21348121.8494   21348122.0014
  -2236775.04844  -1742940.53744  21099861.4684   21099862.4194
  12005358.55544   9354821.10744  22562664.0294   22562664.6254
  17673922.85944  13771888.41644  24205579.9514   24205583.4914
  -3311974.00644  -2580751.90744  24490702.0744   24490707.3974
 -13013343.02944 -10140254.71044  22564400.2024   22564401.1884
 96  4  4  2 49  0.0000000  0  7G 6G16G20G 5G24G23G17
 -14883443.96344 -11597480.15544  20691614.0154   20691613.9504
  -6376424.31344  -4968634.08044  21356673.7464   21356674.2064
  -2175286.53544  -1695027.42344  21111562.4344   21111563.1694
  12104581.47644   9432137.65244  22581545.3514   22581546.5234
  17751440.24844  13832291.53844  24220330.7594   24220328.8194
  -3417936.11344  -2663319.59144  24470539.6134   24470543.4334
 -13078270.62344 -10190847.60544  22552044.8314   22552046.3354
 96  4  4  2 49 30.0000000  0  7G 6G16G20G 5G24G23G17
 -14923417.56044 -11628628.40344  20684007.5184   20684006.9544
  -6330977.25644  -4933220.78144  21365321.8154   21365322.0964
  -2113351.07744  -1646766.03644  21123348.3924   21123349.0724
  12203988.29844   9509597.49444  22600461.5454   22600462.7574
  17828905.70844  13892654.22844  24235073.2634   24235074.3974
  -3523828.95744  -2745833.29544  24450388.3344   24450391.8924
 -13143025.38944 -10241305.82644  22539722.5164   22539724.3604
 96  4  4  2 50  0.0000000  0  7G 6G16G20G 5G24G23G17
 -14963099.86244 -11659549.67044  20676456.0604   20676455.4594
  -6285035.40044  -4897421.92944  21374064.1674   21374064.4184
  -2050963.41544  -1598152.28544  21135220.2904   21135220.9054
  12303602.74744   9587219.10944  22619417.7344   22619419.4314
  17906338.83544  13952991.72844  24249808.6234   24249808.2754
  -3629631.39344  -2828276.55944  24430253.4084   24430256.8494
 -13207583.31344 -10291610.66344  22527437.2864   22527438.2094
 96  4  4  2 50 30.0000000  0  7G 6G16G20G 5G24G23G17
 -15002478.70944 -11690234.48144  20668962.4444   20668962.0664
  -6238602.81944  -4861240.69144  21382900.0664   21382900.4594
  -1988123.08844  -1549185.81144  21147178.7894   21147179.3914
  12403429.95044   9665006.52844  22638414.2084   22638414.6574
  17983754.25144  14013315.46144  24264540.4344   24264539.9124
  -3735352.03944  -2910656.08244  24410135.9664   24410141.7804
 -13271926.21944 -10341747.96244  22515193.4404   22515194.1254
 96  4  4  2 51  0.0000000  0  7G 6G16G20G 5G24G23G17
 -15041561.97144 -11720688.95944  20661525.1784   20661524.8744
  -6191680.37944  -4824677.74444  21391829.1024   21391829.3774
  -1924821.45344  -1499859.87444  21159224.3474   21159225.2254
  12503477.12844   9742965.35644  22657452.7924   22657453.8044
  18061154.75044  14073627.54544  24279269.6654   24279270.0154
  -3841001.93444  -2992980.44644  24390032.2514   24390034.9684
 -13336037.39744 -10391704.68144  22502993.1904   22502993.5624
 96  4  4  2 51 30.0000000  0  7G 6G16G20G 5G24G23G17
 -15080359.68544 -11750920.93944  20654142.2244   20654141.8144
  -6144244.53144  -4787714.73444  21400855.8524   21400856.4414
  -1861039.77844  -1450159.87944  21171361.5904   21171362.6754
  12603769.01744   9821114.85344  22676537.7974   22676538.7774
  18138553.84944  14133938.55444  24293998.0744   24293996.6524
  -3946572.14144  -3075242.78844  24369940.7614   24369944.4524
 -13399885.59144 -10441456.48644  22490843.6644   22490844.1814
 96  4  4  2 52  0.0000000  0  7G 6G16G20G 5G24G23G17
 -15118919.07344 -11780967.20744  20646804.8654   20646804.0224
  -6096291.74744  -4750348.91844  21409980.8314   21409981.3324
  -1796783.14144  -1400089.78344  21183589.3394   21183590.2084
  12704277.86844   9899433.42344  22695664.3694   22695665.5054
  18215943.09244  14194241.87244  24308724.4424   24308724.5064
  -4052070.52144  -3157449.12444  24349866.0134   24349870.3774
 -13463478.32344 -10491009.23144  22478741.8914   22478742.4854
 96  4  4  2 52 30.0000000  0  7G 6G16G20G 5G24G23G17
 -15157267.19244 -11810848.85744  20639507.4394   20639506.7054
  -6047822.47744  -4712580.65344  21419204.3644   21419204.8484
  -1732060.11644  -1349656.26844  21195905.9314   21195906.5564
  12804981.05444   9977903.42944  22714827.4224   22714828.2544
  18293295.96644  14254516.81844  24323443.8684   24323443.8854
  -4157512.16244  -3239611.25744  24329801.4404   24329803.6484
 -13526837.25344 -10540379.79544  22466684.8434   22466685.6414
 96  4  4  2 53  0.0000000  0  7G 6G16G20G 5G24G23G17
 -15195422.76044 -11840580.46644  20632246.4794   20632246.0994
  -5998832.78744  -4674406.85744  21428526.8264   21428527.1564
  -1666873.33644  -1298861.38744  21208310.6594   21208311.1764
  12905883.00344  10056528.29744  22734028.2204   22734029.1524
  18370600.62644  14314754.21444  24338153.7094   24338154.4704
  -4262877.40244  -3321713.87344  24309751.4684   24309754.2514
 -13589987.09044 -10589587.42944  22454668.4274   22454668.8444
 96  4  4  2 53 30.0000000  0  7G 6G16G20G 5G24G23G17
 -15233382.63944 -11870159.58644  20625023.1624   20625022.6984
  -5949331.27444  -4635834.24844  21437946.7004   21437946.8784
  -1601233.54644  -1247713.50944  21220801.4574   21220801.7754
  13006974.84744  10135301.13744  22753265.4554   22753266.4664
  18447844.65244  14374944.35744  24352852.0174   24352855.0614
  -4368152.53044  -3403746.27544  24289717.4054   24289722.4224
 -13652947.94244 -10638647.79244  22442686.9434   22442688.5744
 96  4  4  2 54  0.0000000  0  7G 6G16G20G 5G24G23G17
 -15271092.30044 -11899543.72744  20617847.1484   20617846.6784
  -5899312.64844  -4596858.68544  21447464.7824   21447465.1744
  -1535121.73244  -1196197.82044  21233382.2554   21233382.8394
  13108279.48544  10214239.79044  22772543.1644   22772543.7074
  18525051.69044  14435105.63044  24367543.3914   24367548.6424
  -4473308.46544  -3485685.79044  24269706.9034   24269710.9114
 -13715699.41644 -10687545.00844  22430745.7074   22430746.3434
 96  4  4  2 54 30.0000000  0  7G 6G16G20G 5G24G23G17
 -15308526.38944 -11928713.14144  20610723.4854   20610722.9254
  -5848784.74744  -4557486.28844  21457080.1004   21457080.5634
  -1468544.15944  -1144319.20244  21246051.0164   21246051.9754
  13209814.37744  10293357.87644  22791864.5054   22791864.8914
  18602215.62744  14495233.39544  24382228.2724   24382229.4864
  -4578365.29644  -3567548.08744  24249714.1094   24249719.3804
 -13778241.78744 -10736279.29644  22418844.5224   22418845.5214
 96  4  4  2 55  0.0000000  0  7G 6G16G20G 5G24G23G17
 -15345678.63444 -11957662.94344  20603653.7234   20603653.2024
  -5797776.45844  -4517739.56444  21466786.6304   21466786.9684
  -1401520.96044  -1092093.34244  21258805.1044   21258806.0454
  13311564.49944  10372643.67044  22811227.0944   22811227.6644
  18679329.26144  14555321.89344  24396903.7574   24396904.5814
  -4683329.99944  -3649338.56044  24229740.7414   24229745.6874
 -13840575.25944 -10784850.80244  22406982.6354   22406983.4434
 96  4  4  2 55 30.0000000  0  7G 6G16G20G 5G24G23G17
 -15382540.92044 -11986386.79544  20596638.9654   20596638.5464
  -5746308.27544  -4477634.48144  21476580.4864   21476580.5364
  -1334058.02044  -1039524.82544  21271643.1224   21271643.9474
  13413507.76544  10452079.96244  22830625.8954   22830626.9384
  18756385.86744  14615365.98144  24411567.4764   24411569.9474
  -4788217.42944  -3731068.93544  24209780.8644   24209782.9604
 -13902684.42244 -10833247.52444  22395163.8664   22395165.1434
 96  4  4  2 56  0.0000000  0  7G 6G16G20G 5G24G23G17
 -15419096.43744 -12014871.60444  20589682.9634   20589682.3944
  -5694373.86944  -4437166.10344  21486463.2254   21486463.5814
  -1266143.74544   -986604.61844  21284566.9294   21284567.5194
  13515645.56644  10531667.83944  22850061.9514   22850063.0604
  18833402.18444  14675378.71344  24426223.9004   24426222.4084
  -4893023.70744  -3812735.97344  24189836.1764   24189841.3994
 -13964552.36944 -10881456.27744  22383390.4344   22383391.0014
 96  4  4  2 56 30.0000000  0  7G 6G16G20G 5G24G23G17
 -15455347.51044 -12043119.19144  20582784.5834   20582784.0894
  -5641965.07244  -4396328.07844  21496436.6244   21496437.0114
  -1197775.12044   -933330.37244  21297577.2034   21297577.5604
  13617978.70944  10611407.92244  22869535.8014   22869536.3334
  18910399.19144  14735376.45244  24440875.5384   24440873.8674
  -4997731.89444  -3894326.58644  24169911.1834   24169915.6834
 -14026189.52744 -10929485.20744  22371661.8544   22371662.4904
 96  4  4  2 57  0.0000000  0  7G 6G16G20G 5G24G23G17
 -15491294.18944 -12071129.58144  20575943.7374   20575943.3414
  -5589088.38344  -4355125.45344  21506498.8214   21506499.1574
  -1128951.32144   -879701.44844  21310673.5904   21310674.0654
  13720479.48044  10691278.64544  22889040.3184   22889042.1204
  18987371.80244  14795355.17544  24455522.1074   24455518.9424
  -5102318.59044  -3975822.58244  24150010.7384   24150012.0794
 -14087612.87144 -10977347.52444  22359973.3134   22359973.7364
 96  4  4  2 57 30.0000000  0  7G 6G16G20G 5G24G23G17
 -15526940.02044 -12098905.54544  20569160.8304   20569160.2574
  -5535740.22844  -4313555.45744  21516650.3234   21516650.2244
  -1059676.61644   -825721.17144  21323856.3924   21323856.8534
  13823129.09544  10771265.33844  22908574.2354   22908575.2094
  19064320.90344  14855315.55244  24470165.2434   24470165.0234
  -5206794.42044  -4057232.20544  24130129.1074   24130130.8964
 -14148844.41244 -11025060.37944  22348321.0974   22348322.1004
 96  4  4  2 58  0.0000000  0  7G 6G16G20G 5G24G23G17
 -15562273.07644 -12126437.79444  20562437.2824   20562436.5414
  -5481895.00244  -4271598.13544  21526896.7914   21526896.7724
   -989953.37244   -771391.38344  21337123.7404   21337124.2934
  13925943.25844  10851380.24744  22928139.0894   22928139.5894
  19141270.62944  14915276.36744  24484807.7574   24484807.1504
  -5311152.52544  -4138550.03644  24110269.7314   24110271.5114
 -14209891.61144 -11072629.60144  22336703.9774   22336704.4614
 96  4  4  2 58 30.0000000  0  7G 6G16G20G 5G24G23G17
 -15597299.88644 -12153731.40444  20555771.6304   20555771.2064
  -5427543.53844  -4229246.33844  21537239.5574   21537239.4864
   -919784.29044   -716714.18944  21350476.2594   21350477.1114
  14028924.09244  10931625.04544  22947735.9164   22947736.7304
  19218208.90444  14975228.20844  24499446.9314   24499449.6394
  -5415382.75044  -4219768.26344  24090434.2284   24090435.3804
 -14270764.75744 -11120063.19444  22325120.2094   22325119.9914
 96  4  4  2 59  0.0000000  0  7G 6G16G20G 5G24G23G17
 -15632014.82644 -12180782.00244  20549165.7074   20549165.0584
  -5372671.56044  -4186488.94644  21547681.1944   21547681.5084
   -849157.40644   -661680.27044  21363916.3174   21363917.0724
  14132079.43644  11012005.80544  22967365.8134   22967366.4424
  19295127.12044  15035164.43144  24514083.9224   24514085.7084
  -5519479.15344  -4300882.21044  24070625.1314   24070628.2224
 -14331436.71744 -11167340.01944  22313575.1114   22313575.5524
 96  4  4  2 59 30.0000000  0  7G 6G16G20G 5G24G23G17
 -15666423.20844 -12207593.72244  20542618.0724   20542617.3584
  -5317276.05544  -4143323.61144  21558223.0874   21558223.0534
   -778076.84744   -606292.83544  21377442.7714   21377443.6394
  14235424.69444  11092534.54944  22987031.8304   22987032.2734
  19372034.07844  15095091.91044  24528721.8724   24528723.1684
  -5623445.14544  -4381894.51844  24050841.4614   24050842.5024
 -14391891.24944 -11214447.42144  22302070.6124   22302071.4624
 96  4  4  3  0  0.0000000  0  7G 6G16G20G 5G24G23G17
 -15700539.60344 -12234177.92044  20536125.8734   20536125.1074
  -5261376.78444  -4099765.73144  21568859.8954   21568860.0704
   -706556.40644   -550562.63244  21391053.0524   21391053.2274
  14338958.26944  11173210.04044  23006733.4994   23006734.4364
  19448899.61744  15154987.08544  24543347.7674   24543350.5544
  -5727281.30044  -4462805.67644  24031082.9644   24031086.0884
 -14452132.04744 -11261388.27844  22290607.2474   22290607.7824
 96  4  4  3  0 30.0000000  0  7G 6G16G20G 5G24G23G17
 -15734358.21444 -12260530.07744  20529690.5474   20529689.9794
  -5204991.22544  -4055828.92944  21579589.4054   21579589.5354
   -634592.48844   -494486.86044  21404747.3844   21404747.6384
  14442670.86144  11254025.03144  23026469.7234   23026470.3824
  19525701.13244  15214832.40644  24557963.7694   24557964.1764
  -5830969.94344  -4543601.86944  24011351.9774   24011353.2974
 -14512140.33744 -11308147.95444  22279187.9174   22279188.2874
 96  4  4  3  1  0.0000000  0  8G 6G16G20G 5G24G26G23G17
 -15767881.83944 -12286652.37644  20523311.1604   20523310.3944
  -5148125.01944  -4011517.59544  21590411.1274   21590411.4044
   -562201.65744   -438078.42844  21418523.0034   21418523.3794
  14546548.06744  11334968.28744  23046236.8104   23046238.1564
  19602448.89344  15274635.84944  24572568.4794   24572568.6314
        -0.99354                  24051463.8334
  -5934513.56944  -4624285.11644  23991647.7544   23991648.0614
 -14571898.50944 -11354712.73544  22267816.5844   22267817.1494
 96  4  4  3  1 30.0000000  0  8G 6G16G20G 5G24G26G23G17
 -15801118.70644 -12312551.22544  20516986.2704   20516985.8224
  -5090790.30844  -3966841.19644  21601321.5294   21601321.9284
   -489404.46944   -381353.36044  21432375.3214   21432375.8204
  14650577.92144  11416030.48444  23066032.8254   23066034.7854
  19679138.77144  15334394.21344  24587162.1934   24587161.3444
    -78862.31744                  24036456.9824
  -6037924.29344  -4704864.78144  23971968.7954   23971970.9364
 -14631424.03644 -11401096.23644  22256489.2234   22256489.3944
 96  4  4  3  2  0.0000000  0  7G 6G16G20G 5G24G23G17
 -15834052.25144 -12338213.72144  20510718.9654   20510718.5654
  -5032975.93344  -3921791.03144  21612323.0244   21612323.5524
   -416188.70444   -324302.12444  21446307.8774   21446308.4874
  14754783.52244  11497229.63344  23085863.0714   23085863.1204
  19755773.64644  15394109.77944  24601744.1604   24601742.2514
  -6141180.45044  -4785324.00444  23952319.4344   23952322.3814
 -14690700.19344 -11447285.42444  22245208.8394   22245209.3684
 96  4  4  3  2 30.0000000  0  7G 6G16G20G 5G24G23G17
 -15866717.98544 -12363667.53444  20504503.2184   20504502.6384
  -4974698.48644  -3876380.02744  21623412.8614   21623413.3474
   -342579.45044   -266944.27844  21460314.9524   21460315.7924
  14859136.94744  11578543.96444  23105720.3884   23105721.7844
  19832346.45344  15453776.92144  24616316.5814   24616318.3554
  -6244306.53844  -4865681.84744  23932695.5484   23932698.6714
 -14749737.80944 -11493288.74444  22233975.2074   22233975.3064
 96  4  4  3  3  0.0000000  0  7G 6G16G20G 5G26G23G17
 -15899084.30344 -12388888.03244  20498344.2884   20498343.7384
  -4915932.21544  -3830588.12744  21634595.9024   21634596.1474
   -268540.69644   -209251.75744  21474404.2584   21474405.5094
  14963677.61944  11660004.20044  23125614.4624   23125616.0414
         0.23054                  23991546.6814
  -6347282.25744  -4945922.56744  23913100.3384   23913100.9684
 -14808514.45544 -11539088.70344  22222789.8604   22222790.4024
 96  4  4  3  3 30.0000000  0  6G16G20G 5G 6G23G17
  -4856730.36944  -3784456.82444  21645861.7784   21645862.0424
   -194091.46444   -151239.38544  21488571.5724   21488572.7284
  15068372.31144  11741584.46444  23145536.4264   23145537.4474
 -15931173.81344 -12413892.83744  20492237.8234   20492237.3554
  -6450141.59444  -5026072.59044  23893525.8314   23893528.7284
 -14867083.71544 -11584727.06344  22211644.6524   22211644.9654
 96  4  4  3  4  0.0000000  0  6G 6G16G20G 5G23G17
 -15962983.26244 -12438679.41644  20486184.6544   20486184.2114
  -4797106.97944  -3737997.03544  21657207.5984   21657207.8534
   -119231.32944    -92906.82744  21502816.9534   21502817.7824
  15173205.31444  11823272.49444  23165485.4894   23165486.8264
  -6552878.87544  -5106127.50144  23873975.4654   23873978.1594
 -14925445.99244 -11630204.13644  22200538.8044   22200538.6064
 96  4  4  3  4 30.0000000  0  7G 6G16G20G 5G26G23G17
 -15994490.93944 -12463230.84644  20480188.8234   20480188.3064
  -4737056.56544  -3691204.50144  21668635.1004   21668635.2694
    -43961.25344    -34254.83044  21517140.7254   21517141.2344
  15278151.20044  11905048.50144  23185455.9394   23185457.3114
        -0.37454                  23946805.1344
  -6655495.65144  -5186088.52544  23854448.6474   23854450.6574
 -14983603.38344 -11675521.55344  22189471.3834   22189471.8664
 96  4  4  3  5  0.0000000  0  7G 6G16G20G 5G26G23G17
 -16025667.69744 -12487524.41944  20474256.2444   20474255.5564
  -4676574.25644  -3644075.42544  21680144.1494   21680144.4604
     31731.87044     24726.81244  21531544.6814   21531545.1574
  15383217.33844  11986918.19244  23205449.7284   23205450.3984
    -78198.58144                  23931924.5524
  -6757977.14344  -5265944.13544  23834946.4604   23834947.8664
 -15041565.74744 -11720687.01344  22178441.6284   22178442.0244
 96  4  4  3  5 30.0000000  0  7G 6G16G20G 5G26G23G17
 -16056506.52344 -12511554.66644  20468387.7604   20468387.1944
  -4615637.24644  -3596592.04244  21691739.9424   21691740.3664
    107835.17944     84028.08044  21546025.8854   21546026.5954
  15488395.23544  12068874.97244  23225463.4464   23225464.6234
   -156291.59644                  23917065.1804
  -6860303.49044  -5345678.87044  23815474.1214   23815477.0754
 -15099324.90944 -11765694.12744  22167450.6174   22167450.9614
 96  4  4  3  6  0.0000000  0  7G 6G16G20G 5G26G23G17
 -16087004.34744 -12535319.19844  20462584.0934   20462583.4374
  -4554221.53344  -3548735.64244  21703427.4504   21703427.8304
    184340.80444    143642.84444  21560584.6164   21560585.6304
  15593696.32844  12150927.74544  23245502.3764   23245504.8234
   -234266.15944                  23902226.1214
  -6962463.30544  -5425283.80844  23796034.2374   23796037.4694
 -15156853.87044 -11810521.86144  22156502.9624   22156503.5834
 96  4  4  3  6 30.0000000  0  7G 6G16G20G 5G26G23G17
 -16117148.82844 -12558808.40244  20456847.8364   20456847.2784
  -4492314.69644  -3500496.54544  21715207.8774   21715208.0384
    261256.73544    203577.32344  21575221.4974   21575222.4304
  15699142.14544  12233093.28944  23265567.9574   23265569.3134
   -312095.26344                  23887414.6424
  -7064446.35244  -5504751.03144  23776626.6344   23776631.0044
 -15214149.38744 -11855167.68844  22145599.8294   22145600.6254
 96  4  4  3  7  0.0000000  0  7G 6G16G20G 5G26G23G17
 -16146963.84544 -12582040.87744  20451174.2324   20451173.6424
  -4429935.14444  -3451889.11044  21727078.0994   21727078.4684
    338569.12944    263820.73744  21589933.8594   21589934.5074
  15804736.80144  12315374.83144  23285662.2454   23285663.8954
   -389783.47944                  23872631.5354
  -7166260.85644  -5584086.92444  23757253.3154   23757252.9074
 -15271227.05544 -11899643.77544  22134738.4174   22134739.5904
 96  4  4  3  7 30.0000000  0  7G 6G16G20G 5G26G23G17
 -16176455.03744 -12605021.02244  20445562.2274   20445561.2194
  -4367092.51244  -3402920.82444  21739036.4454   21739036.6764
    416265.87644    324363.64144  21604718.9484   21604719.8224
  15910477.69944  12397770.32144  23305783.9714   23305785.9064
   -467349.18244                  23857871.4794
  -7267914.84444  -5663297.75844  23737907.8394   23737908.1694
 -15328081.48544 -11943945.90544  22123919.1264   22123920.2644
 96  4  4  3  8  0.0000000  0  7G 6G16G20G 5G26G23G17
 -16205629.26444 -12627754.18144  20440010.5134   20440010.0074
  -4303814.23244  -3353613.07444  21751078.0494   21751078.4464
    494344.91944    385204.44344  21619576.9264   21619577.5554
  16016372.19844  12480285.51444  23325935.4194   23325936.9914
   -544799.49544                  23843134.4844
  -7369430.15444  -5742400.51144  23718589.8464   23718591.8464
 -15384733.29844 -11988090.15144  22113139.1884   22113139.7034
 96  4  4  3  8 30.0000000  0  7G 6G16G20G 5G26G23G17
 -16234479.27744 -12650234.70344  20434520.4734   20434520.0434
  -4240113.85444  -3303976.41344  21763199.8244   21763200.3904
    572807.33744    446343.97644  21634507.5794   21634508.2184
  16122419.11944  12562919.45444  23346114.8844   23346115.3414
   -622126.20644                  23828417.7784
  -7470804.35044  -5821393.32644  23699299.1234   23699299.0104
 -15441193.62844 -12032085.19144  22102395.2624   22102395.8594
 96  4  4  3  9  0.0000000  0  7G 6G16G20G 5G26G23G17
 -16263018.48844 -12672473.04644  20429089.6714   20429089.1054
  -4175996.92344  -3254015.16244  21775400.8274   21775400.6854
    651642.22144    507773.74444  21649509.7204   21649510.6164
  16228591.34744  12645651.05044  23366319.2914   23366319.1734
   -699347.65244                  23813723.1994
  -7572041.02044  -5900278.96644  23680035.2394   23680036.8024
 -15497461.08044 -12075929.93744  22091687.4494   22091688.1254
 96  4  4  3  9 30.0000000  0  7G 6G16G20G 5G26G23G17
 -16291222.03744 -12694449.83344  20423722.7004   20423722.2424
  -4111446.07644  -3203715.80244  21787684.3454   21787684.7444
    730864.82444    569505.63144  21664584.8974   21664585.8554
  16334892.94844  12728483.41544  23386546.6984   23386548.2114
   -776439.46044                  23799052.6904
  -7673108.92844  -5979033.10544  23660801.8084   23660804.6654
 -15553502.08644 -12119598.23444  22081023.4474   22081023.9234
 96  4  4  3 10  0.0000000  0  7G 6G16G20G 5G26G23G17
 -16319093.76644 -12716168.05844  20418418.9144   20418418.3914
  -4046455.82844  -3153074.05544  21800051.8084   21800051.9364
    810471.22944    631536.58644  21679733.7274   21679734.5074
  16441307.37944  12811403.72844  23406797.4774   23406799.1134
   -853390.08144                  23784409.0324
  -7774000.59244  -6057649.90144  23641603.3554   23641604.7454
 -15609311.82544 -12163086.31544  22070403.2334   22070403.6584
 96  4  4  3 10 30.0000000  0  7G 6G16G20G 5G26G23G17
 -16346641.23044 -12737633.61244  20413177.0494   20413176.3354
  -3981012.11244  -3102078.95144  21812505.4664   21812505.5904
    890458.69144    693864.47044  21694954.8354   21694955.7474
  16547802.71944  12894387.10644  23427062.5624   23427064.3914
   -930207.98544                  23769792.3174
  -7874705.25144  -6136121.02044  23622439.5144   23622440.9664
 -15664878.67344 -12206385.13644  22059828.6564   22059829.7424
 96  4  4  3 11  0.0000000  0  7G 6G16G20G 5G26G23G17
 -16373868.55144 -12758849.70244  20407995.5924   20407995.0764
  -3915111.96844  -3050728.18844  21825045.7444   21825045.5464
    970818.92244    756482.82444  21710246.8034   21710247.7084
  16654367.86044  12977424.88344  23447341.3014   23447341.7974
  -1006891.57944                  23755199.7774
  -7975224.15844  -6214447.35744  23603311.5474   23603314.0064
 -15720203.27644 -12249495.20044  22049300.8204   22049301.4764
 96  4  4  3 11 30.0000000  0  8G 6G16G20G 5G22G26G23G17
 -16400782.28444 -12779821.43644  20402874.2714   20402873.5014
  -3848775.84144  -2999037.69344  21837668.9154   21837669.2784
   1051530.22544    819374.73644  21725605.9034   21725606.9184
  16761004.54344  13060518.39844  23467633.6894   23467634.0324
         0.23254         0.45554  24968647.5404
  -1083438.36344                  23740631.0594
  -8075565.37944  -6292635.24544  23584216.1904   23584218.4974
 -15775306.07244 -12292432.42144  22038815.3604   22038815.7574
 96  4  4  3 12  0.0000000  0  7G 6G16G20G 5G26G23G17
 -16427385.51644 -12800551.22644  20397811.7664   20397811.2224
  -3782012.08444  -2947013.99144  21850373.9054   21850374.2314
   1132585.74144    882534.86944  21741030.2604   21741030.9624
  16867705.27144  13143661.80344  23487938.1094   23487940.6674
  -1159849.19744                  23726092.0174
  -8175746.49544  -6370698.37944  23565153.3864   23565155.1374
 -15830217.72044 -12335220.69144  22028365.7154   22028366.8834
 96  4  4  3 12 30.0000000  0  7G 6G16G20G 5G26G23G17
 -16453661.64044 -12821026.11944  20392811.4474   20392810.8354
  -3714828.28744  -2894662.98344  21863158.9034   21863158.9544
   1213994.90044    945970.56544  21756521.4164   21756522.4724
  16974486.65444  13226868.05244  23508258.6024   23508259.1094
  -1236110.48744                  23711580.9284
  -8275749.08244  -6448622.38844  23546123.8854   23546124.7174
 -15884938.64544 -12377860.35544  22017952.9324   22017953.3204
 96  4  4  3 13  0.0000000  0  7G 6G16G20G 5G26G23G17
 -16479628.96444 -12841260.39744  20387870.2414   20387869.5634
  -3647272.19544  -2842021.87444  21876013.4364   21876013.9184
   1295731.81644   1009661.65644  21772075.4274   21772076.8234
  17081342.62544  13310132.42044  23528592.4024   23528594.3174
  -1312228.73044                  23697095.1204
  -8375591.47144  -6526421.59944  23527125.0274   23527125.4844
 -15939490.02844 -12420367.90544  22007572.2434   22007572.5524
 96  4  4  3 13 30.0000000  0  7G 6G16G20G 5G26G23G17
 -16505259.37244 -12861232.14044  20382992.9614   20382992.3494
  -3579328.65244  -2789078.85444  21888943.3244   21888942.9804
   1377824.39044   1073629.87944  21787697.3264   21787698.1294
  17188293.25744  13393470.57144  23548944.7464   23548946.5124
  -1388189.38244                  23682640.7654
  -8475252.19044  -6604079.22344  23508158.9514   23508159.9574
 -15993854.90844 -12462730.12144  21997226.5354   21997227.0844
 96  4  4  3 14  0.0000000  0  7G 6G16G20G 5G26G23G17
 -16530555.75444 -12880943.59844  20378179.1044   20378178.3414
  -3511013.09944  -2735845.94744  21901943.1534   21901943.2914
   1460267.85544   1137871.52744  21803385.7084   21803386.0324
  17295317.56944  13476866.11244  23569310.3184   23569312.0484
  -1464009.09844                  23668214.2224
  -8574746.78744  -6681607.40644  23489226.7544   23489227.5974
 -16048031.67244 -12504945.76744  21986917.1564   21986917.4844
 96  4  4  3 14 30.0000000  0  7G 6G16G20G 5G26G23G17
 -16555502.37544 -12900382.52144  20373431.9004   20373431.3654
  -3442309.09144  -2682310.36344  21915017.3404   21915017.7114
   1543073.35844   1202395.28644  21819143.4464   21819143.4244
  17402440.86944  13560338.79944  23589695.3674   23589695.5814
  -1539663.77044                  23653815.8904
  -8674045.08044  -6758982.63744  23470330.3224   23470330.4684
 -16101973.96044 -12546978.69544  21976652.3654   21976652.3534
 96  4  4  3 15  0.0000000  0  7G 6G16G20G 5G26G23G17
 -16580088.21544 -12919540.31744  20368753.5144   20368752.5664
  -3373198.33944  -2628457.83744  21928168.6204   21928168.3144
   1626240.98144   1267201.21944  21834970.0074   21834969.8714
  17509669.77044  13643893.77244  23610100.0254   23610102.0364
  -1615144.64644                  23639452.6664
  -8773154.87344  -6836210.97544  23451470.3154   23451472.7774
 -16155677.27944 -12588825.41544  21966433.1084   21966433.5284
 96  4  4  3 15 30.0000000  0  7G 6G16G20G 5G26G23G17
 -16604317.93644 -12938420.61244  20364142.4564   20364141.8674
  -3303671.80044  -2574281.30844  21941398.7464   21941399.2114
   1709757.40544   1332278.94344  21850862.6464   21850862.7784
  17616986.92744  13727517.53844  23630522.2514   23630523.8544
  -1690457.96144  -1317238.62944  23625120.6774
  -8872096.24844  -6913308.05844  23432641.5064   23432644.1884
 -16209164.26544 -12630503.56644  21956255.0494   21956255.3374
 96  4  4  3 16  0.0000000  0  8G 6G16G20G 5G22G26G23G17
 -16628179.94244 -12957014.37944  20359601.8304   20359600.9744
  -3233710.92944  -2519766.35044  21954711.9684   21954712.2354
   1793633.64344   1397637.04344  21866823.3764   21866823.7964
  17724404.33544  13811219.43044  23650963.0884   23650963.9784
        -0.04554                  24827255.9014
  -1765570.75544                  23610827.0584
  -8970852.76044  -6990261.12944  23413848.1754   23413849.1944
 -16262419.06844 -12672000.79844  21946121.2014   21946120.9354
 96  4  4  3 16 30.0000000  0  8G 6G16G20G 5G22G26G23G17
 -16651684.94244 -12975329.96444  20355128.9294   20355128.1824
  -3163314.49844  -2464911.98944  21968107.9824   21968107.8594
   1877863.24844   1463270.48944  21882851.9924   21882853.3874
  17831912.61044  13894992.09344  23671421.4124   23671424.2364
    -81000.45944                  24811840.3114
  -1840489.60244                  23596570.2964
  -9069430.23244  -7067074.65744  23395090.4874   23395091.7794
 -16315467.96344 -12713337.57744  21936025.7654   21936026.0494
 96  4  4  3 17  0.0000000  0  8G 6G16G20G 5G22G26G23G17
 -16674822.47444 -12993359.20444  20350725.8694   20350725.1194
  -3092475.30144  -2409712.61844  21981588.4584   21981588.1544
   1962465.24444   1529194.11244  21898950.6734   21898951.7374
  17939515.09344  13978838.18744  23691897.1584   23691899.3534
   -161653.01244   -125963.17544  24796493.5254
  -1915215.28644  -1492374.11144  23582350.7434   23582350.9434
  -9167822.91544  -7143744.20144  23376366.7884   23376367.4114
 -16368316.00044 -12754517.84444  21925968.7884   21925969.2124
 96  4  4  3 17 30.0000000  0  8G 6G16G20G 5G22G26G23G17
 -16697613.80144 -13011118.67844  20346389.1324   20346388.4844
  -3021223.05244  -2354191.38444  21995146.8364   21995146.7174
   2047422.08644   1595394.23344  21915117.9254   21915118.8974
  18047183.65144  14062735.74544  23712385.7624   23712386.3154
   -241976.99844                  24781206.3254
  -1989762.56944  -1550462.86344  23568163.7174
  -9266022.47844  -7220263.27144  23357680.0374   23357680.6664
 -16420964.83844 -12795542.89844  21915950.2724   21915950.3844
 96  4  4  3 18  0.0000000  0  8G 6G16G20G 5G22G26G23G17
 -16720058.30644 -13028607.90344  20342117.7344   20342117.0254
  -2949576.88544  -2298363.20544  22008780.9384   22008780.6324
   2132724.20244   1661863.40044  21931349.8284   21931350.7514
  18154913.81544  14146681.33044  23732886.1484   23732887.1574
   -321968.93844                  24765985.7504
  -2064145.39744  -1608423.47544  23554010.4424   23554003.9664
  -9364013.13444  -7296619.57344  23339031.8004   23339034.4284
 -16473403.17644 -12836403.91844  21905971.5744   21905972.2624
 96  4  4  3 18 30.0000000  0  8G 6G16G20G 5G22G26G23G17
 -16742130.02244 -13045806.63744  20337917.8544   20337916.9664
  -2877524.68944  -2242218.63644  22022492.5424   22022492.5764
   2218385.85044   1728612.71644  21947650.9894   21947651.7964
  18262731.38244  14230694.97744  23753402.6524   23753402.6644
   -401607.33144                  24750829.6894
  -2138341.79944  -1666238.82744  23539891.2914   23539891.8744
  -9461756.90144  -7372783.46944  23320432.2044   23320433.2464
 -16525593.25344 -12877071.49644  21896040.3394   21896040.6434
 96  4  4  3 19  0.0000000  0  8G 6G16G20G 5G22G26G23G17
 -16763833.41844 -13062718.37044  20333787.8004   20333787.1564
  -2805083.21644  -2185770.75044  22036277.1494   22036277.6244
   2304387.51244   1795626.99044  21964016.5344   21964017.0114
  18370633.94644  14314774.91744  23773936.2024   23773938.1134
   -480912.15444   -374736.29444  24735738.8974
  -2212335.06144  -1723895.89244  23525811.0914   23525813.7614
  -9559247.58144  -7448750.18044  23301880.3034   23301882.5624
 -16577525.13044 -12917537.87844  21886158.2224   21886158.2384
 96  4  4  3 19 30.0000000  0  8G 6G16G20G 5G22G26G23G17
 -16785180.45444 -13079352.42344  20329725.4134   20329724.7844
  -2732272.27344  -2129034.94644  22050132.3884   22050132.5104
   2390698.82944   1862882.55544  21980441.4764   21980441.7574
  18478604.17844  14398907.54444  23794482.9794   23794484.0314
   -559913.19344   -436295.62944  24720702.8734
  -2286129.27144  -1781397.83444  23511766.8824   23511768.3074
  -9656500.55944  -7524531.66244  23283372.4914   23283373.5414
 -16629215.28244 -12957815.89644  21876321.5254   21876322.0244
 96  4  4  3 20  0.0000000  0  8G 6G16G20G 5G22G26G23G17
 -16806151.23844 -13095693.29044  20325734.9884   20325734.3424
  -2659075.97244  -2071998.85744  22064061.6824   22064062.0044
   2477331.25544   1930388.33344  21996926.7294   21996927.1694
  18586659.68644  14483106.63644  23815045.6224   23815046.4314
   -638598.77144   -497609.09344  24705728.4174   24705726.3394
  -2359708.21544  -1838732.04244  23497766.5664   23497763.4914
  -9753528.18744  -7600137.53544  23264909.8784   23264911.7554
 -16680667.32944 -12997908.38344  21866530.6744   21866530.9914
 96  4  4  3 20 30.0000000  0  8G 6G16G20G 5G22G26G23G17
 -16826792.71744 -13111777.56144  20321806.8164   20321806.2454
  -2585540.79944  -2014698.72944  22078054.7624   22078055.0894
   2564244.11544   1998112.62644  22013466.4504   22013466.5244
  18694752.85644  14567335.07544  23835613.8754   23835615.4914
   -717020.95844                  24690803.7864
  -2433105.50044  -1895924.64344  23483799.0994   23483802.0244
  -9850388.51844  -7675613.06244  23246478.2954   23246480.3654
 -16731936.70944 -13037858.53344  21856774.1304   21856774.5994
 96  4  4  3 21  0.0000000  0  8G 6G16G20G 5G22G26G23G17
 -16847104.59444 -13127604.99344  20317941.8114   20317941.0524
  -2511658.63944  -1957128.21844  22092114.2444   22092114.6384
   2651432.95244   2066051.97144  22030057.3024   22030057.7854
  18802878.92144  14651589.14644  23856190.2094   23856191.6544
   -795168.95544                  24675933.3534
  -2506326.85844  -1952980.25044  23469866.1484   23469864.0134
  -9947092.48844  -7750966.74444  23228075.9344   23228076.8104
 -16783039.33044 -13077678.74344  21847049.6264   21847049.8934
 96  4  4  3 21 30.0000000  0  8G 6G16G20G 5G22G26G23G17
 -16867038.78644 -13143138.13244  20314148.3884   20314147.7844
  -2437385.41344  -1899252.98744  22106247.6034   22106247.6924
   2738941.21844   2134240.22244  22046709.2184   22046710.3274
  18911057.25644  14735883.92644  23876775.2604   23876777.5674
   -872986.33744                  24661124.7854
  -2579345.39844  -2009877.76744  23455971.2494   23455969.8514
 -10043600.47544  -7826167.73744  23209711.6734   23209712.3114
 -16833941.84444 -13117343.02544  21837363.4574   21837363.5774
 96  4  4  3 22  0.0000000  0  8G 6G16G20G 5G22G26G23G17
 -16886607.96644 -13158386.84044  20310424.4914   20310423.9204
  -2362741.41044  -1841088.82544  22120451.9784   22120452.1104
   2826754.16944   2202665.87644  22063419.8454   22063421.1264
  19019254.04444  14820193.11944  23897364.7674   23897365.8174
   -950477.81644                  24646380.0894
  -2652179.31344  -2066631.42144  23442110.6414   23442111.2374
 -10139916.50344  -7901219.12944  23191382.4724   23191383.8004
 -16884667.67844 -13156869.62944  21827710.5444   21827710.4514
 96  4  4  3 22 30.0000000  0  7G 6G16G20G 5G26G23G17
 -16905808.35644 -13173348.18144  20306770.8144   20306770.1574
  -2287722.65044  -1782632.63844  22134727.6364   22134727.9874
   2914863.27544   2271322.30744  22080186.2384   22080187.1704
  19127471.29144  14904518.23844  23917958.0154   23917960.2914
  -2724815.84244  -2123231.28644  23428287.6654   23428285.5244
 -10236012.92344  -7976099.40044  23173096.1704   23173097.1684
 -16935204.88444 -13196249.25144  21818093.7544   21818093.9744
 96  4  4  3 23  0.0000000  0  7G 6G16G20G 5G26G23G17
 -16924628.60044 -13188013.30444  20303189.4964   20303188.6624
  -2212329.97844  -1723885.10744  22149074.6354   22149075.0954
   3003259.06344   2340202.12544  22097007.5164   22097008.5834
  19235703.00044  14988854.63444  23938552.7234   23938553.6404
  -2797240.68844  -2179666.18144  23414506.7904   23414506.1794
 -10331868.17844  -8050791.78044  23154856.0374   23154856.3964
 -16985540.50844 -13235471.79744  21808515.1744   21808515.8684
 96  4  4  3 23 30.0000000  0  8G 6G16G20G 5G22G26G23G17
 -16943031.39044 -13202353.13944  20299687.2164   20299686.8154
  -2136546.19944  -1664832.82544  22163495.7064   22163496.0604
   3091976.19144   2409332.34144  22113890.1424   22113890.6194
  19343973.14844  15073220.98044  23959156.5784   23959158.5884
        -0.41954                  24602549.0624
  -2869412.41144  -2235903.86044  23400772.5434   23400772.1604
 -10427447.49244  -8125269.10944  23136668.0094   23136668.7874
 -17035642.71744 -13274512.46144  21798981.0544   21798981.7184
 96  4  4  3 24  0.0000000  0  8G 6G16G20G 5G22G26G23G17
 -16961045.71444 -13216390.27244  20296259.6134   20296259.0054
  -2060416.06744  -1605510.64244  22177982.5024   22177982.6494
   3180980.30044   2478686.18844  22130826.8204   22130827.5914
  19452272.24344  15157609.87244  23979765.3914   23979766.8614
    -76017.63844                  24588083.2924
  -2941349.62944  -2291958.78644  23387082.8954   23387083.7254
 -10522788.96144  -8199561.10644  23118524.7304   23118525.5774
 -17085537.78744 -13313391.71944  21789485.9664   21789486.3034
 96  4  4  3 24 30.0000000  0  8G 6G16G20G 5G22G26G23G17
 -16978670.26044 -13230123.68644  20292905.6114   20292905.0334
  -1983935.68044  -1545915.54144  22192536.6234   22192536.7964
   3270265.34044   2548258.93944  22147817.6414   22147818.2574
  19560618.75144  15242035.74744  24000383.8404   24000385.8674
   -151652.50544   -118170.93044  24573690.0604
  -3013034.95144  -2347817.43644  23373442.3264   23373441.0404
 -10617898.52944  -8273672.41644  23100425.7894   23100427.0174
 -17135205.06644 -13352093.47944  21780034.6374   21780035.1484
 96  4  4  3 25  0.0000000  0  8G 6G16G20G 5G22G26G23G17
 -16995891.84844 -13243543.10144  20289628.4964   20289627.9614
  -1907101.10744  -1486044.45044  22207157.0634   22207157.4824
   3359861.38044   2618074.01744  22164866.6034   22164867.5664
  19669015.51644  15326500.72344  24021010.7344   24021009.1654
   -226894.29344                  24559374.5774
  -3084459.05244  -2403472.55244  23359850.0084   23359850.2644
 -10712766.73244  -8347595.63544  23082371.8784   23082374.1944
 -17184628.05644 -13390604.88044  21770629.8624   21770630.2654
 96  4  4  3 25 30.0000000  0  7G 6G16G20G 5G26G23G17
 -17012704.07544 -13256643.53544  20286429.3464   20286428.7784
  -1829894.35444  -1425883.34444  22221849.1684   22221849.1704
   3449793.93544   2688151.32644  22181980.3334   22181981.4574
  19777487.10944  15411024.05644  24041651.2304
  -3155614.33544  -2458918.16644  23346310.4454   23346312.3574
 -10807384.57944  -8421323.77944  23064367.1994   23064368.5694
 -17233797.18644 -13428918.47344  21761273.3794   21761273.9794
 96  4  4  3 26  0.0000000  0  7G 6G16G20G 5G26G23G17
 -17029137.44744 -13269448.76344  20283301.9954   20283301.3184
  -1752321.94244  -1365437.30844  22236610.9554   22236611.3014
   3540039.78844   2758472.75944  22199153.7364   22199155.1094
  19886019.44344  15495594.69144  24062303.5644
  -3226508.97644  -2514160.72144  23332820.1684   23332819.1134
 -10901764.15044  -8494866.24644  23046407.5834   23046409.0894
 -17282720.49744 -13467040.52344  21751963.8554   21751964.3674
 96  4  4  3 26 30.0000000  0  7G 6G16G20G 5G26G23G17
 -17045183.86344 -13281952.46644  20280248.5744   20280247.9704
  -1674371.33244  -1304696.57644  22251444.4444   22251444.7524
   3630613.33944   2829049.53844  22216389.0754   22216389.7224
  19994602.34044                  24082968.0644
  -3297132.28444  -2569191.83844  23319379.8074   23319380.2334
 -10995891.40344  -8568212.11244  23028495.1594   23028496.3424
 -17331397.55744 -13504970.67944  21742700.9484   21742700.9684
 96  4  4  3 27  0.0000000  0  8G 6G16G20G 5G22G26G23G17
 -17060870.94744 -13294176.16644  20277263.4074   20277262.8354
  -1596068.02744  -1243681.01344  22266344.9744   22266345.1864
   3721501.26344   2899871.28144  22233684.5864   22233685.0954
  20103199.41944                  24103632.6214
        -0.33954                  24502817.8114
  -3367512.42944  -2624033.46244  23305986.7614   23305986.8294
 -11089794.86844  -8641383.60044  23010626.6244   23010626.6244
 -17379877.70044 -13542747.39944  21733475.3424   21733475.4894
 96  4  4  3 27 30.0000000  0  8G 6G16G20G 5G22G26G23G17
 -17076230.43144 -13306144.59444  20274340.5184   20274340.0124
  -1517435.77044  -1182409.11644  22281308.1114   22281308.4484
   3812661.32644   2970905.09444  22251032.3334   22251033.1124
  20211790.70944                  24124296.8004
    -73472.11144    -57250.96844  24488833.7184
  -3437671.51844  -2678702.84444  23292636.4214   23292637.0964
 -11183513.29944  -8714410.89644  22992792.8854   22992793.3894
 -17428193.47944 -13580396.04044  21724280.8924   21724281.2084
 96  4  4  3 28  0.0000000  0  8G 6G16G20G 5G22G26G23G17
 -17091230.74544 -13317833.15244  20271486.1714   20271485.5814
  -1438468.96544  -1120876.55244  22296335.1344   22296335.9844
   3904096.71544   3042153.43644  22268431.4304   22268432.0874
  20320384.27544                  24144961.5464
   -146609.60544   -114241.17544  24474917.0234
  -3507597.96844  -2733190.94244  23279329.4254   23279328.9374
 -11277024.60444  -8787276.80444  22974998.6974   22974998.8244
 -17476334.54844 -13617908.54844  21715119.7904   21715120.2974
 96  4  4  3 28 30.0000000  0  8G 6G16G20G 5G22G26G23G17
 -17105843.37044 -13329219.60944  20268705.4814   20268704.9094
  -1359166.98644  -1059082.80844  22311425.9574   22311426.4444
   3995815.30144   3113622.45544  22285884.7664   22285885.3584
  20428981.17144                  24165625.4964
   -219396.13144                  24461065.6744
  -3577298.64644  -2787503.13044  23266066.1014   23266066.9594
 -11370312.98044  -8859969.00044  22957246.9754   22957247.5914
 -17524300.24044 -13655284.39944  21705992.1554   21705992.6704
 96  4  4  3 29  0.0000000  0  8G 6G16G20G 5G22G26G23G17
 -17120080.10244 -13340313.16744  20265996.3174   20265995.6914
  -1279527.05644   -997025.71244  22326580.5314   22326580.4604
   4087787.81644   3185289.34044  22303386.6634   22303387.1694
  20537573.75444                  24186292.8424
   -291830.10144                  24447281.4414
  -3646792.01844  -2841653.75844  23252841.7964   23252842.2404
 -11463367.73844  -8932479.15844  22939538.5464   22939538.6994
 -17572082.16344 -13692517.04944  21696899.8534   21696899.7944
 96  4  4  3 29 30.0000000  0  8G 6G16G20G 5G22G26G23G17
 -17133895.22744 -13351078.20244  20263367.2014   20263366.7434
  -1199530.78344   -934690.94744  22341803.3114   22341804.0574
   4180020.31544   3257158.80744  22320938.0424   22320939.0444
  20646186.62944                  24206961.6414
   -363890.67344   -283551.14344  24433567.6544
  -3716049.49744  -2895620.60144  23239662.1874   23239661.9634
 -11556129.84844  -9004761.28044  22921886.5794   22921887.5174
 -17619634.86044 -13729571.08144  21687851.1744   21687850.9724
 96  4  4  3 30  0.0000000  0  7G 6G16G20G22G26G23G17
 -17147287.04044 -13361513.37944  20260819.0864   20260818.4314
  -1119193.58644   -872090.54344  22357091.4304   22357091.8934
   4272494.16344   3329216.34244  22338535.6244   22338536.1974
   -435589.58844                  24419922.0244
  -3785076.40644  -2949407.76344  23226527.1654   23226527.4494
 -11648590.66644  -9076808.62544  22904290.6544   22904291.6854
 -17666970.24644 -13766455.78844  21678842.9544   21678843.4324
 96  4  4  3 30 30.0000000  0  7G 6G16G20G22G26G23G17
 -17160275.50844 -13371634.26444  20258347.4694   20258346.8624
  -1038520.45044   -809228.36444  22372443.1384   22372443.6534
   4365195.61944   3401451.22344  22356175.5864   22356176.3644
   -506927.71844                  24406348.7664
  -3853857.36544  -3003003.27944  23213439.1764   23213438.5764
 -11740774.03944  -9148639.78044  22886749.0224   22886749.6974
 -17714090.70844 -13803173.01244  21669876.5654   21669876.7624
 96  4  4  3 31  0.0000000  0  7G 6G16G20G22G26G23G17
 -17172879.65644 -13381455.67444  20255948.9294   20255948.3024
   -957529.02644   -746118.16344  22387854.9964   22387855.5434
   4458106.61044   3473849.39044  22373856.8614   22373856.8924
   -577901.95044                  24392841.3584
  -3922387.04044  -3056402.98044  23200397.7894   23200397.3624
 -11832696.75444  -9220267.83644  22869256.0834   22869258.2944
 -17761000.07844 -13839725.75144  21660950.0864   21660950.0604
 96  4  4  3 31 30.0000000  0  7G 6G16G20G22G26G23G17
 -17185077.14644 -13390960.21544  20253627.8434   20253627.1784
   -876220.28544   -682760.70144  22403327.5424   22403328.0724
   4551255.08144   3546432.61244  22391581.6454   22391582.0464
   -648492.61544   -505318.86444  24379409.6274
  -3990632.15244  -3109580.96544  23187411.4454   23187411.6924
 -11924365.51844  -9291697.98644  22851812.1004   22851814.1324
 -17807694.94744 -13876111.34344  21652064.2404   21652064.4214
 96  4  4  3 32  0.0000000  0  7G 6G16G20G22G26G23G17
 -17196866.90644 -13400147.04344  20251384.1624   20251383.6674
   -794572.48344   -619139.04044  22418864.0634   22418864.1984
   4644664.75144   3619219.36744  22409357.0424   22409358.4574
   -718683.60844   -560013.10944  24366053.6194   24366056.9904
  -4058588.44044  -3162533.87744  23174479.1954   23174478.9004
 -12015798.38044  -9362944.32844  22834414.3734   22834414.9734
 -17854165.11744 -13912321.84744  21643220.9674   21643221.3204
 96  4  4  3 32 30.0000000  0  7G 6G16G20G22G26G23G17
 -17208280.53444 -13409040.77744  20249212.2054   20249211.7484
   -712611.42144   -555273.28844  22434461.1854   22434461.7704
   4738320.48944   3692197.84544  22427178.6924   22427180.2064
   -788503.73344   -614418.37744  24352765.9074   24352769.0764
  -4126283.45044  -3215283.19644  23161597.2904   23161596.8654
 -12107036.45844  -9434038.91544  22817052.3844   22817052.1474
 -17900432.88744 -13948374.64344  21634416.7454   21634417.2154
 96  4  4  3 33  0.0000000  0  7G 6G16G20G22G26G23G17
 -17219312.57544 -13417637.17644  20247113.0734   20247112.4854
   -630341.23644   -491166.66444  22450117.4184   22450116.8564
   4832229.39944   3765373.60344  22445048.9114   22445050.3654
   -857960.32844   -668540.35744  24339548.8124   24339546.0144
  -4193730.31744  -3267839.16544  23148762.3134   23148763.3664
 -12198067.74244  -9504972.34744  22799730.1114   22799730.8244
 -17946508.06744 -13984277.36844  21625648.8154   21625649.1314
 96  4  4  3 33 30.0000000  0  7G 6G16G20G22G26G23G17
 -17229917.58844 -13425900.82544  20245094.9894   20245094.5344
   -547720.52744   -426786.88244  22465838.7464   22465838.5714
   4926436.17144   3838781.46544  22462975.9944   22462977.1224
   -927018.45844   -722351.90544  24326407.1084   24326410.8264
  -4260875.63844  -3320160.16944  23135985.3854   23135985.9194
 -12288839.77344  -9575703.77344  22782456.5004   22782456.9554
 -17992353.39244 -14020000.98044  21616924.7264   21616925.0494
 96  4  4  3 34  0.0000000  0  7G 6G16G20G22G26G23G17
 -17240106.75644 -13433840.43744  20243156.0484   20243155.5254
   -464760.62944   -362142.80744  22481625.6194   22481626.0724
   5020914.84844   3912401.20344  22480954.9664   22480956.3284
   -995683.37444   -775856.98544  24313340.1724
  -4327716.60144  -3372243.99544  23123266.4154   23123266.7884
 -12379356.83744  -9646236.52344  22765230.6334   22765231.4364
 -18037984.02844 -14055557.30544  21608241.1084   21608241.7164
 96  4  4  3 34 30.0000000  0  7G 6G16G20G22G26G23G17
 -17249896.30244 -13441468.65744  20241292.9764   20241292.2804
   -381499.49644   -297264.00544  22497469.8544   22497470.5344
   5115626.75544   3986202.68644  22498978.2664   22498979.0944
  -1063953.42544   -829054.45544  24300348.3814
  -4394247.83944  -3424086.48544  23110605.4784   23110605.9354
 -12469613.88744  -9716566.64944  22748055.1194   22748055.7114
 -18083424.73044 -14090965.62944  21599594.3224   21599595.0974
 96  4  4  3 35  0.0000000  0  7G 6G16G20G22G26G23G17
 -17259302.77444 -13448798.37544  20239503.2614   20239502.6314
   -297964.34544   -232171.68744  22513366.3284   22513366.6054
   5210528.39144   4060152.00644  22517037.1864   22517037.7324
  -1131836.25744   -881950.16444  24287430.4584   24287431.6644
  -4460487.98444  -3475702.13944  23098000.3614   23098000.6944
 -12559613.48944  -9786696.17344  22730929.0404   22730930.2304
 -18128700.65944 -14126245.55744  21590978.5354   21590978.9784
 96  4  4  3 35 30.0000000  0  7G 6G16G20G22G26G23G17
 -17268279.54544 -13455793.25844  20237794.9104   20237794.3194
   -214125.09544   -166842.40744  22529320.5694   22529320.8504
   5305639.58544   4134264.61744  22535136.4324   22535137.0944
  -1199290.15544   -934511.63244  24274593.4714
  -4526397.31444  -3527060.02144  23085458.2584   23085457.9944
 -12649316.27644  -9856594.41444  22713859.4384   22713860.7874
 -18173776.01444 -14161369.19344  21582401.0414   21582401.3754
 96  4  4  3 36  0.0000000  0  7G 6G16G20G22G26G23G17
 -17276813.62944 -13462443.19744  20236170.9464   20236170.3654
   -129983.68644   -101277.67944  22545331.4104   22545332.2204
   5400959.79244   4208540.09244  22553274.9624   22553276.1054
  -1266304.79644   -986730.79644  24261840.9654   24261843.7894
  -4591979.74944  -3578163.19544  23072977.8524   23072977.9204
 -12738717.94244  -9926258.00944  22696846.7264   22696847.7874
 -18218649.60644 -14196335.61144  21573861.9964   21573862.0934
 96  4  4  3 36 30.0000000  0  7G 6G16G20G22G26G23G17
 -17284924.64644 -13468763.47544  20234627.4734   20234626.7904
    -45570.45444    -35501.14344  22561395.1294   22561395.4284
   5496481.03944   4282972.21644  22571452.5344   22571453.6324
  -1332920.52944  -1038639.12244  24249165.2854
  -4657280.89344  -3629047.17644  23060551.3424   23060551.4814
 -12827830.61744  -9995696.43444  22679889.2854   22679889.4824
 -18263342.78344 -14231161.45044  21565357.0104   21565357.2574
 96  4  4  3 37  0.0000000  0  7G 6G16G20G22G26G23G17
 -17292573.72644 -13474723.79944  20233171.8084   20233171.2334
     39157.51544     30520.65444  22577518.5334   22577518.1824
   5592254.89744   4357601.17144  22589677.2914   22589678.0704
  -1399116.40444                  24236568.8794
  -4722265.57444  -3679684.55744  23048186.2674   23048186.6214
 -12916624.76544 -10064886.65444  22662992.4234   22662992.7394
 -18307823.61244 -14265821.82744  21556892.5734   21556893.0804
 96  4  4  3 37 30.0000000  0  7G17G 6G16G20G22G26G23
 -18352132.74544 -14300348.41644  21548460.9664   21548461.2794
 -17299821.04444 -13480371.06144  20231792.7144   20231792.1594
    124155.97944     96753.22344  22593693.3994   22593693.0894
   5688244.65944   4432398.36844  22607943.9684   22607945.1724
  -1464936.47144  -1141508.73544  24224045.0714
  -4786968.83544  -3730102.64244  23035872.9834   23035873.5304
 -13005147.45844 -10133865.34544  22646147.1874   22646147.7894
 96  4  4  3 38  0.0000000  0  7G17G 6G16G20G22G26G23
 -18396210.44944 -14334694.66844  21540073.0374   21540073.6294
 -17306643.87244 -13485687.55044  20230494.4174   20230493.8224
    209466.73544    163229.13444  22609927.2914   22609927.2574
   5784503.58044   4507405.30844  22626261.3814   22626261.9184
  -1530341.00444  -1192473.25844  24211598.3894   24211597.9274
  -4851334.88044  -3780257.97444  23023624.2144   23023623.7174
 -13093357.25544 -10202600.22244  22629360.6714   22629361.0984
 96  4  4  3 38 30.0000000  0  7G17G 6G16G20G22G26G23
 -18440060.81344 -14368863.76844  21531728.4254   21531728.9284
 -17313059.56444 -13490686.79444  20229273.4904   20229272.8744
    295087.46444    229946.57644  22626220.0274   22626220.4394
   5881018.86944   4582612.02444  22644627.2024   22644627.8124
  -1595346.68044  -1243126.98344  24199228.4254   24199229.8494
  -4915369.61844  -3830155.14344  23011439.3724   23011439.9324
 -13181277.85644 -10271109.74944  22612629.8624   22612630.6734
 96  4  4  3 39  0.0000000  0  7G17G 6G16G20G22G26G23
 -18483727.68044 -14402889.88744  21523419.2024   21523419.6544
 -17319128.22244 -13495415.62044  20228118.6264   20228118.1094
    380973.50644    296870.76244  22642563.7844   22642564.5314
   5977707.67844   4657953.94044  22663026.8734   22663027.0184
  -1659990.05944  -1293498.42344  24186925.9474   24186927.0294
  -4979105.90344  -3879819.74144  22999310.5574   22999310.8654
 -13268966.90344 -10339438.84644  22595942.9064   22595943.6014
 96  4  4  3 39 30.0000000  0  7G17G 6G16G20G22G26G23
 -18527166.79744 -14436738.53944  21515153.0044   21515153.0604
 -17324816.96944 -13499848.41444  20227036.3154   20227035.6544
    467143.14544    364015.91444  22658960.9754   22658961.3024
   6074581.08244   4733439.70644  22681461.1824   22681461.9624
  -1724237.44144  -1343561.28744  24174699.7924   24174700.1654
  -5042524.25044  -3929236.61944  22987241.9554   22987242.5904
 -13356399.91044 -10407568.43644  22579304.5004   22579306.0934
 96  4  4  3 40  0.0000000  0  7G 6G16G20G22G26G23G17
 -17330109.60544 -13503972.55044  20226028.9864   20226028.3604
    553579.81144    431369.16544  22675409.5824   22675410.0374
   6171622.11644   4809056.06844  22699926.5554   22699928.1254
  -1788101.08444  -1393325.18744  24162548.1144   24162547.4164
  -5105646.84344  -3978423.02344  22975230.3894   22975229.6534
 -13443591.28944 -10475509.73144  22562713.0424   22562714.3904
 -18570397.92544 -14470425.11844  21506926.3164   21506926.7254
 96  4  4  3 40 30.0000000  0  7G 6G16G20G22G26G23G17
 -17334973.19044 -13507762.35644  20225103.5284   20225102.8414
    640302.14744    498945.01244  22691912.6024   22691912.6894
   6268828.82144   4884801.53344  22718425.0844   22718426.4654
  -1851547.07744  -1442763.58044  24150474.4714   24150473.6584
  -5168464.89744  -4027372.12544  22963276.6104   22963276.8174
 -13530506.06244 -10543235.49944  22546173.9124   22546174.4164
 -18613416.32544 -14503945.93544  21498740.1664   21498740.4154
 96  4  4  3 41  0.0000000  0  7G 6G16G20G22G26G23G17
 -17339399.69544 -13511211.58344  20224261.0164   20224260.5294
    727307.60444    566741.47444  22708468.7184   22708469.1304
   6366208.68844   4960681.93544  22736955.9544   22736956.7654
  -1914552.81244  -1491858.93244  24138484.0334   24138484.0244
  -5230969.66344  -4076077.11644  22951382.0054   22951382.2184
 -13617109.29844 -10610718.50944  22529693.7944   22529694.7524
 -18656219.40244 -14537298.96944  21490595.1524   21490595.3754
 96  4  4  3 41 30.0000000  0  7G 6G16G20G22G26G23G17
 -17343383.36844 -13514315.74544  20223503.1894   20223502.4974
    814573.79944    634741.10044  22725075.0594   22725076.4074
   6463781.65044   5036712.80144  22755523.5744   22755523.7884
  -1977124.50444  -1540616.11944  24126578.4464   24126578.1404
  -5293172.07944  -4124546.50444  22939545.2544   22939545.3174
 -13703407.09644 -10677963.51644  22513272.0964   22513272.8074
 -18698824.30044 -14570497.57844  21482487.6784   21482488.1314
 96  4  4  3 42  0.0000000  0  7G 6G16G20G22G26G23G17
 -17346931.09044 -13517080.20544  20222828.1244   20222827.5424
    902099.22444    702942.72444  22741730.7754   22741731.6884
   6561553.97044   5112899.01544  22774129.2974   22774129.8324
  -2039277.54744  -1589047.07344  24114750.6594   24114752.4414
  -5355056.28944  -4172767.93544  22927769.3584   22927769.1294
 -13789401.49344 -10744972.10944  22496908.2774   22496908.8464
 -18741247.85544 -14603554.88044  21474414.4914   21474415.3554
 96  4  4  3 42 30.0000000  0  7G 6G16G20G22G26G23G17
 -17350037.70244 -13519500.94444  20222236.8244   20222236.2404
    989891.74444    771352.48344  22758437.1914   22758436.9764
   6659541.86544   5189253.20944  22792775.0774   22792775.7234
  -2101002.84644  -1637144.68744  24103004.6744   24103006.8024
  -5416585.46644  -4220712.70744  22916060.8314   22916060.8414
 -13875081.94344 -10811736.07444  22480603.8314   22480604.2894
 -18783476.51644 -14636460.32044  21466378.6264   21466379.0794
 96  4  4  3 43  0.0000000  0  7G 6G16G20G22G26G23G17
 -17352692.32644 -13521569.48944  20221731.7704   20221731.2204
   1077946.02944    839966.19844  22775193.6924   22775193.8554
   6757757.20144   5265784.62644  22811465.1484   22811466.6304
  -2162309.19844  -1684915.86344  24091338.8354   24091337.9354
  -5477752.77644  -4268375.51844  22904420.9054   22904421.2574
 -13960468.72044 -10878271.19844  22464355.3874   22464355.7474
 -18825507.54544 -14669211.75844  21458380.2924   21458380.7594
 96  4  4  3 43 30.0000000  0  7G 6G16G20G22G26G23G17
 -17354890.33844 -13523282.23044  20221313.4804   20221312.8984
   1166268.88744    908789.18544  22792001.0484   22792001.1244
   6856195.24744   5342489.58244  22830196.9744   22830198.4894
  -2223208.75644  -1732370.05844  24079750.5664   24079750.2174
  -5538552.51444  -4315751.88744  22892850.6414   22892850.9694
 -14045576.58244 -10944588.99044  22448159.2824   22448159.6704
 -18867341.69444 -14701809.78244  21450419.3614   21450420.2604
 96  4  4  3 44  0.0000000  0  7G 6G16G20G22G26G23G17
 -17356655.11444 -13524657.37944  20220977.5374   20220976.9074
   1254852.45144    977815.32044  22808857.1634   22808857.5544
   6954813.27244   5419334.78544  22848963.5784   22848963.8264
  -2283713.30744  -1779516.90144  24068236.0184   24068234.5224
  -5599004.59444  -4362857.38444  22881347.8484   22881347.6854
 -14130412.11244 -11010694.57344  22432015.3274   22432016.1784
 -18908997.15344 -14734268.57244  21442492.3324   21442493.1354
 96  4  4  3 44 30.0000000  0  7G 6G16G20G22G26G23G17
 -17357985.40344 -13525693.96644  20220724.6784   20220724.0674
   1343691.93644   1047040.88444  22825762.8164   22825764.1694
   7053600.18644   5496311.60244  22867762.5584   22867763.0134
  -2343794.87944  -1826334.16944  24056803.2694   24056806.4194
  -5659121.36044  -4409701.57844  22869907.3524   22869907.6684
 -14214956.90844 -11076573.61344  22415926.7894   22415928.0224
 -18950464.08444 -14766580.46244  21434601.9614   21434602.1294
 96  4  4  3 45  0.0000000  0  7G 6G16G20G22G26G23G17
 -17358876.12944 -13526388.04044  20220555.0454   20220554.2934
   1432800.79344   1116476.35444  22842720.1844   22842720.2884
   7152556.88744   5573420.69944  22886592.8854   22886594.3344
  -2403429.05344  -1872802.39644  24045454.6454   24045456.5124
  -5718902.73044  -4456284.41044  22858531.1674   22858532.2804
 -14299191.89244 -11142211.22744  22399896.9634   22399898.7264
 -18991715.97944 -14798724.77844  21426752.0414   21426752.3674
 96  4  4  3 45 30.0000000  0  7G 6G16G20G22G26G23G17
 -17359322.52844 -13526735.88944  20220469.8914   20220469.2984
   1522189.44644   1186129.85044  22859730.2284   22859731.2434
   7251678.99844   5650658.69144  22905455.7074   22905456.5914
  -2462606.29044  -1918914.53244  24034193.6414   24034194.0464
  -5778320.07644  -4502583.60444  22847224.5074   22847225.8674
 -14383090.87144 -11207587.02444  22383931.3694   22383933.0574
 -19032737.96444 -14830689.94744  21418945.9894   21418946.3194
 96  4  4  3 46  0.0000000  0  7G 6G16G20G22G26G23G17
 -17359341.84344 -13526750.94344  20220466.3074   20220465.8164
   1611822.74244   1255973.96244  22876786.6434   22876787.0794
   7350934.60944   5728000.72644  22924343.1124   22924344.5684
  -2521335.13244  -1964677.27444  24023017.3554   24023016.6924
  -5837378.12244  -4548602.82744  22835985.8604   22835986.3494
 -14466665.00644 -11272709.69544  22368028.3614   22368029.6134
 -19073538.12644 -14862482.25944  21411181.8984   21411182.3404
 96  4  4  3 46 30.0000000  0  7G 6G16G20G22G26G23G17
 -17358932.09344 -13526431.65944  20220544.3724   20220543.8054
   1701697.72744   1326006.40444  22893889.2644   22893889.8004
   7450317.03344   5805441.56544  22943255.1964   22943256.7164
  -2579628.37744  -2010100.55844  24011923.9474   24011923.2574
  -5896068.48444  -4594335.53944  22824817.5594   22824818.0444
 -14549929.18444 -11337590.84644  22352184.0674   22352184.5614
 -19114115.71744 -14894101.14444  21403460.1994   21403460.4594
 96  4  4  3 47  0.0000000  0  7G 6G16G20G22G26G23G17
 -17358082.47744 -13525769.62544  20220705.9874   20220705.3754
   1791818.53244   1396230.39644  22911038.8514   22911038.2074
   7549829.83444   5882983.99444  22962191.5534   22962193.0624
  -2637498.07244  -2055193.81344  24000912.1354   24000912.9954
  -5954381.46444  -4639774.20544  22813721.1334   22813720.4754
 -14632893.80244 -11402238.58544  22336396.7044   22336396.7924
 -19154485.08144 -14925557.77444  21395778.2104   21395778.3814
 96  4  4  3 47 30.0000000  0  7G 6G16G20G22G26G23G17
 -17356779.82444 -13524754.57144  20220954.0294   20220953.3694
   1882182.27344   1466643.70644  22928234.3534   22928234.7284
   7649484.20544   5960636.73744  22981155.5064   22981157.0654
  -2694946.54244  -2099958.86244  23989980.2474   23989979.2664
  -6012306.19144  -4684910.31844  22802697.7434   22802697.4944
 -14715547.59844 -11466644.12344  22320668.5984   22320668.8244
 -19194662.34944 -14956864.72144  21388132.2424   21388132.7704
 96  4  4  3 48  0.0000000  0  7G 6G16G20G22G26G23G17
 -17355006.18644 -13523372.51644  20221291.5744   20221290.8904
   1972805.32744   1537259.05244  22945479.3164   22945479.6214
   7749315.03544   6038426.98444  23000152.8694   23000153.3664
  -2751929.78244  -2144361.38644  23979136.6274   23979137.2394
  -6069843.40344  -4729744.48544  22791749.9234   22791750.1964
 -14797878.17544 -11530797.80344  22305000.9544   22305001.4624
 -19234636.34044 -14988013.26944  21380525.5954   21380526.0224
 96  4  4  3 48 30.0000000  0  7G 6G16G20G22G26G23G17
 -17352773.43144 -13521632.70844  20221716.2144   20221715.8584
   2063679.98144   1608070.45744  22962772.5104   22962772.3934
   7849330.73644   6116361.28344  23019185.0384   23019185.9104
  -2808453.54544  -2188405.86844  23968380.4934   23968380.9614
  -6127022.57544  -4774299.65344  22780868.9744   22780867.7354
 -14879898.12544 -11594709.43044  22289393.3804   22289393.9904
 -19274426.10044 -15019018.26044  21372953.8244   21372954.2134
 96  4  4  3 49  0.0000000  0  7G 6G16G20G22G26G23G17
 -17350083.58044 -13519536.72744  20222228.1214   20222227.4084
   2154792.03744   1679066.87344  22980110.7054   22980110.1084
   7949540.73044   6194446.98044  23038254.2934   23038255.4354
  -2864510.66944  -2232086.74944  23957712.4064   23957713.0044
  -6183847.80144  -4818579.01444  22770055.6464   22770055.2554
 -14961603.21044 -11658375.71144  22273845.6124   22273846.0484
 -19314030.12344 -15049878.52344  21365417.2814   21365417.6974
 96  4  4  3 49 30.0000000  0  7G 6G16G20G22G26G23G17
 -17346953.85244 -13517097.98144  20222823.6114   20222823.0654
   2246130.37144   1750239.58544  22997491.6404   22997492.0344
   8049930.49444   6272672.76044  23057358.0254   23057359.1754
  -2920104.45144  -2275406.56644  23947133.1734   23947134.6334
  -6240312.81144  -4862577.69544  22759310.6414   22759310.8094
 -15042994.29944 -11721797.32444  22258356.8944   22258357.3214
 -19353438.66244 -15080586.45844  21357918.2834   21357918.7684
 96  4  4  3 50  0.0000000  0  7G 6G16G20G22G26G23G17
 -17343401.73044 -13514330.09644  20223499.6734   20223499.0764
   2337687.83144   1821583.05044  23014914.5414   23014914.7714
   8150477.98644   6351021.43944  23076490.6704   23076491.9814
  -2975239.50844  -2318368.94744  23936641.1734   23936642.9484
  -6296430.01844  -4906305.35544  22748631.2264   22748630.7924
 -15124080.96744 -11784981.71644  22242926.5944   22242927.3724
 -19392638.42244 -15111131.71044  21350458.9974   21350459.2444
 96  4  4  3 50 30.0000000  0  7G 6G16G20G22G26G23G17
 -17339429.86544 -13511235.14044  20224255.4984   20224254.9334
   2429465.32244   1893097.96744  23032378.4824   23032379.8744
   8251163.46544   6429477.63644  23095651.3044   23095652.4714
  -3029940.52744  -2360993.13044  23926233.4414   23926233.9274
  -6352185.74844  -4949751.35244  22738022.0494   22738022.5114
 -15204863.77744 -11847929.33844  22227553.8414   22227554.7514
 -19431635.22344 -15141518.81344  21343038.0884   21343038.4504
 96  4  4  3 51  0.0000000  0  7G 6G16G20G22G26G23G17
 -17335025.83444 -13507803.43244  20225093.5984   20225093.0954
   2521459.03444   1964781.35744  23049885.0014   23049885.8194
   8351967.68844   6508026.37244  23114833.4494   23114835.0884
  -3084206.96744  -2403278.67444  23915906.9874   23915909.2104
  -6407550.60644  -4992892.76244  22727486.3814   22727486.6804
 -15285332.50544 -11910632.21644  22212240.8214   22212241.9994
 -19470433.67544 -15171751.35944  21335655.0034   21335655.0814
 96  4  4  3 51 30.0000000  0  7G 6G16G20G22G26G23G17
 -17330192.10244 -13504036.89244  20226013.3214   20226012.6734
   2613676.40244   2036639.04344  23067433.2024   23067433.3124
   8452881.51244   6586660.51544  23134036.4914   23134036.7484
  -3138029.46344  -2445218.25744  23905663.6634   23905665.1104
  -6462527.00144  -5035731.48544  22717024.4284   22717024.5334
 -15365491.01244 -11973093.36544  22196987.0204   22196988.0794
 -19509036.18744 -15201831.22344  21328309.0994   21328309.1374
 96  4  4  3 52  0.0000000  0  7G 6G16G20G22G26G23G17
 -17324904.22844 -13499916.48044  20227019.5754   20227019.0314
   2706122.08344   2108674.63244  23085025.2464   23085025.2094
   8553911.75944   6665385.37644  23153262.3854   23153262.9264
  -3191389.55444  -2486797.53144  23895510.1564   23895510.9374
  -6517114.42344  -5078267.10844  22706636.6424   22706637.2194
 -15445330.51944 -12035305.94444  22181794.8424   22181795.4974
 -19547446.14144 -15231761.04444  21321000.0304   21321000.4154
 96  4  4  3 52 30.0000000  0  7G 6G16G20G22G26G23G17
 -17319159.51744 -13495440.08744  20228112.9824   20228112.2944
   2798766.95044   2180865.42144  23102654.5014   23102655.3914
   8655043.00344   6744188.93144  23172507.0374   23172508.4564
  -3244295.76544  -2528023.15044  23885442.1144   23885442.4794
  -6571312.91444  -5120499.66244  22696321.8244   22696321.7214
 -15524866.97244 -12097282.38144  22166660.1174   22166660.0494
 -19585697.09144 -15261566.96944  21313720.8624   21313721.4224
 96  4  4  3 53  0.0000000  0  7G 6G16G20G22G26G23G17
 -17312939.87944 -13490593.61744  20229296.3184   20229295.8124
   2891611.82344   2253212.05344  23120322.9764   23120323.3064
   8756293.42444   6823085.34044  23191774.1594   23191775.5704
  -3296726.31844  -2568878.08644  23875465.9604   23875465.8614
  -6625110.17144  -5162419.57544  22686085.0114   22686085.0984
 -15604071.91944 -12159000.50844  22151587.8224   22151588.1194
 -19623757.79344 -15291224.64244  21306478.1504   21306478.8314
 96  4  4  3 53 30.0000000  0  7G 6G16G20G22G26G23G17
 -17306263.14944 -13485390.97644  20230566.8574   20230566.3374
   2984649.25944   2325708.74544  23138027.5204   23138027.4514
   8857654.98044   6902068.37444  23211062.2604   23211062.9934
  -3348703.12744  -2609379.46544  23865575.0694   23865573.1134
  -6678525.71544  -5204042.05044  22675921.2754   22675921.0114
 -15682959.37944 -12220471.23444  22136575.2884   22136575.7174
 -19661627.71844 -15320733.66644  21299271.8694   21299272.1594
 96  4  4  3 54  0.0000000  0  7G 6G16G20G22G26G23G17
 -17299117.62944 -13479823.04444  20231926.7084   20231926.1244
   3077871.18344   2398349.19144  23155767.2244   23155767.5144
   8959125.16944   6981136.03444  23230371.7154   23230372.3544
  -3400238.63044  -2649536.97644  23855767.9304   23855765.2394
  -6731535.19644  -5245348.10744  22665833.7374   22665833.5844
 -15761505.27344 -12281675.80444  22121629.2574   22121629.4964
 -19699314.39344 -15350099.89144  21292100.5864   21292100.7744
 96  4  4  3 54 30.0000000  0  7G 6G16G20G22G26G23G17
 -17291514.31944 -13473898.39344  20233373.6534   20233373.1714
   3171287.77144   2471141.31644  23173543.5674   23173542.2014
   9060709.80944   7060292.90344  23249703.8444   23249704.0884
  -3451344.54844  -2689359.79744  23846042.6734   23846041.3494
  -6784121.93344  -5286324.76244  22655826.7914   22655826.7854
 -15839700.75444 -12342607.33344  22106748.9444   22106749.4424
 -19736802.02444 -15379311.02244  21284966.8764   21284967.1044
 96  4  4  3 55  0.0000000  0  7G 6G16G20G22G26G23G17
 -17283453.76044 -13467617.44444  20234907.4214   20234906.8364
   3264936.66844   2544114.47644  23191364.4094   23191364.1974
   9162421.49844   7139548.77044  23269058.9984   23269059.7864
  -3502012.57744  -2728841.36544  23836401.5144   23836400.9964
  -6836272.72944  -5326961.71644  22645902.8764   22645903.1954
 -15917528.25344 -12403252.11144  22091938.3564   22091939.0364
 -19774066.17244 -15408348.00744  21277875.6714   21277875.9964
 96  4  4  3 55 30.0000000  0  8G 6G16G20G21G22G26G23G17
 -17274926.35244 -13460972.71144  20236530.1204   20236529.4044
   3358830.96644   2617278.86444  23209231.4524   23209231.7904
   9264262.73444   7218905.56144  23288438.1474   23288438.3984
        -0.66254                  25596672.7654
  -3552228.35944  -2767970.54944  23826845.6454   23826843.8204
  -6887972.35644  -5367247.10844  22636064.6784   22636065.2114
 -15994988.47644 -12463610.70344  22077198.3914   22077198.9594
 -19811111.92944 -15437214.81144  21270825.8684   21270826.1014
 96  4  4  3 56  0.0000000  0  8G 6G16G20G21G22G26G23G17
 -17265970.99244 -13453994.51144  20238234.1444   20238233.6944
   3452924.34144   2690598.36744  23227136.3794   23227136.7574
   9366193.54044   7298332.16744  23307834.8614   23307835.0874
   -100251.34644                  25577594.8784
  -3602014.93344  -2806765.25044  23817371.1664   23817370.8754
  -6939257.97744  -5407209.90644  22626304.8864   22626304.8644
 -16072118.92344 -12523712.33144  22062520.5334   22062520.8484
 -19847975.00244 -15465939.26544  21263811.2194   21263811.3174
 96  4  4  3 56 30.0000000  0  7G 6G16G20G22G26G23G17
 -17256575.22644 -13446673.13944  20240022.0324   20240021.5514
   3547236.49344   2764088.32944  23245084.0204   23245085.1924
   9468232.53944   7377843.05744  23327251.8254   23327252.4624
  -3651335.45944  -2845196.84944  23807986.3034   23807986.6694
  -6990127.26144  -5446848.27444  22616625.3284   22616625.3304
 -16148919.82944 -12583557.16544  22047905.7284   22047906.3254
 -19884625.23144 -15494497.86944  21256836.8794   21256837.2094
 96  4  4  3 57  0.0000000  0  7G 6G16G20G22G26G23G17
 -17246718.95744 -13438992.94144  20241897.8824   20241897.3764
   3641753.39844   2837737.85444  23263070.5504   23263070.1584
   9570376.15644   7457435.47744  23346688.7924   23346689.2624
  -3700166.95444  -2883247.32944  23798694.5334   23798694.3194
  -7040584.01744  -5486165.20744  22607023.6894   22607023.0614
 -16225390.23444 -12643144.46844  22033354.0404   22033354.6434
 -19921073.32644 -15522898.96444  21249900.8384   21249900.9584
 96  4  4  3 57 30.0000000  0  7G 6G16G20G22G26G23G17
 -17236411.98344 -13430961.54344  20243859.3304   20243858.7554
   3736423.04744   2911506.42544  23281085.7854   23281084.5164
   9672601.27544   7537091.41044  23366142.4204   23366143.0624
  -3748528.41144  -2920931.59444  23789491.3264   23789489.0614
  -7090653.32344  -5525180.24044  22597495.7154   22597495.7024
 -16301553.08844 -12702492.12844  22018860.7064   22018861.3374
 -19957348.49344 -15551165.31144  21242997.8804   21242997.7774
 96  4  4  3 58  0.0000000  0  7G 6G16G20G22G26G23G17
 -17225631.08744 -13422560.84844  20245910.9274   20245910.1934
   3831259.27944   2985404.77644  23299131.5264   23299132.4724
   9774924.97344   7616824.15744  23385613.5314   23385615.2084
  -3796396.76144  -2958231.56244  23780381.6344   23780380.1144
  -7140319.12444  -5563880.84144  22588044.3564   22588044.4194
 -16377386.10644 -12761582.76844  22004430.1894   22004430.6834
 -19993429.59344 -15579280.43744  21236131.7754   21236131.7964
 96  4  4  3 58 30.0000000  0  8G 6G16G20G21G22G26G23G17
 -17214351.15044 -13413771.29444  20248057.2034   20248056.8284
   3926271.63544   3059440.36544  23317211.9294   23317213.0394
   9877340.77044   7696628.65344  23405102.6664   23405103.9964
        -1.01554        -0.96554  25482379.8424   25482381.6674
  -3843759.79744  -2995137.82144  23771368.1814   23771369.8394
  -7189570.34844  -5602258.40244  22578672.5054   22578672.0484
 -16452882.54844 -12820411.14544  21990063.6104   21990064.1894
 -20029319.53844 -15607246.61344  21229302.3074   21229302.5414
 96  4  4  3 59  0.0000000  0  8G 6G16G20G21G22G26G23G17
 -17202574.77544 -13404594.90044  20250298.3074   20250297.8584
   4021444.26244   3133600.84644  23335322.5644   23335324.2584
   9979833.72444   7776493.27344  23424606.0884   23424606.8984
    -99908.81544    -77851.10044  25463366.5914   25463369.7864
  -3890637.05844  -3031665.54344  23762447.8494   23762449.0204
  -7238403.34444  -5640310.06444  22569378.8604   22569378.9144
 -16528044.42044 -12878978.81744  21975760.2624   21975761.2914
 -20065023.24144 -15635067.67144  21222507.8834   21222508.2724
 96  4  4  3 59 30.0000000  0  8G 6G16G20G21G22G26G23G17
 -17190307.29744 -13395035.83144  20252632.4084   20252631.9934
   4116789.29944   3207895.65344  23353465.2484   23353466.6494
  10082407.36844   7856420.78144  23444125.8054   23444127.2824
   -199759.39644   -155656.66644  25444365.4214   25444363.3414
  -3937034.46744  -3067819.36444  23753616.8134   23753617.9354
  -7286808.47444  -5678028.33344  22560168.6924   22560168.8864
 -16602862.25244 -12937278.40444  21961522.8974   21961523.5714
 -20100516.81444 -15662724.98644  21215753.8344   21215754.1934
 96  4  4  4  0  0.0000000  0  8G 6G16G20G21G22G26G23G17
 -17177543.25944 -13385089.83444  20255061.6954   20255060.9234
   4212337.59844   3282348.87244  23371647.3544   23371647.7224
  10185069.58644   7936417.30844  23463661.4664   23463661.9124
   -299533.47744   -233402.64644  25425377.4874   25425375.7024
  -3982938.73144  -3103588.89444  23744882.6304   23744883.3274
  -7334770.47044  -5715401.29744  22551041.8634   22551041.7724
 -16677323.97244 -12995300.49744  21947353.3544   21947354.4774
 -20135779.74344 -15690202.58144  21209043.3894   21209043.7744
 96  4  4  4  0 30.0000000  0  8G 6G16G20G21G22G26G23G17
 -17164304.21044 -13374773.69944  20257581.1014   20257580.5434
   4308074.53644   3356949.08444  23389865.2844   23389866.8494
  10287813.48944   8016477.49144  23483213.3254   23483214.0594
   -399229.39344   -311087.72244  25406406.4054   25406403.2964
  -4028363.33244  -3138984.70144  23736238.5344   23736238.4984
  -7382293.44644  -5752432.17744  22541997.7144   22541997.4834
 -16751434.09644 -13053048.62244  21933251.0294   21933251.6214
 -20170824.96644 -15717510.53444  21202374.4304   21202375.0104
 96  4  4  4  1  0.0000000  0  8G 6G16G20G21G22G26G23G17
 -17150607.89244 -13364101.24944  20260187.3044   20260186.7064
   4404009.99544   3431703.97144  23408121.7854   23408122.4844
  10390662.06344   8096619.22344  23502785.6714   23502786.7984
   -498822.40144                  25387453.8824
  -4073314.16044  -3174011.30844  23727684.8264   23727685.1244
  -7429378.06244  -5789121.45844  22533038.2864   22533037.8624
 -16825178.66344 -13110511.89744  21919217.6664   21919218.4214
 -20205643.91644 -15744642.16644  21195748.4484   21195748.8814
 96  4  4  4  1 30.0000000  0  8G 6G16G20G21G22G26G23G17
 -17136453.40544 -13353071.78544  20262880.7754   20262880.2524
   4500156.78944   3506623.53844  23426418.1224   23426418.9194
  10493625.69044   8176850.61044  23522377.3544   23522378.4774
   -598289.09044   -466199.04844  25368523.0874
  -4117770.86744  -3208652.87044  23719224.6394   23719224.0864
  -7476018.52544  -5825464.64744  22524162.7234   22524163.1594
 -16898546.11644 -13167681.31944  21905256.8454   21905257.4484
 -20240238.09844 -15771598.65444  21189165.5194   21189165.6124
 96  4  4  4  2  0.0000000  0  8G 6G16G20G21G22G26G23G17
 -17121844.52544 -13341688.24844  20265660.7274   20265660.2524
   4596505.72544   3581700.61844  23444753.8924   23444753.7524
  10596698.71944   8257167.23144  23541992.3334   23541994.6154
   -697629.88844                  25349617.3624
  -4161717.60544  -3242897.04544  23710861.9274   23710862.4194
  -7522207.57844  -5861456.09244  22515373.0014   22515373.4354
 -16971539.41244 -13224559.18944  21891366.6294   21891366.8944
 -20274627.16344 -15798395.30244  21182621.7794   21182621.5804
 96  4  4  4  2 30.0000000  0  8G 6G16G20G21G22G26G23G17
 -17106791.48444 -13329958.61244  20268525.4104   20268524.5714
   4693028.92144   3656913.48944  23463120.9004   23463121.3694
  10699854.63644   8337548.46544  23561622.3734   23561623.2504
   -796867.43244                  25330731.8194
  -4205173.81844  -3276759.02444  23702593.2574   23702594.1214
  -7567951.42644  -5897100.63044  22506668.4084   22506668.5784
 -17044174.33944 -13281157.81144  21877544.6954   21877545.1004
 -20308839.28144 -15825054.07744  21176111.3044   21176111.5624
 96  4  4  4  3  0.0000000  0  8G 6G16G20G21G22G26G23G17
 -17091298.33344 -13317886.03444  20271473.3174   20271472.8494
   4789717.70644   3732255.39544  23481519.7084   23481519.7004
  10803073.20944   8417978.51444  23581263.7324   23581264.8214
   -896022.30544                  25311864.9314
  -4248149.56844  -3310246.62744  23694415.8544   23694413.9254
  -7613254.35644  -5932401.58644  22498048.0004   22498047.7224
 -17116462.96644 -13337486.58944  21863788.8184   21863789.0324
 -20342876.73244 -15851576.74944  21169634.5094   21169634.8234
 96  4  4  4  3 30.0000000  0  8G 6G16G20G21G22G26G23G17
 -17075363.53244 -13305469.31744  20274505.6944   20274505.0414
   4886544.69544   3807704.96744  23499945.1434   23499946.2464
  10906324.27444   8498433.87544  23600911.8224   23600911.8764
   -995115.24144   -775413.90944  25293011.3454   25293018.7134
  -4290645.26844  -3343360.18244  23686328.7854   23686329.1354
  -7658115.34744  -5967358.17644  22489511.0094   22489510.6054
 -17188411.37344 -13393550.26044  21850097.4874   21850097.7184
 -20376763.10944 -15877981.71044  21163186.0304   21163186.1004
 96  4  4  4  4  0.0000000  0  8G 6G16G20G21G22G26G23G17
 -17058974.85844 -13292698.92844  20277624.4474   20277623.8104
   4983498.37344   3883253.29244  23518395.1164   23518394.5874
  11009590.23344   8578900.85344  23620562.6754   23620564.2764
  -1094157.99444   -852589.98744  25274165.7954   25274164.5474
  -4332680.43044  -3376114.90844  23678329.6264   23678327.1474
  -7702538.78444  -6001973.81244  22481056.8924   22481057.3444
 -17260026.65544 -13449354.35944  21836469.2994   21836469.3674
 -20410502.03744 -15904271.77844  21156765.6364   21156765.8584
 96  4  4  4  4 30.0000000  0  8G 6G16G20G21G22G26G23G17
 -17042122.02544 -13279566.85544  20280831.3344   20280830.7914
   5080576.09244   3958898.25644  23536868.1144   23536867.7044
  11112867.24544   8659376.44044  23640215.1124   23640217.0054
  -1193163.70044   -929737.23844  25255326.5624   25255325.9434
  -4374277.41444  -3408528.13244  23670413.1324   23670416.2714
  -7746536.54244  -6036257.75244  22472685.0784   22472685.4564
 -17331300.34844 -13504892.28644  21822906.2964   21822906.4734
 -20444084.93944 -15930440.26344  21150375.1914   21150375.2104
 96  4  4  4  5  0.0000000  0  8G 6G16G20G21G22G26G23G17
 -17024799.65844 -13266068.91844  20284127.9714   20284127.5354
   5177777.85844   4034639.88544  23555365.9544   23555367.0134
  11216166.17244   8739869.09344  23659872.2954   23659873.2634
  -1292128.83344  -1006852.87444  25236495.0484   25236494.3774
  -4415418.06644  -3440585.74744  23662584.6804   23662586.7824
  -7790108.18844  -6070209.66344  22464393.6804   22464393.2694
 -17402216.68544 -13560151.74744  21809411.2914   21809411.6854
 -20477491.89244 -15956471.64544  21144017.8474   21144018.1304
 96  4  4  4  5 30.0000000  0  8G 6G16G20G21G22G26G23G17
 -17006969.93144 -13252175.63244  20287520.6814   20287520.3264
   5275120.93744   4110491.64144  23573889.4944   23573889.6554
  11319517.92344   8820402.92144  23679540.4634   23679541.4954
  -1391018.60044  -1083909.75144  25217676.9954   25217677.5054
  -4456078.46944  -3472269.14244  23654847.5004   23654848.6474
  -7833231.79644  -6103812.46544  22456187.2984   22456187.4184
 -17472749.70544 -13615112.52144  21795989.1934   21795989.6304
 -20510701.90144 -15982349.56344  21137698.4024   21137698.4844
 96  4  4  4  6  0.0000000  0  8G 6G16G20G21G22G26G23G17
 -16988627.66544 -13237882.96844  20291011.1184   20291010.6574
   5372607.88844   4186455.47044  23592440.0814   23592441.7094
  11422936.68144   8900988.95544  23699219.6964   23699221.1274
  -1489835.11044  -1160909.60344  25198872.9464   25198874.8544
  -4496266.42144  -3503584.39744  23647201.2054   23647201.5794
  -7875896.17244  -6137057.43144  22448068.4774   22448067.1814
 -17542909.59644 -13669782.55044  21782638.3514   21782638.7594
 -20543694.15744 -16008057.79944  21131419.9054   21131420.2994
 96  4  4  4  6 30.0000000  0  8G 6G16G20G21G22G26G23G17
 -16969792.16944 -13223205.96744  20294595.4864   20294594.9254
   5470232.74444   4262526.78944  23611017.1814   23611017.6914
  11526420.99944   8981626.07544  23718912.7654   23718912.2164
  -1588573.59244  -1237848.66244  25180084.2034   25180086.8054
  -4535978.23144  -3534528.65744  23639644.2434   23639643.1244
  -7918092.82044  -6169937.91244  22440039.1034   22440039.2414
 -17612698.24044 -13724163.29744  21769358.0634   21769358.5764
 -20576475.22844 -16033601.48444  21125182.1904   21125181.8944
 96  4  4  4  7  0.0000000  0  8G 6G16G20G21G22G26G23G17
 -16950455.97944 -13208138.81744  20298274.9194   20298274.3814
   5568012.62944   4338718.90144  23629625.5784   23629626.4444
  11629985.00244   9062325.30644  23738619.7194   23738620.7504
  -1687201.90444  -1314701.85444  25161314.4214   25161310.4734
  -4575182.03344  -3565077.07344  23632183.1674   23632181.7124
  -7959786.03944  -6202426.09544  22432104.5634   22432104.9924
 -17682116.66344 -13778255.56144  21756147.9974   21756148.4654
 -20609039.93844 -16058976.57544  21118985.3374   21118985.2034
 96  4  4  4  7 30.0000000  0  8G 6G16G20G21G22G26G23G17
 -16930618.41644 -13192680.98844  20302049.8504   20302049.3364
   5665953.48744   4415036.44544  23648261.9074   23648263.3094
  11733618.23144   9143078.45244  23758340.6014   23758340.2144
  -1785702.53144                  25142566.5924
  -4613876.87644  -3595228.89344  23624818.8764   23624819.5214
  -8000970.22344  -6234517.65444  22424267.9124   22424267.1194
 -17751174.23844 -13832066.64144  21743006.4854   21743007.0404
 -20641395.71044 -16084188.84944  21112827.9774   21112827.7814
 96  4  4  4  8  0.0000000  0  7G 6G16G20G22G26G23G17
 -16910294.68444 -13176844.32544  20305917.6654   20305917.0524
   5764065.74744   4491487.55444  23666933.0864   23666934.3254
  11837293.97244   9223864.74144  23778069.4434   23778068.0564
  -4652057.21944  -3624979.79444  23617553.6434   23617553.1644
  -8041639.92944  -6266208.29944  22416528.4674   22416528.8254
 -17819874.94844 -13885599.64644  21729932.9484   21729933.4694
 -20673542.10644 -16109237.97544  21106710.7664   21106710.6974
 96  4  4  4  8 30.0000000  0  7G 6G16G20G22G26G23G17
 -16889506.10344 -13160645.44244  20309873.4244   20309872.8454
   5862340.11644   4568064.97944  23685633.4964   23685633.9244
  11940980.97844   9304659.82744  23797799.6144   23797800.5244
  -4689721.38144  -3654328.48644  23610386.5234   23610386.9184
  -8081830.21844  -6297525.37844  22408880.6504   22408879.8114
 -17888223.42144 -13938858.17444  21716926.9444   21716927.5574
 -20705505.02544 -16134144.13144  21100628.5434   21100628.5924
 96  4  4  4  9  0.0000000  0  7G 6G16G20G22G26G23G17
 -16868232.66744 -13144068.75144  20313921.6254   20313920.9564
   5960790.68344   4644779.69444  23704367.3024   23704368.8904
  12044695.19944   9385476.08344  23817537.0504   23817536.1424
  -4726842.89944  -3683254.33844  23603323.1844   23603324.9114
  -8121537.49244  -6328466.09844  22401324.1514   22401324.3684
 -17956197.07744 -13991824.63944  21703992.0984   21703992.7194
 -20737262.15544 -16158889.93644  21094585.1964   21094585.0364
 96  4  4  4  9 30.0000000  0  8G 6G16G20G21G22G26G23G17
 -16846477.52544 -13127116.70144  20318061.2674   20318060.8584
   6059402.95944   4721620.41244  23723132.8694   23723134.3264
  12148421.84044   9466302.01244  23837274.5514   23837276.2764
        -0.55954                  25067830.3514
  -4763439.11644  -3711770.85144  23596358.7064   23596359.4354
  -8160785.61844  -6359049.03644  22393855.7264   22393854.8814
 -18023796.19744 -14044499.26244  21691128.6994   21691129.1934
 -20768814.12944 -16183475.88044  21088581.3004   21088581.3574
 96  4  4  4 10  0.0000000  0  8G 6G16G20G21G22G26G23G17
 -16824279.01944 -13109819.17344  20322285.7934   20322285.2084
   6158131.43244   4798551.68044  23741920.1304   23741920.1424
  12252131.56844   9547114.80144  23857010.1804   23857011.7464
    -97933.08244    -76311.60844  25049196.2364   25049194.8544
  -4799563.03044  -3739919.32244  23589483.7724   23589484.9484
  -8199609.84144  -6389301.65244  22386467.4534   22386467.6774
 -18091051.33644 -14096905.84444  21678330.5714   21678330.5404
 -20800205.82344 -16207936.93044  21082607.5584   21082607.2124
 96  4  4  4 10 30.0000000  0  8G 6G16G20G21G22G26G23G17
 -16801594.84444 -13092143.19844  20326602.1864   20326601.8604
   6256986.87944   4875581.91744  23760732.2994   23760733.4074
  12355880.22944   9627957.88244  23876752.6144   23876753.8794
   -195770.58844   -152548.60544  25030578.0094   25030573.6574
  -4835185.21444  -3767676.86544  23582705.8874   23582705.7414
  -8237978.80944  -6419199.53244  22379166.5374   22379166.7384
 -18157925.54444 -14149015.59644  21665604.8164   21665604.7104
 -20831410.50244 -16232252.25644  21076669.5604   21076669.4414
 96  4  4  4 11  0.0000000  0  8G 6G16G20G21G22G26G23G17
 -16778435.40044 -13074096.88944  20331009.4754   20331008.8804
   6355937.55844   4952686.32444  23779562.2554   23779562.5554
  12459654.46944   9708820.92044  23896500.5734   23896501.6974
   -293519.56144   -228716.61044  25011978.0594   25011975.2854
  -4870344.99344  -3795074.08244  23576015.4404   23576015.3624
  -8275884.66744  -6448736.52744  22371952.9264   22371952.6894
 -18224448.17144 -14200851.39444  21652946.0764   21652945.8684
 -20862449.71644 -16256438.64244  21070762.8364   21070762.8344
 96  4  4  4 11 30.0000000  0  8G 6G16G20G21G22G26G23G17
 -16754802.86144 -13055681.93644  20335506.4704   20335506.0394
   6454969.18344   5029853.81244  23798405.9324   23798407.5234
  12563445.16144   9789696.78044  23916250.7114   23916250.8284
   -391204.40344   -304834.63244  24993389.1384   24993388.3344
  -4905065.27744  -3822128.87044  23569408.3354   23569406.6644
  -8313317.54844  -6477904.98244  22364830.2364   22364829.4234
 -18290623.21744 -14252416.34944  21640353.2924   21640353.3114
 -20893337.26444 -16280506.85044  21064885.1884   21064885.3904
 96  4  4  4 12  0.0000000  0  8G 6G16G20G21G22G26G23G17
 -16730673.49744 -13036879.84744  20340098.2484   20340097.7824
   6554107.75844   5107104.65644  23817271.9024   23817272.2414
  12667285.85944   9870611.61344  23936012.2694   23936013.9084
   -488800.98044   -380883.90644  24974817.0874   24974816.1154
  -4939312.45444  -3848814.97644  23562891.9384   23562891.6264
  -8350235.01944  -6506671.81544  22357804.9884   22357805.0414
 -18356409.67944 -14303678.50644  21627834.4334   21627834.4554
 -20924048.03944 -16304437.31344  21059041.0314   21059040.9334
 96  4  4  4 12 30.0000000  0  8G 6G16G20G21G22G26G23G17
 -16706052.53744 -13017694.69644  20344783.5814   20344782.9134
   6653342.02944   5184430.07044  23836156.0254   23836156.7894
  12771158.65544   9951551.45844  23955777.4824   23955777.4814
   -586289.18144   -456848.70844  24956263.8624   24956265.0974
  -4973071.67944  -3875120.85444  23556467.9804   23556466.7614
  -8386638.53544  -6535038.17244  22350877.2114   22350876.5994
 -18421812.59744 -14354641.80144  21615388.3824   21615388.5764
 -20954570.18244 -16328220.79044  21053232.8844   21053232.6744
 96  4  4  4 13  0.0000000  0  8G 6G16G20G21G22G26G23G17
 -16680960.72944 -12998142.65244  20349558.1944   20349557.6614
   6752677.94144   5261834.66144  23855059.7344   23855060.0454
  12875034.29844  10032493.51144  23975545.2644   23975546.6454
   -683678.35244   -532736.34244  24937730.1264   24937736.0804
  -5006334.13244  -3901039.62044  23550138.6254   23550138.3464
  -8422521.84844  -6562999.17244  22344048.9684   22344048.6524
 -18486820.67544 -14405297.42744  21603017.6534   21603018.0904
 -20984895.11044 -16351850.59344  21047462.1084   21047461.7264
 96  4  4  4 13 30.0000000  0  8G 6G16G20G21G22G26G23G17
 -16655398.20444 -12978223.80944  20354422.7924   20354422.3824
   6852131.74944   5339331.12344  23873985.4264   23873986.7504
  12978905.22444  10113431.89444  23995310.7974   23995312.1354
   -780964.94244   -608544.00744  24919216.1484   24919222.1504
  -5039067.30344  -3926545.95944  23543909.1824   23543909.9304
  -8457890.07044  -6590558.80344  22337318.7764   22337317.5904
 -18551414.94744 -14455630.60844  21590725.9964   21590726.4094
 -21015011.96444 -16375318.27044  21041731.1224   21041731.0334
 96  4  4  4 14  0.0000000  0  8G 6G16G20G21G22G26G23G17
 -16629364.84644 -12957938.08244  20359376.7554   20359376.0984
   6951708.48944   5416923.38344  23892934.1464   23892935.5134
  13082768.90644  10194364.63044  24015076.4254   24015078.4414
   -878124.10944   -684252.43444  24900726.5984   24900730.3144
  -5071249.71744  -3951623.14344  23537784.8424   23537784.7984
  -8492754.09544  -6617725.55644  22330684.1854   22330684.2064
 -18615599.47544 -14505644.50944  21578512.0504   21578512.5534
 -21044909.63544 -16398615.14744  21036041.6624   21036041.6414
 96  4  4  4 14 30.0000000  0  8G 6G16G20G21G22G26G23G17
 -16602869.03244 -12937291.99644  20364418.3914   20364418.0734
   7051406.24144   5494609.94644  23911906.1284   23911906.9124
  13186605.02444  10275275.88744  24034834.8344   24034837.1034
   -975156.12444   -759861.70844  24882259.3794   24882267.8184
  -5102884.88144  -3976273.91144  23531763.8094   23531764.4544
  -8527122.63544  -6644506.21644  22324143.9164   22324143.6424
 -18679397.57944 -14555357.30244  21566371.8384   21566372.2854
 -21074591.90144 -16421744.18444  21030393.1984   21030393.3304
 96  4  4  4 15  0.0000000  0  8G 6G16G20G21G22G26G23G17
 -16575911.66844 -12916286.26444  20369548.6374   20369548.0064
   7151238.67644   5572401.46444  23930903.2304   23930904.0494
  13290411.58744  10356164.10044  24054588.2774   24054589.8534
  -1072071.54944   -835380.15244  24863817.0634   24863826.2474
  -5133990.28244  -4000511.87944  23525844.8984   23525846.0474
  -8561008.13344  -6670910.48444  22317696.0844   22317695.6974
 -18742812.55544 -14604771.54544  21554304.2164   21554304.6984
 -21104079.90744 -16444721.84144  21024781.6734   21024781.8864
 96  4  4  4 15 30.0000000  0  8G 6G16G20G21G22G26G23G17
 -16548454.72444 -12894891.24844  20374773.3224   20374772.8844
   7251217.77844   5650307.22944  23949927.8034   23949929.5164
  13394219.95544  10437053.73644  24074342.1774   24074343.9164
  -1168836.64244   -910781.46144  24845404.5954   24845411.9364
  -5164562.66344  -4024334.51244  23520027.3964   23520025.9204
  -8594407.92444  -6696936.27044  22311339.7404   22311339.4794
 -18805851.32744 -14653892.65144  21542308.2044   21542308.6984
 -21133353.48844 -16467532.42144  21019211.0554   21019211.4454
 96  4  4  4 16  0.0000000  0  8G 6G16G20G21G22G26G23G17
 -16520501.05644 -12873109.18344  20380092.8014   20380092.3234
   7351320.20644   5728309.14044  23968976.9854   23968978.2374
  13498022.01944  10517938.44644  24094095.3924   24094094.7454
  -1265452.33244   -986066.37544  24827021.4224   24827023.9414
  -5194626.50744  -4047760.89244  23514306.2004   23514305.6894
  -8627330.01744  -6722589.83544  22305075.4124   22305075.0444
 -18868528.25444 -14702731.79844  21530381.1944   21530381.3984
 -21162410.33144 -16490174.11044  21013681.9974   21013682.0994
 96  4  4  4 16 30.0000000  0  8G 6G16G20G21G22G26G23G17
 -16492057.82144 -12850945.63244  20385505.2264   20385504.8924
   7451541.18644   5806403.39144  23988048.5194   23988051.3994
  13601792.49944  10598798.58544  24113841.4304   24113842.3464
  -1361937.35844  -1061249.46144  24808661.7604   24808660.5184
  -5224199.50044  -4070804.80944  23508678.9284   23508678.5124
  -8659769.79444  -6747867.56044  22298902.2964   22298901.7674
 -18930847.31644 -14751292.09044  21518522.4584   21518522.7614
 -21191263.37544 -16512656.99544  21008191.6264   21008191.3844
 96  4  4  4 17  0.0000000  0  8G 6G16G20G21G22G26G23G17
 -16463126.10444 -12828401.44444  20391010.8404   20391010.3784
   7551846.64844   5884563.48944  24007135.2664   24007138.0074
  13705523.66644  10679628.05044  24133581.9424   24133581.7014
  -1458310.76844  -1136345.61844  24790323.9984   24790319.7134
  -5253295.87544  -4093477.40444  23503142.1944   23503142.6954
  -8691741.18344  -6772780.31444  22292817.8844   22292817.3814
 -18992809.23644 -14799574.08944  21506731.3984   21506731.7374
 -21219928.30644 -16534993.29644  21002736.7724   21002736.7674
 96  4  4  4 17 30.0000000  0  8G 6G16G20G21G22G26G23G17
 -16433700.30944 -12805472.26444  20396610.6004   20396610.0874
   7652203.95744   5962763.97744  24026232.5124   24026233.0934
  13809217.69044  10760428.57244  24153314.6464   24153316.0464
  -1554570.78744  -1211353.45844  24772004.9844   24772001.8624
  -5281907.99444  -4115773.80444  23497697.5694   23497697.3744
  -8723224.01044  -6797312.35244  22286827.3984   22286826.9594
 -19054418.71444 -14847581.46144  21495007.7224   21495007.8634
 -21248404.66544 -16557182.65944  20997318.0954   20997317.9294
 96  4  4  4 18  0.0000000  0  8G 6G16G20G21G22G26G23G17
 -16403780.23544 -12782157.93144  20402303.8874   20402303.3224
   7752623.73444   6041013.15044  24045343.0714   24045345.5154
  13912872.97244  10841198.92844  24173039.5684   24173039.3974
  -1650715.45044  -1286271.38744  24753710.6264   24753704.5334
  -5310026.02544  -4137683.48044  23492347.0974   23492347.6394
  -8754185.19244  -6821437.92244  22280935.0654   22280934.7274
 -19115649.72044 -14895293.91544  21483355.6984   21483356.0264
 -21276708.23444 -16579237.37844  20991931.9424   20991931.8714
 96  4  4  4 18 30.0000000  0  8G26G 6G16G20G21G22G23G17
  -8784604.17844  -6845141.00644  22275146.4064   22275146.4274
 -16373360.73444 -12758454.44044  20408092.8084   20408092.2614
   7853115.52044   6119318.45044  24064466.4854   24064465.1154
  14016501.99244  10921948.84344  24192758.0294   24192758.9384
  -1746740.62644  -1361096.22344  24735436.1634
  -5337645.65144  -4159205.30744  23487090.9984   23487093.4294
 -19176487.81944 -14942700.20744  21471778.3454   21471778.6704
 -21304851.64144 -16601167.29744  20986576.3344   20986576.3774
 96  4  4  4 19  0.0000000  0  8G26G 6G16G20G21G22G23G17
  -8814466.83344  -6868410.57844  22269464.1224   22269464.2094
 -16342419.32844 -12734344.26644  20413980.6164   20413980.1324
   7953675.40444   6197676.82944  24083603.1334   24083602.7844
  14120144.11344  11002708.93744  24212481.5034   24212482.6054
  -1842626.49044  -1435812.44544  24717188.6244   24717191.1564
  -5364752.74844  -4180327.71544  23481933.3104   23481935.0734
 -19236915.44444 -14989786.65044  21460279.3624   21460279.6844
 -21332818.21944 -16622959.42344  20981254.2514   20981254.6744
 96  4  4  4 19 30.0000000  0  8G 6G16G20G21G22G26G23G17
 -16310963.95244 -12709833.59644  20419966.3634   20419965.8664
   8054325.51444   6276105.48344  24102755.1444   24102756.7844
  14223795.71244  11083476.41444  24232205.9944   24232208.3224
  -1938367.80444  -1510416.03844  24698969.9174   24698969.4124
  -5391343.93444  -4201048.12544  23476872.3704   23476872.9714
  -8843767.16844  -6891241.99444  22263888.6304   22263887.8914
 -19296925.96444 -15036548.07544  21448859.6284   21448859.3784
 -21360602.15644 -16644609.23744  20975967.1344   20975967.4054
 96  4  4  4 20  0.0000000  0  8G 6G16G20G21G22G26G23G17
 -16279023.17044 -12684944.68044  20426044.4934   20426044.0314
   8155070.96744   6354608.43944  24121926.3294   24121926.6554
  14327433.88144  11164233.44744  24251927.5154   24251927.5834
  -2033982.98744  -1584921.34244  24680775.4404   24680777.1624
  -5417426.25644  -4221371.97844  23471908.3844   23471910.0564
  -8872533.52344  -6913657.31644  22258414.0364   22258413.4814
 -19356520.68844 -15082985.50844  21437518.8394   21437519.2924
 -21388208.04944 -16666120.31344  20970714.1364   20970714.6014
 96  4  4  4 20 30.0000000  0  8G 6G16G20G21G22G26G23G17
 -16246596.73244 -12659677.33544  20432215.4094   20432214.8914
   8255906.14244   6433181.28744  24141114.5284   24141115.6264
  14431062.55344  11244983.05744  24271647.0494   24271649.5114
  -2129473.21344  -1659329.27344  24662604.4564   24662606.5564
  -5442981.16444  -4241284.90544  23467045.6934   23467046.0324
  -8900787.48444  -6935673.37344  22253037.9054   22253037.8604
 -19415705.86644 -15129103.81044  21426256.4204   21426256.9794
 -21415621.92844 -16687481.76644  20965497.4604   20965497.6624
 96  4  4  4 21  0.0000000  0  8G 6G16G20G21G22G26G23G17
 -16213693.87444 -12634038.74944  20438476.2984   20438475.8734
   8356831.87544   6511824.70644  24160320.6534   24160323.1184
  14534685.87444  11325728.50244  24291366.0274   24291370.2104
  -2224841.04444  -1733641.84644  24644455.6954   24644458.8854
  -5467997.39444  -4260778.08244  23462285.7454   23462286.7924
  -8928536.49844  -6957295.96744  22247757.4194   22247756.8404
 -19474490.28444 -15174909.83644  21415070.2464   21415070.4884
 -21442835.37144 -16708687.03944  20960318.9844   20960318.8144
 96  4  4  4 21 30.0000000  0  8G26G 6G16G20G21G22G23G17
  -8955785.63344  -6978529.13244  22242572.1164   22242572.0864
 -16180336.31444 -12608045.85644  20444824.2134   20444823.6194
   8457848.23044   6590538.71344  24179542.7244   24179543.4284
  14638277.45244  11406449.22444  24311079.2294   24311081.4164
  -2320096.03444  -1807866.48744  24626328.9244   24626332.0884
  -5492484.53344  -4279858.95044  23457626.4244   23457625.9424
 -19532886.28944 -15220413.19544  21403957.8864   21403958.2364
 -21469863.53544 -16729747.93444  20955175.6604   20955175.7404
 96  4  4  4 22  0.0000000  0  8G26G 6G16G20G21G22G23G17
  -8982534.84244  -6999372.50544  22237481.9574   22237481.2724
 -16146522.00444 -12581697.05244  20451258.7414   20451258.2514
   8558951.55044   6669320.53244  24198782.1494   24198782.2284
  14741838.66044  11487146.28044  24330786.4404   24330787.6134
  -2415237.78944  -1882002.85844  24608222.5384   24608229.0514
  -5516444.08744  -4298528.70844  23453066.8514   23453065.5874
 -19590904.95744 -15265622.53044  21392917.1934   21392917.6464
 -21496704.97344 -16750663.33444  20950067.8374   20950067.9514
 96  4  4  4 22 30.0000000  0  8G26G 6G16G20G21G22G23G17
  -9008779.76244  -7019823.09144  22232487.3544   22232486.7184
 -16112238.12144 -12554982.34944  20457782.8264   20457782.1824
   8660131.43644   6748162.00544  24218036.0194   24218035.3554
  14845369.98944  11567820.05644  24350487.1094   24350486.7744
  -2510260.62444  -1956046.58544  24590138.9314   24590146.2134
  -5539889.34044  -4316797.73344  23448604.7674   23448605.1364
 -19648554.74444 -15310544.42544  21381947.0464   21381947.4684
 -21523362.11044 -16771435.12044  20944995.0384   20944995.1914
 96  4  4  4 23  0.0000000  0  8G26G 6G16G20G21G22G23G17
  -9034493.64844  -7039859.87444  22227594.2174   22227593.0974
 -16077482.04744 -12527899.71344  20464396.6424   20464396.3754
   8761393.41644   6827067.41544  24237305.3504   24237306.8994
  14948862.70644  11648463.74944  24370181.5104   24370182.3214
  -2605141.90544  -2029980.01044  24572083.9234   24572090.0884
  -5562832.46044  -4334675.47844  23444239.3664   23444239.3194
 -19705820.33844 -15355166.95044  21371050.0094   21371050.0134
 -21549819.59644 -16792051.33444  20939960.5584   20939960.4464
 96  4  4  4 23 30.0000000  0  8G26G 6G16G20G21G22G23G17
  -9059680.73844  -7059486.15544  22222801.3164   22222800.6324
 -16042257.77144 -12500452.24444  20471099.7514   20471099.2024
   8862725.22344   6906027.26744  24256588.0174   24256589.4334
  15052279.14244  11729048.01544  24389860.4484   24389862.6184
  -2699877.99944  -2103800.32744  24554056.5614   24554061.1914
  -5585285.45244  -4352171.31244  23439966.6054   23439966.0264
 -19762709.83844 -15399496.41244  21360223.8574   21360224.1374
 -21576082.02544 -16812515.56144  20934962.8624   20934962.7964
 96  4  4  4 24  0.0000000  0  8G26G 6G16G20G21G22G23G17
  -9084337.42644  -7078699.13944  22218109.6544   22218109.5364
 -16006552.66244 -12472630.09644  20477893.8484   20477893.6304
   8964125.41844   6985040.38544  24275884.2954   24275882.5744
  15155615.87744  11809570.15044  24409526.2694   24409527.2724
  -2794453.15144  -2177495.19844  24536063.0994   24536064.5684
  -5607238.02944  -4369277.19544  23435788.7644   23435789.2844
 -19819218.62744 -15443529.22144  21349470.5304   21349470.7474
 -21602146.77344 -16832825.74744  20930002.7684   20930003.0954
 96  4  4  4 24 30.0000000  0  8G26G 6G16G20G21G22G23G17
  -9108468.26244  -7097502.36844  22213517.1774   22213515.8914
 -15970373.14744 -12444438.28244  20484778.7324   20484778.4724
   9065566.09244   7064085.07844  24295187.8964   24295188.1614
  15258848.52644  11890011.17644  24429170.7004   24429171.4934
  -2888867.67144  -2251064.94144  24518096.3994   24518096.0674
  -5628696.68544  -4385998.22444  23431705.9724   23431707.0314
 -19875345.86544 -15487264.71444  21338790.4004   21338790.4654
 -21628038.40244 -16853001.03444  20925075.9774   20925076.1034
 96  4  4  4 25  0.0000000  0  8G26G 6G16G20G21G22G23G17
  -9132056.15344  -7115882.52344  22209028.7684   22209028.2934
 -15933721.83644 -12415878.83044  20491753.5444   20491753.0824
   9167048.21644   7143162.04344  24314498.7044   24314499.4084
  15361965.41144  11970362.01644  24448791.1644   24448794.1144
  -2983128.95144  -2324515.28044  24500159.7584   24500158.9114
  -5649654.60944  -4402329.07644  23427717.9244   23427718.4114
 -19931080.71344 -15530694.45144  21328184.0754   21328184.0144
 -21653750.78244 -16873036.64444  20920183.2934   20920183.0964
 96  4  4  4 25 30.0000000  0  8G26G 6G16G20G21G22G23G17
  -9155094.04244  -7133834.10144  22204644.8094   22204644.5324
 -15896563.58044 -12386924.35944  20498824.3154   20498823.8304
   9268589.64844   7222285.27244  24333821.2634   24333821.2934
  15464989.15244  12050640.26444  24468397.5344   24468399.5934
  -3077233.42044  -2397843.42244  24482252.5364   24482248.8734
  -5670085.81544  -4418249.47744  23423829.1214   23423829.3794
 -19986409.57944 -15573807.83944  21317655.4384   21317655.7104
 -21679281.34544 -16892930.58244  20915324.8714   20915324.7454
 96  4  4  4 26  0.0000000  0  8G26G 6G16G20G21G22G23G17
  -9177575.46244  -7151352.06544  22200366.8364   22200366.2894
 -15858887.94544 -12357566.73044  20505993.7004   20505993.2164
   9370188.55744   7301453.23044  24353155.0254   24353155.4944
  15567934.33744  12130857.30244  24487986.1124   24487990.6074
  -3171184.50444  -2471052.05244  24464374.3554   24464369.7014
  -5689989.61144  -4433758.91144  23420041.9704   23420043.5874
 -20041320.13544 -15616595.26444  21307206.4314   21307206.6364
 -21704634.29844 -16912686.12244  20910500.4504   20910500.3744
 96  4  4  4 26 30.0000000  0  8G26G 6G16G20G21G22G23G17
  -9199499.58144  -7168435.77844  22196194.3254   22196194.3264
 -15820704.04844 -12327813.05444  20513260.0864   20513259.5754
   9471830.83044   7380655.02244  24372496.5324   24372497.0304
  15670799.26644  12211011.83344  24507562.4514
  -3265006.49044  -2544160.08344  24446520.5434   24446519.9454
  -5709376.70944  -4448865.72644  23416352.4944   23416353.1204
 -20095814.62844 -15659058.49444  21296836.0274   21296836.3894
 -21729812.95144 -16932305.84344  20905708.9354   20905708.9244
 96  4  4  4 27  0.0000000  0  8G26G 6G16G20G21G22G23G17
  -9220872.97744  -7185090.34944  22192127.3954   22192126.9954
 -15782018.40644 -12297668.40944  20520621.6604   20520621.2294
   9573523.16044   7459895.77744  24391847.2284   24391850.1794
  15773596.09244  12291113.26944  24527122.4414
  -3358706.42144  -2617172.98944  24428688.7754   24428687.8924
  -5728256.23244  -4463577.05444  23412760.0064   23412759.8614
 -20149907.07544 -15701208.43244  21286542.9234   21286543.1864
 -21754799.25644 -16951775.67944  20900954.2834   20900954.0004
 96  4  4  4 27 30.0000000  0  8G26G 6G16G20G21G22G23G17
  -9241700.37244  -7201319.46844  22188164.0944   22188163.6974
 -15742822.41544 -12267126.09344  20528080.4714   20528080.0194
   9675276.45344   7539184.06344  24411210.3594   24411213.1464
  15876350.86844  12371181.90244  24546676.9414
  -3452254.83944  -2690067.83344  24410886.5514   24410887.3434
  -5746619.40744  -4477886.03344  23409265.1074   23409265.8124
 -20203601.04444 -15743047.87644  21276324.7614   21276325.1514
 -21779595.75544 -16971097.62044  20896235.6954   20896235.3094
 96  4  4  4 28  0.0000000  0  8G26G 6G16G20G21G22G23G17
  -9261989.30344  -7217128.99844  22184302.7894   22184302.3344
 -15703134.19144 -12236200.21744  20535632.9074   20535632.3854
   9777081.99144   7618513.07644  24430584.3174   24430585.0194
  15979065.50544  12451219.29044  24566224.2344   24566224.3764
  -3545656.74944  -2762848.50044  24393111.5064   24393113.2994
  -5764469.00944  -4491794.80744  23405868.7424   23405868.5354
 -20256908.03744 -15784585.77444  21266181.0184   21266181.2954
 -21804202.37544 -16990271.60244  20891553.0994   20891553.0524
 96  4  4  4 28 30.0000000  0  8G26G 6G16G20G21G22G23G17
  -9281742.19944  -7232520.84044  22180544.4054   22180543.0694
 -15662957.20744 -12204893.48844  20543278.1494   20543277.7154
   9878956.60344   7697895.88944  24449969.5914   24449970.0514
  16081747.05144                  24585761.2454
  -3638902.88444  -2835507.81244  24375366.2754   24375368.0544
  -5781798.67044  -4505298.42544  23402571.1144   23402570.6234
 -20309827.07944 -15825821.37444  21256110.9104   21256111.0274
 -21828594.76444 -17009278.64844  20886911.3714   20886911.6464
 96  4  4  4 29  0.0000000  0  8G26G 6G16G20G21G22G23G17
  -9300956.88944  -7247493.29844  22176887.5374   22176886.9924
 -15622294.81144 -12173208.51944  20551015.9914   20551015.5224
   9980927.26244   7777353.53644  24469374.3144   24469375.4044
  16184397.46644                  24605297.4424
  -3731966.49844  -2908024.87244  24357656.2804   24357659.7684
  -5798600.43044  -4518390.68644  23399373.7074   23399374.4764
 -20362350.01644 -15866748.32444  21246115.9684   21246116.2384
 -21852754.79844 -17028104.64044  20882313.9894   20882314.1054
 96  4  4  4 29 30.0000000  0  8G26G 6G16G20G21G22G23G17
  -9319668.52344  -7262073.78244  22173327.0094   22173326.4734
 -15581178.73244 -12141170.02444  20558840.0634   20558839.6054
  10082950.25244   7856851.97744  24488789.5014   24488789.2864
  16286964.02744                  24624816.1244
  -3824895.49744  -2980437.01444  24339972.2034   24339975.3214
  -5814914.64144  -4531103.07744  23396269.5434   23396269.4024
 -20414505.01244 -15907388.56344  21236191.4354   21236191.7334
 -21876737.47944 -17046792.43544  20877750.2914   20877750.1244
 96  4  4  4 30  0.0000000  0  8G26G 6G16G20G21G22G23G17
  -9337859.45444  -7276248.51344  22169865.4844   22169864.2194
 -15539609.08044 -12108778.09944  20566750.5934   20566750.1364
  10185019.35044   7936386.31944  24508211.4114   24508212.3524
  16389437.70544                  24644315.1684
  -3917699.62044  -3052751.85344  24322313.9214   24322316.2734
  -5830735.83244  -4543431.24844  23393259.3644   23393259.7554
 -20466270.91344 -15947725.61144  21226340.5924   21226340.8344
 -21900521.21044 -17065325.20444  20873224.0804   20873224.3864
 96  4  4  4 30 30.0000000  0  8G26G 6G16G20G21G22G23G17
  -9355493.86344  -7289989.57944  22166509.4244   22166509.2734
 -15497562.72544 -12076014.71944  20574751.7344   20574751.4224
  10287140.54144   8015961.28744  24527644.7554   24527644.9004
  16491828.32144                  24663798.1564
  -4010348.57744  -3124945.79444  24304683.4894   24304686.4814
  -5846047.06644  -4555362.07944  23390345.6494   23390345.4884
 -20517620.68544 -15987738.40244  21216568.6964   21216569.1274
 -21924083.26844 -17083685.24044  20868740.2484   20868740.5364
 96  4  4  4 31  0.0000000  0  8G26G 6G16G20G21G22G23G17
  -9372567.55644  -7303293.75444  22163260.7594   22163260.0644
 -15455017.09844 -12042862.30444  20582847.9594   20582847.5224
  10389285.69644   8095554.93744  24547083.7444   24547083.1534
  16594134.04844                  24683266.3094
  -4102850.22644  -3197024.98144  24287081.7974   24287086.0094
  -5860842.98744  -4566891.34244  23387529.9724   23387530.8114
 -20568561.78144 -16027432.74744  21206875.0264   21206875.1524
 -21947453.86444 -17101896.08644  20864292.9704   20864292.9924
 96  4  4  4 31 30.0000000  0  8G26G 6G16G20G21G22G23G17
  -9389063.97044  -7316148.06944  22160121.1914   22160120.6424
 -15411937.37544 -12009293.70844  20591045.7894   20591045.3154
  10491450.88244   8175164.19944  24566525.1634   24566522.3714
  16696372.45844                  24702721.0004
  -4195190.64544  -3268978.49644  24269510.9814   24269510.4574
  -5875089.98044  -4577992.90844  23384818.7534   23384818.0124
 -20619085.35444 -16066801.74944  21197260.8994   21197260.9664
 -21970634.24744 -17119958.71544  20859882.0024   20859882.1384
 96  4  4  4 32  0.0000000  0  7G26G23G 6G16G20G21G17
  -9404996.69144  -7328563.14644  22157089.5704   22157088.2544
 -20669209.42044 -16105859.44444  21187722.5954   21187722.5654
 -15368347.69944 -11975327.74344  20599340.5764   20599340.0124
  10593625.96444   8254781.19544  24585968.2764   24585967.2174
  16798523.39044                  24722159.5524
  -4287365.36044  -3340802.90144  24251970.1364   24251969.6464
 -21993637.43944 -17137883.27244  20855504.5394   20855504.5744
 96  4  4  4 32 30.0000000  0  8G26G23G 6G16G20G21G28G17
  -9420382.71944  -7340552.23644  22154161.7504   22154160.9834
 -20718950.73344 -16144618.89144  21178256.9514   21178257.3544
 -15324251.65844 -11940967.20944  20607731.7634   20607731.3694
  10695811.88744   8334406.63944  24605412.9334   24605414.2574
  16900570.05844                  24741580.1714
  -4379373.56344  -3412497.56644  24234461.4144   24234462.3034
        -0.18514         0.48714  25352602.929    25352603.474
 -22016488.60744 -17155689.37144  20851156.2494   20851156.5534
 96  4  4  4 33  0.0000000  0  8G26G23G 6G16G20G21G28G17
  -9435211.15444  -7352106.83744  22151340.1224   22151339.6704
 -20768279.66644 -16183057.00244  21168870.0034   21168870.4454
 -15279645.71044 -11906209.33944  20616220.1694   20616219.8024
  10798041.11744   8414065.84744  24624865.2564
  17002523.50544                  24760979.5664
  -4471199.71744  -3484050.37944  24216988.2104   24216988.1934
   -105831.292 4    -82465.321 4  25332464.381    25332465.905
 -22039166.02644 -17173360.07544  20846840.9234   20846840.9954
 96  4  4  4 33 30.0000000  0  8G26G23G 6G16G20G21G28G17
  -9449476.13244  -7363222.37544  22148625.4934   22148624.6664
 -20817178.61344 -16221160.06044  21159564.9064   21159565.4194
 -15234566.22744 -11871082.48244  20624798.3664   20624798.2074
  10900323.41244   8493766.36144  24644329.6314   24644331.3834
  17104232.14644                  24780353.1894
  -4562842.32244  -3555460.17044  24199549.1444   24199546.9824
   -211676.186 4   -164941.823 4  25312322.428    25312326.230
 -22061656.46444 -17190885.08644  20842561.2444   20842561.4634
 96  4  4  4 34  0.0000000  0  7G26G23G 6G16G21G28G17
  -9463173.44144  -7373895.58544  22146018.9464   22146018.6704
 -20865643.17844 -16258924.63944  21150342.4144   21150342.7524
 -15189026.51944 -11835597.01344  20633464.4744   20633464.1444
  11002649.80844   8573501.24944  24663802.4894   24663804.8764
  -4654306.09944  -3626730.61744  24182144.1264   24182144.0344
   -317541.568 4   -247434.274 4  25292177.005    25292183.760
 -22083952.55944 -17208258.66744  20838318.4474   20838318.4364
 96  4  4  4 34 30.0000000  0  7G26G 6G16G21G28G23G17
  -9476314.88844  -7384135.64344  22143517.9494   22143517.3064
 -15143045.60444 -11799767.75244  20642214.3354   20642213.8894
  11104983.57644   8653241.81244  24683274.5484   24683275.9834
  -4745619.25344  -3697883.71344  24164766.7444   24164765.6504
   -423449.138 4   -329959.644 4  25272022.014    25272033.383
 -20913690.08944 -16296363.77244  21141199.5604   21141199.6534
 -22106070.88244 -17225493.71944  20834109.2724   20834109.3794
 96  4  4  4 35  0.0000000  0  8G26G 6G16G22G21G28G23G17
  -9488880.67744  -7393927.14944  22141127.4214   22141126.6414
 -15096605.59544 -11763580.75044  20651051.7734   20651051.4414
  11207341.63244   8733001.39144  24702754.3824
        -0.53054        -0.20754  23368669.5454   23368669.9744
  -4836767.47144  -3768908.23644  24147421.3114   24147421.9734
   -529374.660 4   -412499.050 4  25251865.891    25251873.917
 -20961306.13944 -16333467.17144  21132138.5134   21132138.6654
 -22127987.45544 -17242571.55644  20829938.7344   20829938.6384
 96  4  4  4 35 30.0000000  0  8G26G23G 6G16G22G21G28G17
  -9500862.48244  -7403263.58544  22138846.9834   22138846.3854
 -21008498.49044 -16370240.41044  21123157.9914   21123157.9764
 -15049682.41544 -11727017.24944  20659980.4704   20659979.8734
  11309721.33544                  24722235.3794
    -10165.00744     -7920.56244  23366736.1504   23366737.2384
  -4927736.18444  -3839792.89944  24130108.4334   24130110.3924
   -635308.743 4   -495045.081 4  25231707.899    25231714.303
 -22149701.39244 -17259491.50144  20825806.7874   20825806.4824
 96  4  4  4 36  0.0000000  0  8G26G23G 6G16G22G21G28G17
  -9512257.00244  -7412142.40644  22136678.4144   22136678.7244
 -21055273.79044 -16406688.67544  21114256.8344   21114256.7674
 -15002249.47944 -11690056.53344  20669007.0134   20669006.4874
  11412127.23744   8892574.69244  24741722.9994   24741722.8554
    -19786.96744    -15418.17144  23364905.8544   23364905.2834
  -5018501.02444  -3910518.72444  24112836.4094   24112841.7684
   -741231.613 4   -577582.351 4  25211551.781    25211557.742
 -22171200.12144 -17276243.75344  20821715.5074   20821715.4414
 96  4  4  4 36 30.0000000  0  8G26G23G 6G16G22G21G28G17
  -9523105.26244  -7420595.57644  22134614.1364   22134613.3284
 -21101667.00144 -16442839.20944  21105428.6404   21105428.9244
 -14954344.51744 -11652728.00844  20678122.8994   20678122.6244
  11514537.65944   8972375.04444  24761211.4484   24761213.5014
    -28864.20644    -22491.36044  23363178.6014   23363177.9744
  -5109082.93644  -3981101.95144  24095599.3824   24095599.9894
   -847185.146 4   -660143.774 4  25191391.326    25191398.558
 -22192505.00044 -17292844.94744  20817661.4494   20817661.4424
 96  4  4  4 37  0.0000000  0  8G26G23G 6G16G22G21G28G17
  -9533446.28744  -7428653.49844  22132646.4814   22132645.9584
 -21147712.03644 -16478718.43944  21096666.5804   21096666.7384
 -14905990.52744 -11615049.57944  20687324.8284   20687324.3134
  11616927.51644   9052159.33444  24780693.6124   24780696.4654
    -37410.20644    -29150.58244  23361551.7314   23361551.1274
  -5199505.23444  -4051560.82744  24078393.9414   24078394.5244
   -953167.863 4   -742727.711 4  25171221.759    25171225.577
 -22213641.99344 -17309315.33244  20813639.3124   20813639.0464
 96  4  4  4 37 30.0000000  0  8G26G23G 6G16G22G21G28G17
  -9543249.35744  -7436292.22144  22130780.1584   22130780.2784
 -21193381.92744 -16514305.35044  21087975.9514   21087976.1744
 -14857168.77444 -11577006.66244  20696615.0904   20696614.6804
  11719300.34544   9131930.36244  24800175.0344   24800172.8244
    -45416.08044    -35388.91344  23360028.0084   23360027.5264
  -5289749.01944  -4121880.64444  24061222.8034   24061223.5194
  -1059175.899 4   -825331.336 4  25151047.808    25151051.399
 -22234591.58144 -17325639.68644  20809652.5924   20809652.4314
 96  4  4  4 38  0.0000000  0  8G26G23G 6G16G22G21G28G17
  -9552509.15744  -7443507.62044  22129018.5654   22129017.9394
 -21238675.80244 -16549599.26244  21079356.7824   21079357.0574
 -14807885.43244 -11538604.05544  20705993.1734   20705992.3884
  11821664.13444   9211694.43244  24819654.4194   24819660.3404
    -52898.65044    -41219.50544  23358603.9424   23358602.9054
  -5379813.64944  -4192060.82144  24044083.7214   24044085.4464
  -1165206.636 4   -907952.739 4  25130869.877    25130872.066
 -22255350.82544 -17341815.71744  20805702.4394   20805702.6264
 96  4  4  4 38 30.0000000  0  8G23G26G 6G16G22G21G28G17
 -21283576.03444 -16584586.44144  21070812.7094   21070812.7304
  -9561205.84844  -7450284.22944  22127363.2914   22127362.8084
 -14758122.28644 -11499827.58544  20715463.0154   20715462.6384
  11924040.32044   9291468.14144  24839134.3434   24839137.5694
    -59869.36644    -46651.22544  23357277.2874   23357276.9254
  -5469705.35144  -4262106.25744  24026978.4464   24026977.1024
  -1271248.937 4   -990583.056 4  25110694.184    25110706.260
 -22275906.77044 -17357833.33044  20801790.8454   20801790.7054
 96  4  4  4 39  0.0000000  0  8G23G26G 6G16G22G21G28G17
 -21328076.95944 -16619262.47544  21062344.1604   21062344.2004
  -9569328.31844  -7456613.40144  22125817.8664   22125816.5454
 -14707872.16244 -11460671.65944  20725025.1104   20725024.6674
  12026425.91544   9371249.05944  24858619.2634   24858622.3544
    -66349.68644    -51700.82344  23356043.8224   23356044.9764
  -5559444.06844  -4332032.48844  24009901.4774   24009900.7894
  -1377298.389 4  -1073218.824 4  25090512.706    25090539.471
 -22296279.77544 -17373708.39644  20797913.9194   20797913.5504
 96  4  4  4 39 30.0000000  0  8G23G26G 6G16G22G21G28G17
 -21372178.74544 -16653627.49244  21053951.8604   21053952.1934
  -9576876.30844  -7462494.93144  22124381.9754   22124381.5474
 -14657150.09744 -11421147.98844  20734677.4504   20734676.9154
  12128822.78044   9451038.86744  24878105.8814   24878103.0744
    -72357.43244    -56382.16344  23354901.6434   23354900.6984
  -5649032.52144  -4401841.65044  23992853.2784   23992851.6714
  -1483355.302 4  -1155860.416 4  25070329.467    25070362.691
 -22316484.50844 -17389452.34044  20794068.9494   20794068.9984
 96  4  4  4 40  0.0000000  0  7G23G26G16G22G21G 6G17
 -21415874.88544 -16687676.41744  21045636.7284   21045636.8404
  -9583838.80344  -7467920.22844  22123056.1104   22123056.4164
  12231255.10844                  24897597.2044
    -77869.21044    -60677.06244  23353853.6184   23353853.1204
  -5738452.10244  -4471519.19244  23975835.9674   23975837.9094
 -14605941.89844 -11381245.51044  20744421.5544   20744421.1594
 -22336495.61044 -17405045.39744  20790260.7904   20790260.9704
 96  4  4  4 40 30.0000000  0  7G23G26G16G22G21G 6G17
 -21459170.68544 -16721413.38344  21037397.4284   21037397.7924
  -9590233.43744  -7472903.04144  22121839.7284   22121838.3114
  12333695.20344                  24917089.6104
    -82902.61644    -64599.19844  23352894.4354   23352894.0064
  -5827732.92144  -4541088.62044  23958846.6924   23958848.1804
 -14554271.47644 -11340982.85744  20754254.8054   20754254.2884
 -22356332.14644 -17420502.43644  20786486.2474   20786486.1604
 96  4  4  4 41  0.0000000  0  7G23G26G16G22G21G 6G17
 -21502016.73044 -16754799.89344  21029244.6004   21029244.4524
  -9596022.01844  -7477413.59544  22120737.7854   22120737.5794
  12436174.36644   9690533.72544  24936593.4244   24936593.5924
    -87405.27044    -68107.76644  23352037.5754   23352037.9634
  -5916829.57244  -4610514.53144  23941893.7084   23941893.3374
 -14502106.15244 -11300334.56744  20764181.2324   20764180.7424
 -22375962.04944 -17435798.46344  20782750.6944   20782750.7524
 96  4  4  4 41 30.0000000  0  7G26G16G22G21G23G 6G17
  -9601245.06044  -7481483.46744  22119744.6514   22119743.7214
  12538655.15844   9770388.88044  24956095.7114   24956095.4154
    -91395.41844    -71216.95644  23351278.2064   23351279.0234
  -6005765.53844  -4679815.26644  23924969.3044   23924969.2924
 -21544441.81044 -16787858.37844  21021171.0524   21021171.2784
 -14449471.78644 -11259320.78944  20774197.0314   20774196.5294
 -22395394.18544 -17450940.37844  20779053.0444   20779052.6974
 96  4  4  4 42  0.0000000  0  7G26G16G22G21G 6G23G17
  -9605888.41644  -7485101.64044  22118860.4214   22118860.3984
  12641141.10044   9850248.11844  24975598.0554   24975599.0294
    -94844.75044    -73904.74944  23350622.4584   23350622.3354
  -6094529.24844  -4748981.75044  23908077.1784   23908076.4084
 -14396354.78444 -11217930.93044  20784304.8154   20784304.5654
 -21586429.71344 -16820576.20244  21013181.0984   21013181.3654
 -22414608.86044 -17465912.85144  20775396.6264   20775396.4404
 96  4  4  4 42 30.0000000  0  6G23G26G22G21G 6G17
 -21627959.41344 -16852936.98844  21005278.2374   21005278.3934
  -9609956.10044  -7488271.23744  22118086.5194   22118085.8744
    -97755.14844    -76172.60444  23350068.7844   23350068.3274
  -6183113.20344  -4818008.14544  23891219.7544   23891222.0504
 -14342749.89444 -11176160.91044  20794505.5574   20794505.0934
 -22433615.99544 -17480723.60144  20771779.5294   20771779.5734
 96  4  4  4 43  0.0000000  0  6G23G26G 6G22G21G17
 -21669076.61844 -16884976.35244  20997453.7644   20997453.8434
  -9613479.49744  -7491016.72344  22117416.2364   22117415.5554
 -14288682.48544 -11134030.47944  20804794.5394   20804794.1474
   -100150.60944    -78039.17844  23349612.3174   23349612.5464
  -6271518.76344  -4886895.56544  23874397.5964   23874397.1704
 -22452442.61144 -17495393.68344  20768196.9874   20768196.8934
 96  4  4  4 43 30.0000000  0  8G23G26G 6G28G22G21G16G17
 -21709752.18744 -16916671.58444  20989713.5154   20989713.8074
  -9616403.68144  -7493295.28144  22116859.7874   22116859.0644
 -14234110.78644 -11091507.10244  20815179.0544   20815178.7674
        -0.96914        -0.53814  24908996.862    24908998.257
   -101990.32044    -79472.70244  23349261.9864   23349263.1434
  -6359674.20444  -4955588.10544  23857621.6674   23857621.5704
         0.10854                  25034099.4674
 -22471034.32544 -17509880.72744  20764659.1744   20764658.8214
 96  4  4  4 44  0.0000000  0  7G26G22G21G16G 6G23G17
  -9618717.93944  -7495098.57844  22116418.9304   22116418.4124
   -103293.02944    -80487.80444  23349014.4454   23349014.8314
  -6447565.80244  -5024075.01844  23840897.4844   23840898.1014
    102495.78244                  25053607.3844
 -14179045.15144 -11048598.83644  20825657.7734   20825657.4234
 -21750001.91044 -16948034.98944  20982054.4064   20982054.2964
 -22489416.02144 -17524204.12744  20761161.4104   20761161.0314
 96  4  4  4 44 30.0000000  0  6G26G22G21G 6G23G17
  -9620472.25944  -7496465.56644  22116085.2344   22116084.0164
   -104117.19444    -81130.01544  23348856.5484   23348857.2854
  -6535242.29844  -5092394.33344  23824211.6984   23824212.2984
 -14123525.16544 -11005336.52544  20836222.5004   20836222.4634
 -21789879.70044 -16979108.57844  20974465.6384   20974465.8604
 -22507630.88944 -17538397.52344  20757695.1224   20757695.1034
 96  4  4  4 45  0.0000000  0  7G26G28G22G21G 6G23G17
  -9621648.51644  -7497382.10344  22115861.3634   22115860.7314
        -0.50614        -0.16614  24848577.385    24848580.756
   -104439.89944    -81381.46344  23348796.2374   23348796.7794
  -6622691.49944  -5160536.53144  23807567.9154   23807570.9784
 -14067536.42844 -10961708.95544  20846876.8674   20846876.4754
 -21829378.44944 -17009886.81044  20966949.2564   20966949.3754
 -22525652.27944 -17552440.15744  20754265.6464   20754265.7264
 96  4  4  4 45 30.0000000  0  7G26G 6G28G22G21G23G17
  -9622242.27744  -7497844.76044  22115748.5614   22115747.7924
 -14011073.41144 -10917711.81144  20857621.6154   20857621.4394
   -105799.238 4    -82440.823 4  24828446.613    24828447.592
   -104253.58844    -81236.28344  23348831.0984   23348832.3824
  -6709929.82944  -5228514.39844  23790967.6414   23790968.7404
 -21868472.76744 -17040349.89844  20959509.9374   20959510.2244
 -22543475.21044 -17566328.15244  20750874.0694   20750873.8674
 96  4  4  4 46  0.0000000  0  7G26G28G22G21G 6G23G17
  -9622305.92944  -7497894.33844  22115736.1604   22115735.4074
   -211599.371 4   -164882.397 4  24808311.370    24808313.889
   -103589.53244    -80718.83944  23348957.5604   23348959.3524
  -6797018.38044  -5296375.59644  23774396.5074   23774398.3824
 -13954156.16044 -10873360.72544  20868452.7134   20868452.3534
 -21907186.66744 -17070516.55744  20952142.8814   20952142.9284
 -22561143.19844 -17580095.41244  20747511.6614   20747511.7354
 96  4  4  4 46 30.0000000  0  7G26G28G22G21G 6G23G17
  -9621842.52544  -7497533.21744  22115824.7614   22115823.6234
   -317395.862 4   -247321.118 4  24788176.673    24788178.825
   -102429.24544    -79814.70844  23349179.2684   23349179.7354
  -6883965.71544  -5364126.70744  23757853.2314   23757853.6344
 -13896785.40244 -10828656.25544  20879369.9944   20879369.8564
 -21945500.84744 -17100371.74144  20944852.1444   20944851.9774
 -22578639.09444 -17593728.57644  20744182.4974   20744182.4124
 96  4  4  4 47  0.0000000  0  6G26G22G21G 6G23G17
  -9620820.96644  -7496737.17644  22116018.9714   22116018.1184
   -100755.84644    -78510.76444  23349496.7994   23349498.3724
  -6970752.08544  -5431752.45344  23741337.1464   23741336.9444
 -13838943.35344 -10783584.54844  20890376.9654   20890376.4904
 -21983397.72544 -17129901.75744  20937640.6964   20937640.6294
 -22595954.77344 -17607221.30644  20740887.4244   20740887.3614
 96  4  4  4 47 30.0000000  0  6G26G22G21G 6G23G17
  -9619239.46044  -7495504.81244  22116319.8134   22116319.2264
    -98590.94744    -76823.83544  23349909.4034   23349909.9034
  -7057389.30444  -5499261.93644  23724850.9794   23724850.6554
 -13780634.50244 -10738149.10044  20901472.7274   20901472.5074
 -22020888.77944 -17159115.54944  20930506.2284   20930506.2654
 -22613104.42744 -17620584.66544  20737624.0904   20737623.9834
 96  4  4  4 48  0.0000000  0  7G26G28G22G21G 6G23G17
  -9617033.35344  -7493785.74944  22116739.7594   22116738.7844
        -0.37414        -0.29014  24727812.371    24727811.975
    -95887.24444    -74717.05244  23350424.2234   23350423.8864
  -7143816.10944  -5566607.47944  23708404.3614   23708404.8074
 -13721812.63644 -10692313.90144  20912666.2504   20912665.9474
 -22057931.96544 -17187980.35344  20923457.1504   20923457.2594
 -22630030.52644 -17633773.83344  20734403.0054   20734402.6024
 96  4  4  4 48 30.0000000  0  6G26G22G21G 6G23G17
  -9614229.30344  -7491600.76744  22117273.4204   22117272.6314
    -92699.51544    -72233.09044  23351030.9974   23351030.1874
  -7230064.72844  -5633814.18244  23691992.2004   23691991.5694
 -13662538.28844 -10646126.12144  20923945.6904   20923945.3144
 -22094574.41944 -17216532.89944  20916484.2534   20916484.3044
 -22646758.96444 -17646808.97444  20731219.7084   20731219.4414
 96  4  4  4 49  0.0000000  0  6G26G22G21G 6G23G17
  -9610818.01544  -7488942.59844  22117922.8594   22117922.1804
    -89040.51344    -69381.93444  23351726.4794   23351726.7004
  -7316122.11144  -5700871.85544  23675616.5874   23675616.7454
 -13602805.27744 -10599580.93444  20935312.6674   20935312.3194
 -22130816.73044 -17244773.64344  20909587.6614   20909587.6464
 -22663282.68944 -17659684.60144  20728075.4964   20728075.3324
 96  4  4  4 49 30.0000000  0  6G26G22G21G 6G23G17
  -9606780.59444  -7485796.54544  22118690.3214   22118689.8614
    -84874.62444    -66135.70844  23352518.9504   23352519.7824
  -7401946.20944  -5767747.76344  23659285.0304   23659284.3364
 -13542601.01944 -10552668.54144  20946768.9974   20946768.7644
 -22166626.04644 -17272676.99044  20902773.2034   20902773.1384
 -22679564.20444 -17672371.49544  20724976.9514   20724976.9504
 96  4  4  4 50  0.0000000  0  6G26G22G21G 6G23G17
  -9602141.01644  -7482181.26444  22119573.7984   22119573.3764
    -80226.47444    -62513.85844  23353403.6524   23353403.0604
  -7487541.00644  -5834444.99144  23642996.0524   23642994.9774
 -13481954.36244 -10505411.42144  20958309.5724   20958309.3264
 -22202026.22344 -17300261.52444  20896036.7844   20896036.7834
 -22695624.89744 -17684886.31744  20721920.6464   20721920.6954
 96  4  4  4 50 30.0000000  0  6G26G22G21G 6G23G17
  -9596889.57444  -7478089.20744  22120572.6624   22120572.7544
    -75068.31144    -58494.54544  23354385.2624   23354384.3584
  -7572875.73644  -5900939.56844  23626757.8734   23626756.7064
 -13420838.83444 -10457788.94844  20969939.6834   20969939.4254
 -22236994.95944 -17327509.87144  20889382.6854   20889382.5984
 -22711445.16744 -17697213.79744  20718910.2224   20718910.1654
 96  4  4  4 51  0.0000000  0  6G 6G26G22G21G23G17
 -13359299.77344 -10409836.45544  20981650.2514   20981649.8774
  -9591093.65544  -7473572.89444  22121675.8054   22121675.3664
    -69439.84744    -54108.69644  23355456.1474   23355457.5164
  -7658001.33844  -5967271.18344  23610557.3674   23610557.8014
 -22271582.02444 -17354460.81344  20882800.5324   20882800.6924
 -22727088.83644 -17709403.67044  20715933.4964   20715933.3454
 96  4  4  4 51 30.0000000  0  7G 6G26G28G22G21G23G17
 -13297324.58444 -10361544.11544  20993443.8814   20993443.6414
  -9584747.58344  -7468627.88744  22122883.4264   22122882.6894
        -0.87714        -0.34114  24587297.545    24587299.823
    -63315.82544    -49336.73144  23356621.4634   23356623.1874
  -7742913.14944  -6033436.21244  23594398.5474   23594400.0464
 -22305780.39444 -17381108.88044  20876293.0594   20876293.2584
 -22742551.09444 -17721452.17644  20712990.8924   20712990.6204
 96  4  4  4 52  0.0000000  0  7G 6G26G28G22G21G23G17
 -13234874.14944 -10312881.45444  21005327.8314   21005327.5594
  -9577829.36844  -7463237.05444  22124200.4514   22124199.3254
   -105278.594 4    -82034.910 4  24567265.387    24567265.897
    -56676.24344    -44163.01844  23357885.3164   23357885.2694
  -7827599.91344  -6099425.86944  23578283.3394   23578283.5224
 -22339569.47744 -17407438.02444  20869863.2824   20869863.2074
 -22757817.63644 -17733348.17944  20710086.0754   20710085.7734
 96  4  4  4 52 30.0000000  0  7G 6G26G28G22G21G23G17
 -13171985.88244 -10263877.63644  21017294.7824   21017294.6314
  -9570376.31144  -7457429.46744  22125617.4464   22125617.6474
   -210513.107 4   -164035.718 4  24547240.359    24547240.338
    -49540.24244    -38602.49544  23359243.3174   23359242.1814
  -7912103.82944  -6165273.05144  23562203.3904   23562204.9134
 -22372977.58944 -17433470.30544  20863505.6424   20863505.7934
 -22772922.18544 -17745117.95544  20707211.6434   20707211.5064
 96  4  4  4 53  0.0000000  0  7G 6G26G28G22G21G23G17
 -13108643.61844 -10214520.04644  21029348.5324   21029348.4934
  -9562358.72344  -7451181.98444  22127144.0864   22127143.4744
   -315685.516 4   -245988.232 4  24527226.339    24527227.527
    -41896.03544    -32645.96544  23360698.2124   23360697.3454
  -7996416.26644  -6230971.02144  23546159.3534   23546159.7854
 -22405990.26244 -17459194.45244  20857223.7834   20857223.5374
 -22787852.04544 -17756751.60644  20704370.4594   20704370.5114
 96  4  4  4 53 30.0000000  0  7G 6G26G28G22G21G23G17
 -13044875.10844 -10164830.31444  21041483.3974   21041483.3684
  -9553785.30544  -7444501.38644  22128775.1844   22128774.2144
   -420825.715 4   -327915.746 4  24507219.863    24507219.784
    -33776.53044    -26319.06344  23362243.3344   23362242.9034
  -8080567.76744  -6296543.60044  23530146.5564   23530146.9934
 -22438636.79544 -17484633.29444  20851011.4234   20851011.2944
 -22802638.89544 -17768273.82444  20701556.4364   20701556.4524
 96  4  4  4 54  0.0000000  0  7G 6G26G28G22G21G23G17
 -12980676.76044 -10114805.64244  21053699.9414   21053699.5824
  -9544649.44544  -7437382.52644  22130513.7874   22130513.1294
   -525935.844 4   -409819.692 4  24487219.153    24487217.833
    -25179.01044    -19619.70344  23363879.4254   23363879.3764
  -8164549.50744  -6361983.90244  23514164.6604   23514166.4084
 -22470913.00844 -17509783.57444  20844869.3084   20844869.0984
 -22817267.80544 -17779672.97144  20698772.6444   20698772.5134
 96  4  4  4 54 30.0000000  0  7G 6G26G28G22G21G23G17
 -12916005.56144 -10064412.51644  21066006.1914   21066006.1104
  -9534899.51544  -7429785.15944  22132369.1924   22132368.3844
   -630972.477 4   -491666.331 4  24467230.853    24467229.226
    -16062.31844    -12515.78944  23365614.0374   23365613.2594
  -8248317.33644  -6427257.50144  23498222.6574   23498225.2584
 -22502765.55544 -17534603.72544  20838808.0454   20838808.0144
 -22831680.62144 -17790903.73644  20696030.1564   20696029.8534
 96  4  4  4 55  0.0000000  0  7G 6G26G28G22G21G23G17
 -12850854.26444 -10013645.28744  21078404.2374   21078404.1834
  -9524527.35944  -7421702.94844  22134342.9784   22134342.4524
   -735940.871 4   -573459.952 4  24447253.968    24447254.531
     -6438.42344     -5016.65344  23367445.2734   23367445.7204
  -8331876.00044  -6492368.10344  23482323.3454   23482324.8324
 -22534187.56744 -17559088.40044  20832828.5734   20832828.3804
 -22845878.27644 -17801966.83644  20693328.5744   20693328.2344
 96  4  4  4 55 30.0000000  0  7G 6G26G28G22G21G23G17
 -12785225.91944  -9962506.33744  21090892.9534   21090892.8164
  -9513536.66744  -7413138.76244  22136433.9984   22136433.5054
   -840838.022 4   -655197.980 4  24427293.503    24427292.043
      3681.56944      2869.03844  23369370.4244   23369369.5014
  -8415225.09144  -6557315.43444  23466463.6934   23466464.3314
 -22565171.30244 -17583231.55444  20826932.5584   20826932.7994
 -22859845.90944 -17812850.70344  20690670.4124   20690670.3404
 96  4  4  4 56  0.0000000  0  7G 6G26G28G22G21G23G17
 -12719144.17844  -9911014.08044  21103468.1724   21103468.1734
  -9501956.10844  -7404114.93344  22138637.9784   22138637.3424
   -945671.495 4   -736886.381 4  24407343.996    24407343.046
     14278.02844     11126.04144  23371387.3984   23371386.6164
  -8498374.18744  -6622106.93544  23450640.2604   23450641.0004
 -22595723.10544 -17607038.14644  20821118.8584   20821118.5534
 -22873591.06144 -17823561.21044  20688055.0364   20688055.2274
 96  4  4  4 56 30.0000000  0  7G 6G26G28G22G21G23G17
 -12652625.88044  -9859181.65644  21116125.8334   21116125.8144
  -9489793.22144  -7394637.35144  22140952.8554   22140951.7614
  -1050438.222 4   -818522.755 4  24387406.567    24387406.664
     25332.66944     19740.05244  23373491.3824   23373489.9184
  -8581326.79144  -6686745.28844  23434854.5744   23434854.5754
 -22625842.08144 -17630507.46544  20815387.2614   20815387.5394
 -22887136.13144 -17834115.80744  20685477.6334   20685477.5624
 96  4  4  4 57  0.0000000  0  7G 6G28G22G21G26G23G17
 -12585678.95944  -9807015.24344  21128865.6864   21128865.3574
  -1155130.138 4   -900100.853 4  24367483.794    24367485.188
     36846.81944     28712.12144  23375682.8824   23375681.5354
  -8664071.09744  -6751221.35144  23419108.7834   23419109.4964
  -9477064.47544  -7384718.83844  22143374.7584   22143373.8714
 -22655534.64044 -17653644.51644  20809737.1474   20809736.9674
 -22900478.91744 -17844512.78544  20682938.2504   20682938.1294
 96  4  4  4 57 30.0000000  0  7G 6G26G28G22G21G23G17
 -12518288.11544  -9754502.91044  21141689.4854   21141689.2534
  -9463764.36244  -7374355.09944  22145905.9614   22145905.1134
  -1259720.223 4   -981599.588 4  24347580.299    24347580.630
     48850.58844     38065.70644  23377967.1524   23377965.6464
  -8746575.49544  -6815510.46744  23403408.5914   23403409.2084
 -22684791.57244 -17676442.11244  20804169.8514   20804169.4984
 -22913588.09244 -17854727.72644  20680443.6234   20680443.4854
 96  4  4  4 58  0.0000000  0  7G 6G28G22G21G26G23G17
 -12450451.05644  -9701642.88244  21154598.5944   21154598.6494
  -1364209.420 4  -1063019.728 4  24327697.687    24327698.978
     61348.17744     47804.09244  23380344.9964   23380343.7424
  -8828832.18044  -6879606.55144  23387756.4674   23387756.0074
  -9449900.72944  -7363552.25944  22148543.5334   22148543.0484
 -22713628.76044 -17698912.64044  20798681.9044   20798681.7524
 -22926481.13944 -17864774.25844  20677990.2704   20677990.0704
 96  4  4  4 58 30.0000000  0  7G 6G28G22G21G26G23G17
 -12382167.41644  -9648434.87044  21167592.6394   21167592.3684
  -1468604.320 4  -1144366.389 4  24307832.497    24307833.179
     74334.86644     57923.60044  23382816.3054   23382814.2704
  -8910844.41844  -6943512.17944  23372150.7954   23372149.7504
  -9435476.07744  -7352312.26844  22151288.7514   22151287.9294
 -22742063.79244 -17721069.79544  20793270.8914   20793270.8074
 -22939166.97844 -17874659.32644  20675576.2364   20675576.1954
 96  4  4  4 59  0.0000000  0  7G 6G28G22G21G26G23G17
 -12313428.42344  -9594872.04144  21180673.3594   21180672.9324
  -1572898.504 4  -1225634.533 4  24287984.845    24287986.333
     87825.81444     68436.01544  23385383.7104   23385382.2974
  -8992609.17344  -7007224.95444  23356590.9484   23356591.5944
  -9420481.01344  -7340627.79144  22154142.2574   22154141.1964
 -22770103.09844 -17742918.59744  20787935.1124   20787934.8874
 -22951636.40444 -17884375.76144  20673203.3614   20673203.0574
 96  4  4  4 59 30.0000000  0  7G 6G28G22G21G26G23G17
 -12244215.57844  -9540939.97444  21193843.7394   21193843.4504
  -1677079.535 4  -1306814.573 4  24268160.144    24268162.025
    101827.46344     79346.38844  23388047.3734   23388046.8654
  -9074123.61544  -7070742.67544  23341078.7524   23341079.0134
  -9404883.94244  -7328474.21644  22157110.2604   22157109.4194
 -22797746.44144 -17764458.85244  20782674.9174   20782675.0114
 -22963892.33544 -17893925.83944  20670871.0954   20670871.0234
 96  4  4  5  0  0.0000000  0  7G 6G28G22G21G26G23G17
 -12174555.60844  -9486659.49544  21207099.7464   21207099.4594
  -1781174.241 4  -1387927.330 4  24248351.321    24248353.607
    116301.21244     90624.65444  23390802.0334   23390802.6614
  -9155413.65044  -7134085.54444  23325609.2134   23325609.6574
  -9388707.19044  -7315868.94844  22160188.7814   22160187.8534
 -22825014.10744 -17785706.37444  20777486.1854   20777485.8624
 -22975983.80644 -17903347.76044  20668570.3314   20668570.2564
 96  4  4  5  0 30.0000000  0  7G 6G28G22G21G26G23G17
 -12104448.06544  -9432030.26544  21220440.7534   21220440.4854
  -1885173.859 4  -1468966.006 4  24228561.197    24228561.963
    131262.82544    102283.06444  23393649.4754   23393648.4144
  -9236477.33444  -7197252.02044  23310182.9144   23310183.4804
  -9371938.17444  -7302802.17244  22163379.7844   22163378.7344
 -22851887.46744 -17806646.64244  20772372.4014   20772372.2054
 -22987899.72544 -17912632.89144  20666302.9664   20666302.8384
 96  4  4  5  1  0.0000000  0  7G 6G28G22G21G26G23G17
 -12033893.87144  -9377052.99744  21233866.9394   21233866.6754
  -1989080.862 4  -1549932.480 4  24208789.225    24208788.805
    146706.03744    114316.73044  23396587.9554   23396587.1164
  -9317325.34744  -7260250.44844  23294798.3114   23294798.4104
  -9354584.42844  -7289279.76544  22166682.0704   22166681.2954
 -22878367.50744 -17827280.42844  20767333.0964   20767332.7854
 -22999636.09644 -17921778.11244  20664069.4464   20664069.3224
 96  4  4  5  1 30.0000000  0  7G 6G28G22G21G26G23G17
 -11962904.87644  -9321736.92344  21247375.5634   21247375.2394
  -2092908.463 4  -1630837.105 4  24189030.945    24189030.286
    162610.32244    126709.67644  23399614.7604   23399614.4434
  -9397970.67744  -7323090.94144  23279452.3224   23279453.3344
  -9336657.21444  -7275310.50044  22170093.5844   22170092.6674
 -22904450.28144 -17847604.65444  20762369.6384   20762369.5824
 -23011197.84444 -17930787.26144  20661869.2934   20661869.1914
 96  4  4  5  2  0.0000000  0  7G 6G28G22G21G26G23G17
 -11891507.75544  -9266102.82544  21260962.0394   21260962.1064
  -2196666.410 4  -1711687.455 4  24169286.628    24169285.842
    178972.14444    139459.15244  23402728.5184   23402727.9974
  -9478420.59944  -7385779.16344  23264143.1014   23264143.6544
  -9318171.28644  -7260905.86944  22173611.3424   22173610.0504
 -22930129.55344 -17867614.46544  20757483.1234   20757483.1964
 -23022577.57444 -17939654.58644  20659703.7704   20659703.7194
 96  4  4  5  2 30.0000000  0  7G 6G28G22G21G26G23G17
 -11819707.61644  -9210154.67844  21274625.1814   21274625.0764
  -2300348.752 4  -1792478.861 4  24149557.492    24149556.166
    195794.27944    152567.28844  23405929.5294   23405928.2504
  -9558692.28144  -7448328.50444  23248867.2884   23248868.1224
  -9299118.63544  -7246059.64544  22177236.1654   22177235.9614
 -22955410.63744 -17887313.99544  20752672.4064   20752672.2294
 -23033747.64744 -17948358.53844  20657578.2704   20657577.9934
 96  4  4  5  3  0.0000000  0  7G 6G28G22G21G26G23G17
 -11747493.26944  -9153883.78244  21288367.3394   21288367.3564
  -2403932.989 4  -1873193.825 4  24129845.835    24129845.617
    213085.29744    166040.80744  23409219.3554   23409219.0094
  -9638767.58444  -7510724.82144  23233629.3634   23233629.8974
  -9279483.97044  -7230759.90244  22180973.2414   22180972.6224
 -22980281.81544 -17906694.12144  20747939.3394   20747939.4944
 -23044684.00544 -17956880.37144  20655497.1824   20655497.0214
 96  4  4  5  3 30.0000000  0  7G 6G28G22G21G26G23G17
 -11674869.27144  -9097293.67144  21302186.9454   21302187.0604
  -2507408.515 4  -1953824.087 4  24110154.634    24110154.681
    230845.97744    179880.30644  23412599.1974   23412598.9494
  -9718629.60344  -7572954.95144  23218431.9654   23218434.2934
  -9259266.29644  -7215005.86644  22184820.1104   22184819.5684
 -23004741.68044 -17925753.73844  20743284.8194   20743284.5874
 -23055390.48644 -17965223.08344  20653459.7094   20653459.4384
 96  4  4  5  4  0.0000000  0  7G 6G28G22G21G26G23G17
 -11601816.98144  -9040369.83044  21316088.4734   21316088.2404
  -2610756.912 4  -2034355.266 4  24090487.295    24090488.931
    249089.76044    194096.24544  23416071.0934   23416070.4384
  -9798258.16644  -7635003.15444  23203280.2664   23203280.5404
  -9238455.01644  -7198789.26844  22188780.7264   22188779.8904
 -23028789.22244 -17944492.06844  20738708.9934   20738708.8694
 -23065858.87644 -17973380.27044  20651467.7994   20651467.6884
 96  4  4  5  4 30.0000000  0  7G 6G28G22G21G26G23G17
 -11528328.35844  -8983105.98544  21330072.9544   21330072.6054
  -2713978.579 4  -2114787.732 4  24070844.169    24070846.046
    267804.68344    208679.29744  23419632.8004   23419632.3894
  -9877649.13544  -7696866.21944  23188172.4034   23188173.3604
  -9217062.75944  -7182119.97444  22192851.1904   22192850.4914
 -23052438.71044 -17962920.22444  20734208.3734   20734208.1694
 -23076114.07544 -17981371.33344  20649516.0504   20649515.8914
 96  4  4  5  5  0.0000000  0  7G 6G28G22G21G26G23G17
 -11454394.79644  -8925495.44144  21344142.2664   21344142.0004
  -2817070.493 4  -2195119.088 4  24051226.479    24051227.938
    286988.97244    223628.08444  23423283.2774   23423282.0024
  -9956775.65844  -7758523.24444  23173114.6424   23173116.0504
  -9195098.63444  -7165005.08044  22197030.8324   22197029.5994
 -23075682.81344 -17981032.49744  20729785.5254   20729785.2684
 -23086173.17044 -17989209.58744  20647602.1784   20647601.9244
 96  4  4  5  5 30.0000000  0  7G 6G28G22G21G26G23G17
 -11380005.40444  -8867529.70144  21358297.8954   21358297.6474
  -2920026.231 4  -2275344.311 4  24031635.378    24031635.033
    306645.71744    238945.01944  23427023.4524   23427023.1824
 -10035632.55444  -7819970.15944  23158108.6314   23158109.1504
  -9172551.72544  -7147436.05244  22201321.3824   22201320.2654
 -23098517.23244 -17998825.53544  20725440.0224   20725439.7294
 -23096040.58244 -17996898.47844  20645724.3734   20645723.9484
 96  4  4  5  6  0.0000000  0  7G 6G28G22G21G26G23G17
 -11305180.57344  -8809224.65944  21372536.5414   21372536.2004
  -3022859.992 4  -2355474.475 4  24012066.371    24012066.849
    326767.38044    254624.24644  23430851.6304   23430852.9574
 -10114242.58544  -7881224.69944  23143149.7804   23143150.4154
  -9149426.33444  -7129416.26244  22205722.4804   22205721.1144
 -23120960.84244 -18016314.04644  20721169.2254   20721169.1214
 -23105734.45144 -18004452.14044  20643879.6224   20643879.5184
 96  4  4  5  6 30.0000000  0  7G 6G28G22G21G26G23G17
 -11229947.66544  -8750601.63344  21386853.1404   21386853.3424
  -3125583.527 4  -2435518.776 4  23992519.178    23992519.302
    347336.40444    270652.04444  23434766.1704   23434766.8204
 -10192620.95444  -7942298.72144  23128234.7794   23128235.6384
  -9125745.48244  -7110963.64844  22210229.0554   22210227.6664
 -23143028.34744 -18033509.49044  20716969.8244   20716969.3504
 -23115264.78044 -18011878.36844  20642066.2284   20642065.8384
 96  4  4  5  7  0.0000000  0  7G 6G28G22G21G26G23G17
 -11154313.17544  -8691665.69144  21401245.4254   21401245.5404
  -3228198.743 4  -2515478.641 4  23972991.742    23972992.291
    368351.36644    287027.31844  23438765.1744   23438765.6434
 -10270774.22744  -8003197.36344  23113362.5964   23113363.2494
  -9101503.33244  -7092073.65544  22214841.7964   22214840.8264
 -23164721.43644 -18050413.17944  20712841.7254   20712841.4814
 -23124622.83944 -18019170.36244  20640285.2084   20640284.8804
 96  4  4  5  7 30.0000000  0  7G 6G28G22G21G26G23G17
 -11078306.92344  -8632440.05544  21415709.3004   21415709.2224
  -3330722.481 4  -2595367.289 4  23953481.763    23953483.041
    389799.61344    303740.23544  23442845.6894   23442846.5214
 -10348736.61644  -8063947.25844  23098527.1124   23098526.6304
  -9076706.83944  -7072751.70044  22219560.0784   22219559.5864
 -23186067.53344 -18067046.48744  20708779.8054   20708779.5174
 -23133811.90544 -18026330.67044  20638536.5504   20638536.2204
 96  4  4  5  8  0.0000000  0  7G 6G28G22G21G26G23G17
 -11001913.75444  -8572912.92844  21430246.0754   21430245.9164
  -3433131.852 4  -2675166.769 4  23933995.037    23933995.725
    411709.27844    320812.69644  23447016.4004   23447016.1154
 -10426489.68244  -8124534.05044  23083731.8934   23083731.5514
  -9051347.73644  -7052991.36444  22224385.4544   22224385.2434
 -23207030.81944 -18083381.50344  20704790.3334   20704790.2424
 -23142795.28144 -18033330.70044  20636827.2714   20636826.8644
 96  4  4  5  8 30.0000000  0  7G 6G28G22G21G26G23G17
 -10925124.24244  -8513076.96444  21444858.8934   21444858.9884
  -3535425.396 4  -2754875.986 4  23914529.422    23914530.427
    434067.89444    338234.98644  23451270.4484   23451270.7994
 -10504037.78644  -8184961.12844  23068974.4114   23068976.0854
  -9025428.14344  -7032794.28044  22229318.6214   22229318.3364
 -23227596.02944 -18099406.33044  20700877.0084   20700876.7364
 -23151560.78644 -18040160.96144  20635159.2724   20635158.9484
 96  4  4  5  9  0.0000000  0  7G 6G28G22G21G26G23G17
 -10847924.17144  -8452921.08244  21459549.7954   21459549.5694
  -3637590.400 4  -2834485.051 4  23895087.382    23895088.768
    456898.18544    356024.82144  23455615.0104   23455614.9494
 -10581381.27944  -8245228.76044  23054256.1624   23054257.0434
  -8998922.71244  -7012140.69844  22234362.3934   22234361.4334
 -23247739.50844 -18115102.53544  20697043.7904   20697043.7674
 -23160095.27244 -18046811.20544  20633535.0524   20633534.7164
 96  4  4  5  9 30.0000000  0  7G 6G28G22G21G26G23G17
 -10770315.48144  -8392446.80044  21474317.8174   21474317.6384
  -3739618.289 4  -2913987.270 4  23875672.194    23875673.252
    480196.51544    374179.34844  23460048.8234   23460049.0554
 -10658521.26544  -8305337.83144  23039576.9704   23039577.5364
  -8971834.01844  -6991032.62344  22239516.8494   22239515.6024
 -23267448.31344 -18130460.03444  20693293.4214   20693293.1914
 -23168387.60644 -18053272.76244  20631956.9274   20631956.5854
 96  4  4  5 10  0.0000000  0  7G 6G28G22G21G26G23G17
 -10692272.73144  -8331634.28744  21489169.1234   21489169.1974
  -3841489.300 4  -2993367.268 4  23856287.210    23856287.160
    503952.74844    392690.68544  23464569.6444   23464570.4264
 -10735432.50044  -8365268.64144  23024941.8334   23024943.5124
  -8944162.50844  -6969470.40444  22244782.7904   22244781.9424
 -23286701.85044 -18145462.77744  20689629.7844   20689629.4734
 -23176436.01844 -18059544.25544  20630425.5964   20630425.3334
 96  4  4  5 10 30.0000000  0  7G 6G28G22G21G26G23G17
 -10613805.12544  -8270490.71344  21504101.2284   21504101.1254
  -3943214.759 4  -3072633.836 4  23836929.319    23836929.466
    528141.20144    411538.81344  23469172.9064   23469172.7764
 -10812124.61944  -8425028.72344  23010347.3954   23010347.6244
  -8915917.42644  -6947461.24944  22250157.2284   22250156.3014
 -23305536.00544 -18160138.72944  20686045.7004   20686045.3394
 -23184262.71044 -18065642.97444  20628936.1344   20628935.8354
 96  4  4  5 11  0.0000000  0  7G 6G28G22G21G26G23G17
 -10534898.36944  -8209004.94744  21519116.5694   21519116.7244
  -4044767.196 4  -3151765.595 4  23817604.501    23817604.669
    552792.70544    430747.76744  23473863.2214   23473862.9094
 -10888561.29844  -8484589.76544  22995801.9194   22995801.7184
  -8887080.45644  -6924990.87844  22255645.1614   22255644.6334
 -23323943.58344 -18174482.28644  20682542.6944   20682542.3764
 -23191850.72344 -18071555.70444  20627492.3124   20627492.1124
 96  4  4  5 11 30.0000000  0  7G 6G28G22G21G26G23G17
 -10455556.55644  -8147180.18344  21534214.5684   21534214.9224
  -4146152.461 4  -3230767.089 4  23798311.245    23798311.783
    577874.99444    450292.39744  23478636.6004   23478636.8914
 -10964732.82944  -8543944.18344  22981306.7754   22981306.8794
  -8857675.63444  -6902078.03444  22261240.4904   22261239.2764
 -23341959.54544 -18188520.68644  20679114.4084   20679114.1774
 -23199206.01044 -18077287.09044  20626092.3904   20626092.1114
 96  4  4  5 12  0.0000000  0  7G 6G28G22G21G26G23G17
 -10375773.79644  -8085011.82244  21549397.0624   21549396.8434
  -4247372.398 4  -3309639.758 4  23779049.174    23779050.246
    603396.12444    470178.99544  23483492.4114   23483493.6184
 -11040627.05844  -8603082.53144  22966864.6724   22966865.1544
  -8827697.54244  -6878718.46844  22266944.9014   22266944.0604
 -23359596.43744 -18202263.70944  20675758.1144   20675757.7424
 -23206340.12844 -18082846.13244  20624734.5154   20624734.7124
 96  4  4  5 12 30.0000000  0  7G 6G28G22G21G26G23G17
 -10295565.37444  -8022511.77144  21564660.5604   21564660.7204
  -4348434.455 4  -3388389.395 4  23759818.111    23759818.432
    629375.96844    490423.03344  23488436.5834   23488436.1914
 -11116247.91944  -8662007.86644  22952473.6204   22952474.4334
  -8797141.95844  -6854908.92344  22272759.6044   22272759.0274
 -23376862.25244 -18215717.57844  20672472.6984   20672472.3904
 -23213262.13544 -18088239.89844  20623417.4984   20623417.7604
 96  4  4  5 13  0.0000000  0  7G 6G28G22G21G26G23G17
 -10214954.74944  -7959698.31644  21579999.6284   21579999.4424
  -4449348.189 4  -3467023.451 4  23740615.698    23740615.658
    655798.46044    511011.98244  23493464.8264   23493465.6924
 -11191600.75944  -8720724.34744  22938135.3284   22938135.7614
  -8766022.66144  -6830660.11744  22278681.5614   22278680.2834
 -23393766.85444 -18228889.98244  20669255.6704   20669255.4804
 -23219979.09744 -18093473.88944  20622139.3824   20622139.5394
 96  4  4  5 13 30.0000000  0  7G 6G28G22G21G26G23G17
 -10133946.26044  -7896574.83844  21595414.9564   21595414.9264
  -4550113.554 4  -3545541.883 4  23721440.776    23721440.619
    682650.74844    531935.83844  23498575.1344   23498574.9504
 -11266684.84244  -8779231.40944  22923847.4704   22923847.3544
  -8734343.94944  -6805975.40544  22284709.5514   22284708.8784
 -23410313.05944 -18241783.11944  20666106.9054   20666106.8504
 -23226492.58944 -18098549.33244  20620900.0624   20620899.8894
 96  4  4  5 14  0.0000000  0  7G 6G28G22G21G26G23G17
 -10052563.13644  -7833159.43044  21610902.0234   21610901.8144
  -4650737.021 4  -3623949.748 4  23702291.926    23702292.325
    709936.72844    553197.62844  23503767.4454   23503767.0464
 -11341522.87544  -8837546.75144  22909605.3574   22909606.2844
  -8702110.33844  -6780858.30544  22290843.6794   22290842.6934
 -23426498.31844 -18254394.99644  20663027.0654   20663026.8234
 -23232817.87344 -18103478.11644  20619696.2304   20619696.1364
 96  4  4  5 14 30.0000000  0  7G 6G28G22G21G26G23G17
  -9970835.14844  -7769475.29844  21626454.5734   21626454.7524
  -4751220.466 4  -3702248.528 4  23683170.980    23683171.111
    737643.37644    574787.23244  23509039.7744   23509040.3494
 -11416134.16444  -8895685.41744  22895407.7264   22895408.0674
  -8669342.96244  -6755325.29044  22297079.0644   22297077.9074
 -23442333.94944 -18266734.43544  20660013.7074   20660013.4754
 -23238947.51244 -18108254.45244  20618529.5954   20618529.6894
 96  4  4  5 15  0.0000000  0  7G 6G28G22G21G26G23G17
  -9888754.96144  -7705516.72744  21642073.8004   21642073.4664
  -4851551.800 4  -3780428.773 4  23664078.567    23664079.709
    765758.93444    596695.44144  23514390.7234   23514389.9804
 -11490521.30344  -8953649.40744  22881252.8604   22881252.6934
  -8636043.17844  -6729377.39444  22303415.7244   22303414.4984
 -23457815.56244 -18278798.02144  20657067.7044   20657067.4854
 -23244852.79144 -18112855.96644  20617406.4904   20617406.3754
 96  4  4  5 15 30.0000000  0  7G 6G28G22G21G26G23G17
  -9806312.09644  -7641275.55044  21657762.0284   21657761.6914
  -4951727.302 4  -3858487.592 4  23645015.862    23645016.591
    794287.81744    618925.72244  23519818.9224   23519819.0754
 -11564695.84044  -9011447.73744  22867138.4984   22867138.4854
  -8602208.46544  -6703012.68144  22309854.2034   22309852.8224
 -23472933.69644 -18290578.37344  20654190.7014   20654190.3634
 -23250541.17544 -18117288.47044  20616323.7474   20616323.6994
 96  4  4  5 16  0.0000000  0  7G 6G28G22G21G26G23G17
  -9723504.35844  -7576750.06244  21673519.8704   21673519.5074
  -5051747.240 4  -3936425.168 4  23625982.336    23625983.199
    823226.71644    641475.51644  23525325.5834   23525326.0344
 -11638672.62044  -9069091.97244  22853060.8924   22853061.2504
  -8567833.06544  -6676226.65144  22316395.5314   22316395.1574
 -23487670.67544 -18302061.72444  20651386.3044   20651386.2224
 -23256010.35344 -18121550.16444  20615282.7014   20615282.3624
 96  4  4  5 16 30.0000000  0  7G 6G28G22G21G26G23G17
  -9640305.61644  -7511919.88944  21689352.0024   21689352.1644
  -5151589.837 4  -4014224.568 4  23606982.026    23606982.812
    852583.99644    664351.32344  23530911.3574   23530911.8454
 -11712427.59044  -9126563.36044  22839025.3944   22839025.9214
  -8532896.92444  -6649003.69044  22323043.5914   22323042.9844
 -23501990.15844 -18313219.75544  20648661.7274   20648661.2984
 -23261243.45444 -18125627.90044  20614287.1054   20614286.7834
 96  4  4  5 17  0.0000000  0  7G 6G28G22G21G26G23G17
  -9556694.81544  -7446768.63344  21705262.9384   21705262.8264
  -5251248.668 4  -4091880.777 4  23588018.260    23588018.640
    882358.65744    687552.34044  23536577.9834   23536578.4034
 -11785939.93944  -9183845.69044  22825036.4094   22825036.6664
  -8497385.21444  -6621332.22944  22329801.0654   22329800.1954
 -23515877.92344 -18324041.38044  20646018.6724   20646018.2954
 -23266261.28344 -18129537.89644  20613332.3644   20613332.1914
 96  4  4  5 17 30.0000000  0  7G 6G28G22G21G26G23G17
  -9472652.73744  -7381281.31744  21721255.4994   21721255.8224
  -5350699.515 4  -4169374.916 4  23569093.401    23569093.651
    912585.07844    711105.39744  23542329.1594   23542328.3944
 -11859179.16844  -9240915.21344  22811099.6964   22811100.2134
  -8461270.24444  -6593190.67844  22336674.0324   22336672.4774
 -23529307.73644 -18334506.15844  20643462.9864   20643462.9824
 -23271065.01544 -18133281.05944  20612418.2074   20612418.0404
 96  4  4  5 18  0.0000000  0  7G 6G28G22G21G26G23G17
  -9388214.14044  -7315485.02944  21737323.4354   21737323.0894
  -5449958.104 4  -4246719.249 4  23550205.008    23550205.940
    943253.07944    735002.54344  23548165.6354   23548164.1814
 -11932158.65444  -9297782.32944  22797212.1614   22797212.6294
  -8424580.64044  -6564601.38544  22343655.3784   22343654.2724
 -23542308.47144 -18344636.58844  20640989.1174   20640988.7294
 -23275673.52144 -18136872.10144  20611541.1114   20611540.8614
 96  4  4  5 18 30.0000000  0  7G 6G28G22G21G26G23G17
  -9303416.95544  -7249409.32444  21753460.3134   21753460.4774
  -5549043.723 4  -4323928.810 4  23531348.901    23531350.896
    974348.17944    759232.49044  23554082.9604   23554082.0654
 -12004894.35944  -9354459.48944  22783370.6004   22783370.9854
  -8387348.89344  -6535589.63344  22350741.0474   22350739.8484
 -23554928.23344 -18354470.15844  20638587.5554   20638587.3224
 -23280115.22444 -18140333.16544  20610695.9354   20610695.6574
 96  4  4  5 19  0.0000000  0  7G 6G28G22G21G26G23G17
  -9218248.48844  -7183044.31244  21769667.1444   21769667.5594
  -5647930.817 4  -4400983.692 4  23512531.083    23512532.970
   1005905.00244    783822.22544  23560087.1664   23560086.6464
 -12077368.74144  -9410933.01544  22769579.3864   22769580.0914
  -8349553.85044  -6506138.94344  22357932.4044   22357931.0174
 -23567175.54244 -18364013.51144  20636257.1744   20636256.9214
 -23284357.28844 -18143638.66544  20609888.7294   20609888.5764
 96  4  4  5 19 30.0000000  0  7G 6G28G22G21G26G23G17
  -9132733.56544  -7116409.32844  21785939.7604   21785940.0334
  -5746630.043 4  -4477892.144 4  23493749.954    23493751.027
   1037905.70144    808757.85344  23566177.2244   23566176.7874
 -12149619.46044  -9467232.26644  22755830.8014   22755831.1314
  -8311206.32044  -6476257.75144  22365230.1814   22365229.3194
 -23579072.34244 -18373283.73344  20633993.2474   20633992.7234
 -23288386.86944 -18146778.59844  20609121.8064   20609121.4904
 96  4  4  5 20  0.0000000  0  7G 6G28G22G21G26G23G17
  -9046887.62044  -7049516.41044  21802275.4304   21802276.1474
  -5845148.800 4  -4554659.967 4  23475003.359    23475004.035
   1070320.81244    834016.36244  23572345.1534   23572346.1744
 -12221648.56744  -9523358.83144  22742124.5644   22742124.7004
  -8272318.06644  -6445955.20644  22372630.1084   22372629.6304
 -23590637.17944 -18382295.28944  20631792.4034   20631792.1614
 -23292196.90644 -18149747.45644  20608397.0324   20608396.9214
 96  4  4  5 20 30.0000000  0  7G 6G28G22G21G26G23G17
  -8960690.79144  -6982350.06344  21818679.3444   21818679.4514
  -5943473.956 4  -4631276.953 4  23456291.926    23456293.379
   1103148.99044    859596.75344  23578592.9764   23578593.5724
 -12293437.50944  -9579298.24844  22728462.6154   22728463.7904
  -8232874.54644  -6415220.00144  22380136.2434   22380135.7424
 -23601846.55344 -18391029.85844  20629659.3964   20629658.9954
 -23295762.32644 -18152525.70244  20607718.4734   20607718.4634
 96  4  4  5 21  0.0000000  0  7G 6G28G22G21G26G23G17
  -8874127.44844  -6914898.13844  21835151.0024   21835150.8824
  -6041605.664 4  -4707743.200 4  23437618.284    23437618.820
   1136372.70144    885485.35744  23584914.7444   23584916.8034
 -12364982.17744  -9635047.33344  22714848.5834   22714848.6734
  -8192885.20744  -6384059.47544  22387745.9124   22387745.5264
 -23612688.62944 -18399478.22144  20627596.1654   20627595.8554
 -23299078.03444 -18155109.36944  20607087.4074   20607087.4624
 96  4  4  5 21 30.0000000  0  7G 6G28G22G21G26G23G17
  -8787175.53844  -6847143.41744  21851697.5764   21851697.4514
  -6139534.645 4  -4784051.483 4  23418982.434    23418983.867
   1169977.02644    911670.51844  23591310.0004   23591311.5164
 -12436262.21044  -9690590.20344  22701284.6274   22701284.9284
  -8152355.18444  -6352477.63844  22395458.3554   22395457.8074
 -23623134.52044 -18407617.87244  20625608.4434   20625608.1764
 -23302141.36244 -18157496.37744  20606504.6494   20606504.4434
 96  4  4  5 22  0.0000000  0  7G 6G28G22G21G26G23G17
  -8699834.45844  -6779085.45144  21868317.7044   21868317.4654
  -6237262.914 4  -4860203.365 4  23400385.923    23400386.609
   1203965.26944    938154.84044  23597778.2554   23597777.9314
 -12507275.70344  -9745925.37844  22687771.0704   22687770.6904
  -8111303.14844  -6320489.02944  22403270.3104   22403268.7784
 -23633179.95844 -18415445.47644  20623696.8274   20623696.4434
 -23304967.49844 -18159698.55844  20605966.5184   20605966.5784
 96  4  4  5 22 30.0000000  0  7G 6G28G22G21G26G23G17
  -8612102.31944  -6710722.76844  21885012.9254   21885013.3584
  -6334785.486 4  -4936194.946 4  23381828.328    23381828.695
   1238345.32844    964944.49144  23604320.1314   23604320.6924
 -12578040.43444  -9801066.72644  22674304.5024   22674304.5784
  -8069734.40744  -6288097.80744  22411180.7684   22411179.9124
 -23642822.79344 -18422959.37444  20621862.0774   20621861.9264
 -23307566.41244 -18161723.68244  20605472.3094   20605472.1024
 96  4  4  5 23  0.0000000  0  7G 6G28G22G21G26G23G17
  -8523980.20044  -6642056.20644  21901781.8564   21901781.8234
  -6432091.607 4  -5012017.872 4  23363310.971    23363312.000
   1273110.04644    992033.89544  23610935.9804   23610936.7384
 -12648555.27644  -9856013.33544  22660885.8824   22660886.9534
  -8027628.40444  -6255287.93744  22419193.3604   22419191.9244
 -23652074.63744 -18430168.59644  20620101.2564   20620100.6644
 -23309941.51044 -18163574.41444  20605020.0754   20605019.7874
 96  4  4  5 23 30.0000000  0  7G 6G28G22G21G26G23G17
  -8435484.12044  -6573098.24044  21918622.1804   21918622.6074
  -6529175.128 4  -5087667.375 4  23344836.100    23344837.818
   1308272.59744   1019433.24644  23617626.8854   23617628.0944
 -12718818.98944  -9910764.27544  22647515.2154   22647515.4124
  -7984959.27444  -6222039.26244  22427312.3554   22427311.4344
 -23660940.69144 -18437077.20544  20618413.7864   20618413.6704
 -23312093.22444 -18165251.07244  20604610.7484   20604610.6514
 96  4  4  5 24  0.0000000  0  7G 6G28G22G21G26G23G17
  -8346631.64644  -6503862.56144  21935530.3454   21935530.5164
  -6626040.959 4  -5163147.246 4  23326403.976    23326404.202
   1343844.66744   1047151.73144  23624396.2254   23624396.3194
 -12788832.22244  -9965320.02844  22634192.8084   22634192.5034
  -7941721.27244  -6188347.32144  22435540.4714   22435540.0314
 -23669434.68944 -18443695.90344  20616797.5764   20616797.3354
 -23314029.57844 -18166759.92244  20604242.1454   20604241.9554
 96  4  4  5 24 30.0000000  0  7G 6G28G22G21G26G23G17
  -8257417.46244  -6434345.02344  21952507.1984   21952507.5114
  -6722688.900 4  -5238457.291 4  23308012.858    23308012.667
   1379815.69344   1075181.10744  23631240.6744   23631241.2444
 -12858576.78544 -10019666.43744  22620919.9794   22620920.6064
  -7897908.79144  -6154207.72244  22443878.2904   22443877.7494
 -23677559.90144 -18450027.23144  20615251.5424   20615251.2444
 -23315741.17344 -18168093.63844  20603916.6154   20603916.4134
 96  4  4  5 25  0.0000000  0  7G 6G28G22G21G26G23G17
  -8167830.92144  -6364537.35344  21969555.2194   21969555.1534
  -6819112.757 4  -5313592.738 4  23289663.243    23289664.236
   1416197.89244   1103530.85844  23638164.4184   23638162.4144
 -12928033.78244 -10073788.76544  22607703.3444   22607703.2624
  -7853517.09044  -6119616.78144  22452325.0974   22452324.5484
 -23685309.09644 -18456065.56244  20613776.7674   20613776.7504
 -23317209.97944 -18169238.16344  20603637.1274   20603637.0894
 96  4  4  5 25 30.0000000  0  7G 6G28G22G21G26G23G17
  -8077884.96944  -6294449.61044  21986671.0344   21986670.9434
  -6915328.963 4  -5388566.429 4  23271353.860    23271354.846
   1452995.67044   1132204.44644  23645167.0714   23645165.2374
 -12997227.81144 -10127706.17344  22594536.2344   22594536.2574
  -7808587.52344  -6084606.73944  22460875.1894   22460874.9044
 -23692692.06544 -18461818.51944  20612372.1214   20612371.5714
 -23318451.25944 -18170205.39444  20603401.0854   20603400.7574
 96  4  4  5 26  0.0000000  0  7G 6G28G22G21G26G23G17
  -7987580.34144  -6224082.37744  22003855.8124   22003856.1534
  -7011336.153 4  -5463377.207 4  23253084.564    23253084.719
   1490201.07244   1161195.68844  23652246.4354   23652246.2354
 -13066170.19744 -10181427.50144  22581417.1104   22581416.9344
  -7763144.51544  -6049196.60344  22469522.9934   22469522.5724
 -23699715.18444 -18467291.07344  20611035.6014   20611035.4204
 -23319464.28944 -18170994.76644  20603208.0384   20603207.9594
 96  4  4  5 26 30.0000000  0  7G 6G28G22G21G26G23G17
  -7896927.93044  -6153444.15144  22021105.6734   22021106.3034
  -7107126.705 4  -5538019.178 4  23234856.386    23234857.218
   1527802.78844   1190495.72544  23659401.2514   23659401.1034
 -13134875.24344 -10234963.89444  22568342.7794   22568342.4414
  -7717192.86944  -6013390.12244  22478266.9424   22478265.8944
 -23706387.00044 -18472489.88844  20609765.6814   20609765.5664
 -23320251.54644 -18171608.21644  20603058.3864   20603058.0094
 96  4  4  5 27  0.0000000  0  7G 6G28G22G21G26G23G17
  -7805947.19344  -6082550.06844  22038419.3744   22038419.1474
  -7202695.150 4  -5612488.071 4  23216669.900    23216670.599
   1565800.62944   1220104.39744  23666632.1804   23666633.5744
 -13203359.47944 -10288328.21944  22555310.1084   22555310.1324
  -7670733.24844  -5977187.81344  22487108.2304   22487107.7334
 -23712720.55344 -18477425.11944  20608560.6254   20608560.4474
 -23320824.70744 -18172054.83844  20602949.4484   20602949.1094
 96  4  4  5 27 30.0000000  0  7G 6G28G22G21G26G23G17
  -7714661.66444  -6011418.51244  22055789.9684   22055790.5834
  -7298053.525 4  -5686793.282 4  23198522.940    23198524.610
   1604161.86544   1249996.26644  23673932.7424   23673933.7684
 -13271641.30444 -10341534.82944  22542316.4954   22542316.4324
  -7623782.32844  -5940602.69544  22496042.5994   22496041.8184
 -23718732.72644 -18482109.92244  20607416.4394   20607416.2374
 -23321208.39044 -18172353.81144  20602876.2674   20602876.0584
 96  4  4  5 28  0.0000000  0  7G 6G28G22G21G26G23G17
  -7623056.01544  -5940037.49544  22073221.8734   22073222.1594
  -7393183.123 4  -5760920.246 4  23180420.841    23180422.092
   1642882.18644   1280167.94944  23681300.5934   23681300.9914
 -13339688.24044 -10394558.40244  22529367.2794   22529367.2764
  -7576323.09944  -5903621.47844  22505073.9704   22505072.8824
 -23724397.89644 -18486524.33044  20606338.4734   20606338.1724
 -23321395.78644 -18172499.83544  20602840.5644   20602840.2834
 96  4  4  5 28 30.0000000  0  7G 6G28G22G21G26G23G17
  -7531118.80444  -5868398.11444  22090717.3454   22090717.2614
  -7488077.376 4  -5834863.793 4  23162364.191    23162364.225
   1681959.66644   1310617.91944  23688737.0074   23688737.4294
 -13407483.90144 -10447386.18144  22516466.5424   22516466.8804
  -7528341.78444  -5866233.45244  22514204.6164   22514203.8444
 -23729703.82044 -18490658.80444  20605328.7174   20605328.5894
 -23321382.89444 -18172489.78644  20602842.9934   20602842.6294
 96  4  4  5 29  0.0000000  0  7G 6G28G22G21G26G23G17
  -7438834.75044  -5796488.47744  22108278.2424   22108277.7644
  -7582732.839 4  -5908621.277 4  23144351.216    23144351.363
   1721391.12844   1341343.70344  23696239.8094   23696239.9044
 -13475025.75144 -10500016.18144  22503614.1054   22503614.5484
  -7479842.65744  -5828441.92244  22523433.3044   22523433.0674
 -23734639.44244 -18494504.73744  20604389.3764   20604389.1674
 -23321153.42744 -18172310.97944  20602886.4354   20602886.1104
 96  4  4  5 29 30.0000000  0  7G 6G28G22G21G26G23G17
  -7346198.50344  -5724304.38744  22125906.6334   22125906.8804
  -7677151.151 4  -5982193.980 4  23126383.646    23126384.856
   1761166.87144   1372337.79344  23703809.2184   23703810.5324
 -13542303.88444 -10552440.69244  22490811.8654   22490811.8534
  -7430834.09144  -5790253.43244  22532759.4924   22532758.9144
 -23739198.86844 -18498057.51944  20603521.9714   20603521.6414
 -23320700.29244 -18171957.88344  20602972.8784   20602972.8894
 96  4  4  5 30  0.0000000  0  7G 6G28G22G21G26G23G17
  -7253226.10344  -5651858.35644  22143598.5224   22143598.5664
  -7771334.537 4  -6055583.640 4  23108461.936    23108462.617
   1801292.03344   1403604.15544  23711444.8554   23711445.1494
 -13609324.60644 -10604664.61044  22478058.0524   22478058.1714
  -7381322.15844  -5751672.69844  22542181.6594   22542180.1054
 -23743386.76544 -18501320.80244  20602725.0464   20602724.9184
 -23320024.57244 -18171431.35544  20603101.5394   20603101.3594
 96  4  4  5 30 30.0000000  0  7G 6G28G22G21G26G23G17
  -7159930.28544  -5579160.31344  22161351.7784   22161352.2524
  -7865284.877 4  -6128791.682 4  23090583.775    23090583.764
   1841771.09044   1435146.26444  23719147.6604   23719148.4664
 -13676102.66544 -10656699.45644  22465350.3414   22465349.7954
  -7331306.65344  -5712699.58144  22551698.4964   22551697.6044
 -23747223.18544 -18504310.20444  20601995.0784   20601994.8524
 -23319109.79544 -18170718.54944  20603275.5304   20603275.4904
 96  4  4  5 31  0.0000000  0  7G 6G28G22G21G26G23G17
  -7066304.24044  -5506204.96444  22179168.8954   22179168.9824
  -7958983.761 4  -6201803.761 4  23072753.343    23072753.358
   1882618.30744   1466975.26944  23726921.1484   23726920.8184
 -13742633.02644 -10708541.27944  22452689.8974   22452689.5954
  -7280782.83144  -5673330.36244  22561313.0444   22561312.2524
 -23750695.97644 -18507016.25744  20601334.1154   20601333.8124
 -23317936.89244 -18169804.60144  20603498.8494   20603498.4964
 96  4  4  5 31 30.0000000  0  7G 6G28G22G21G26G23G17
  -6972362.07344  -5433003.27044  22197044.8644   22197044.8804
  -8052421.213 4  -6274612.150 4  23054971.910    23054973.244
   1923851.72344   1499105.18444  23734767.5274   23734767.8444
 -13808902.02944 -10760179.46144  22440079.2874   22440079.3954
  -7229737.89344  -5633555.08444  22571026.5344   22571025.7904
 -23753792.86644 -18509429.39744  20600744.8224   20600744.3954
 -23316505.85444 -18168689.51144  20603771.0394   20603770.9114
 96  4  4  5 32  0.0000000  0  7G 6G28G22G21G26G23G17
  -6878091.85544  -5359545.94544  22214984.1914   22214984.6094
  -8145581.227 4  -6347204.373 4  23037244.050    23037245.340
   1965491.24244   1531551.55844  23742690.7544   23742690.6654
 -13874901.19444 -10811607.36544  22427519.8734   22427520.3714
  -7178158.07644  -5593363.03644  22580841.7504   22580840.8314
 -23756499.59844 -18511538.51644  20600229.7934   20600229.2764
 -23314806.90144 -18167365.65444  20604094.4224   20604094.2074
